Wetterdaten: Dienstag, 12.05.2020
Datum Zeit Temp. I. Temp. A. Feuchte I. Feuchte A. Luftdruck Regen Wind Richtung Richtung Sonnenschein Solar Taupunkt Windchill Windböen
12.05.2020 00:00 26,4 °C 1,2 °C 44 % 84 % 1014,2 hPa 0,0 l/m² 5,0 km/h (1 Bft) NW 323 ° 0 min 0 W/m² -1,2 °C 1,2 °C 8,0 km/h (2 Bft)
12.05.2020 00:01 26,4 °C 1,2 °C 44 % 84 % 1014,2 hPa 0,0 l/m² 4,5 km/h (1 Bft) NW 323 ° 0 min 0 W/m² -1,2 °C 1,2 °C 6,4 km/h (2 Bft)
12.05.2020 00:03 26,4 °C 1,3 °C 44 % 84 % 1014,2 hPa 0,0 l/m² 4,7 km/h (1 Bft) NW 323 ° 0 min 0 W/m² -1,1 °C 1,3 °C 6,4 km/h (2 Bft)
12.05.2020 00:05 26,4 °C 1,3 °C 44 % 83 % 1014,3 hPa 0,0 l/m² 4,1 km/h (1 Bft) NW 325 ° 0 min 0 W/m² -1,3 °C 1,3 °C 6,4 km/h (2 Bft)
12.05.2020 00:07 26,4 °C 1,3 °C 44 % 83 % 1014,3 hPa 0,0 l/m² 4,6 km/h (1 Bft) NW 317 ° 0 min 0 W/m² -1,3 °C 1,3 °C 8,0 km/h (2 Bft)
12.05.2020 00:09 26,4 °C 1,3 °C 44 % 83 % 1014,3 hPa 0,0 l/m² 3,7 km/h (1 Bft) NW 317 ° 0 min 0 W/m² -1,3 °C 1,3 °C 4,8 km/h (1 Bft)
12.05.2020 00:10 26,4 °C 1,3 °C 44 % 82 % 1014,4 hPa 0,0 l/m² 1,1 km/h (1 Bft) NW 317 ° 0 min 0 W/m² -1,4 °C 1,3 °C 3,2 km/h (1 Bft)
12.05.2020 00:11 26,4 °C 1,2 °C 44 % 82 % 1014,4 hPa 0,0 l/m² 0,8 km/h (0 Bft) NW 317 ° 0 min 0 W/m² -1,5 °C 1,2 °C 1,6 km/h (1 Bft)
12.05.2020 00:13 26,4 °C 1,0 °C 44 % 82 % 1014,4 hPa 0,0 l/m² 1,5 km/h (1 Bft) NW 317 ° 0 min 0 W/m² -1,7 °C 1,0 °C 3,2 km/h (1 Bft)
12.05.2020 00:14 26,4 °C 0,9 °C 44 % 82 % 1014,4 hPa 0,0 l/m² 2,7 km/h (1 Bft) NW 317 ° 0 min 0 W/m² -1,8 °C 0,9 °C 3,2 km/h (1 Bft)
12.05.2020 00:15 26,4 °C 0,8 °C 44 % 82 % 1014,4 hPa 0,0 l/m² 2,7 km/h (1 Bft) NW 317 ° 0 min 0 W/m² -1,9 °C 0,8 °C 3,2 km/h (1 Bft)
12.05.2020 00:17 26,4 °C 0,5 °C 44 % 84 % 1014,5 hPa 0,0 l/m² 3,2 km/h (1 Bft) NW 317 ° 0 min 0 W/m² -1,9 °C 0,5 °C 4,8 km/h (1 Bft)
12.05.2020 00:19 26,4 °C 0,4 °C 44 % 85 % 1014,5 hPa 0,0 l/m² 3,4 km/h (1 Bft) NW 317 ° 0 min 0 W/m² -1,8 °C 0,4 °C 4,8 km/h (1 Bft)
12.05.2020 00:21 26,4 °C 0,4 °C 44 % 86 % 1014,5 hPa 0,0 l/m² 3,7 km/h (1 Bft) NW 317 ° 0 min 0 W/m² -1,7 °C 0,4 °C 4,8 km/h (1 Bft)
12.05.2020 00:24 26,4 °C 0,6 °C 44 % 87 % 1014,5 hPa 0,0 l/m² 2,9 km/h (1 Bft) NW 317 ° 0 min 0 W/m² -1,3 °C 0,6 °C 4,8 km/h (1 Bft)
12.05.2020 00:26 26,4 °C 0,6 °C 44 % 87 % 1014,4 hPa 0,0 l/m² 2,4 km/h (1 Bft) NW 317 ° 0 min 0 W/m² -1,3 °C 0,6 °C 3,2 km/h (1 Bft)
12.05.2020 00:28 26,4 °C 0,7 °C 44 % 88 % 1014,5 hPa 0,0 l/m² 2,2 km/h (1 Bft) NW 317 ° 0 min 0 W/m² -1,1 °C 0,7 °C 3,2 km/h (1 Bft)
12.05.2020 00:30 26,4 °C 0,8 °C 44 % 88 % 1014,5 hPa 0,0 l/m² 3,3 km/h (1 Bft) NW 315 ° 0 min 0 W/m² -1,0 °C 0,8 °C 4,8 km/h (1 Bft)
12.05.2020 00:32 26,3 °C 0,8 °C 44 % 88 % 1014,6 hPa 0,0 l/m² 3,0 km/h (1 Bft) NW 315 ° 0 min 0 W/m² -1,0 °C 0,8 °C 4,8 km/h (1 Bft)
12.05.2020 00:34 26,4 °C 0,7 °C 44 % 88 % 1014,5 hPa 0,0 l/m² 2,8 km/h (1 Bft) NW 315 ° 0 min 0 W/m² -1,1 °C 0,7 °C 3,2 km/h (1 Bft)
12.05.2020 00:36 26,3 °C 0,7 °C 44 % 88 % 1014,6 hPa 0,0 l/m² 2,4 km/h (1 Bft) NW 315 ° 0 min 0 W/m² -1,1 °C 0,7 °C 4,8 km/h (1 Bft)
12.05.2020 00:38 26,3 °C 0,7 °C 44 % 88 % 1014,5 hPa 0,0 l/m² 3,0 km/h (1 Bft) NW 315 ° 0 min 0 W/m² -1,1 °C 0,7 °C 4,8 km/h (1 Bft)
12.05.2020 00:40 26,3 °C 0,7 °C 44 % 88 % 1014,6 hPa 0,0 l/m² 2,4 km/h (1 Bft) NW 315 ° 0 min 0 W/m² -1,1 °C 0,7 °C 4,8 km/h (1 Bft)
12.05.2020 00:42 26,3 °C 0,6 °C 44 % 88 % 1014,6 hPa 0,0 l/m² 2,4 km/h (1 Bft) NW 315 ° 0 min 0 W/m² -1,2 °C 0,6 °C 3,2 km/h (1 Bft)
12.05.2020 00:44 26,3 °C 0,6 °C 44 % 88 % 1014,6 hPa 0,0 l/m² 3,3 km/h (1 Bft) NW 315 ° 0 min 0 W/m² -1,2 °C 0,6 °C 4,8 km/h (1 Bft)
12.05.2020 00:47 26,3 °C 0,6 °C 44 % 88 % 1014,7 hPa 0,0 l/m² 4,0 km/h (1 Bft) NW 319 ° 0 min 0 W/m² -1,2 °C 0,6 °C 6,4 km/h (2 Bft)
12.05.2020 00:49 26,2 °C 0,5 °C 44 % 88 % 1014,7 hPa 0,0 l/m² 4,6 km/h (1 Bft) NW 320 ° 0 min 0 W/m² -1,3 °C 0,5 °C 6,4 km/h (2 Bft)
12.05.2020 00:51 26,2 °C 0,5 °C 44 % 88 % 1014,7 hPa 0,0 l/m² 4,6 km/h (1 Bft) N-NW 332 ° 0 min 0 W/m² -1,3 °C 0,5 °C 6,4 km/h (2 Bft)
12.05.2020 00:52 26,3 °C 0,4 °C 44 % 87 % 1014,6 hPa 0,0 l/m² 5,4 km/h (2 Bft) N-NW 332 ° 0 min 0 W/m² -1,5 °C 0,4 °C 6,4 km/h (2 Bft)
12.05.2020 00:53 26,2 °C 0,4 °C 44 % 87 % 1014,6 hPa 0,0 l/m² 5,3 km/h (1 Bft) N-NW 334 ° 0 min 0 W/m² -1,5 °C 0,4 °C 6,4 km/h (2 Bft)
12.05.2020 00:54 26,2 °C 0,5 °C 44 % 87 % 1014,6 hPa 0,0 l/m² 6,2 km/h (2 Bft) N-NW 337 ° 0 min 0 W/m² -1,4 °C 0,5 °C 8,0 km/h (2 Bft)
12.05.2020 00:56 26,2 °C 0,6 °C 44 % 87 % 1014,6 hPa 0,0 l/m² 5,8 km/h (2 Bft) N-NW 331 ° 0 min 0 W/m² -1,3 °C 0,6 °C 8,0 km/h (2 Bft)
12.05.2020 00:58 26,2 °C 0,6 °C 44 % 87 % 1014,5 hPa 0,0 l/m² 5,5 km/h (2 Bft) N-NW 333 ° 0 min 0 W/m² -1,3 °C 0,6 °C 8,0 km/h (2 Bft)
12.05.2020 01:00 26,2 °C 0,7 °C 44 % 86 % 1014,5 hPa 0,0 l/m² 4,1 km/h (1 Bft) N-NW 331 ° 0 min 0 W/m² -1,4 °C 0,7 °C 6,4 km/h (2 Bft)
12.05.2020 01:03 26,2 °C 0,7 °C 44 % 85 % 1014,6 hPa 0,0 l/m² 2,4 km/h (1 Bft) N-NW 331 ° 0 min 0 W/m² -1,5 °C 0,7 °C 4,8 km/h (1 Bft)
12.05.2020 01:05 26,1 °C 0,7 °C 44 % 85 % 1014,8 hPa 0,0 l/m² 3,4 km/h (1 Bft) N-NW 330 ° 0 min 0 W/m² -1,5 °C 0,7 °C 4,8 km/h (1 Bft)
12.05.2020 01:07 26,1 °C 0,7 °C 44 % 85 % 1014,8 hPa 0,0 l/m² 2,3 km/h (1 Bft) N-NW 329 ° 0 min 0 W/m² -1,5 °C 0,7 °C 4,8 km/h (1 Bft)
12.05.2020 01:09 26,1 °C 0,6 °C 44 % 84 % 1014,8 hPa 0,0 l/m² 2,6 km/h (1 Bft) N-NW 327 ° 0 min 0 W/m² -1,8 °C 0,6 °C 4,8 km/h (1 Bft)
12.05.2020 01:11 26,1 °C 0,4 °C 45 % 84 % 1014,9 hPa 0,0 l/m² 4,1 km/h (1 Bft) W 270 ° 0 min 0 W/m² -2,0 °C 0,4 °C 4,8 km/h (1 Bft)
12.05.2020 01:12 26,1 °C 0,4 °C 45 % 83 % 1015,0 hPa 0,0 l/m² 4,8 km/h (1 Bft) W 261 ° 0 min 0 W/m² -2,1 °C 0,4 °C 6,4 km/h (2 Bft)
12.05.2020 01:13 26,1 °C 0,3 °C 45 % 84 % 1015,1 hPa 0,0 l/m² 3,6 km/h (1 Bft) W 261 ° 0 min 0 W/m² -2,1 °C 0,3 °C 4,8 km/h (1 Bft)
12.05.2020 01:14 26,1 °C 0,3 °C 45 % 84 % 1015,0 hPa 0,0 l/m² 4,9 km/h (1 Bft) W 261 ° 0 min 0 W/m² -2,1 °C 0,3 °C 6,4 km/h (2 Bft)
12.05.2020 01:16 26,1 °C 0,2 °C 45 % 85 % 1015,0 hPa 0,0 l/m² 3,4 km/h (1 Bft) W 261 ° 0 min 0 W/m² -2,0 °C 0,2 °C 4,8 km/h (1 Bft)
12.05.2020 01:18 26,0 °C 0,1 °C 45 % 85 % 1015,1 hPa 0,0 l/m² 3,4 km/h (1 Bft) W 261 ° 0 min 0 W/m² -2,1 °C 0,1 °C 4,8 km/h (1 Bft)
12.05.2020 01:20 26,0 °C 0,1 °C 45 % 86 % 1015,1 hPa 0,0 l/m² 3,0 km/h (1 Bft) W 260 ° 0 min 0 W/m² -2,0 °C 0,1 °C 4,8 km/h (1 Bft)
12.05.2020 01:22 26,0 °C 0,1 °C 45 % 86 % 1015,2 hPa 0,0 l/m² 1,5 km/h (1 Bft) W 260 ° 0 min 0 W/m² -2,0 °C 0,1 °C 3,2 km/h (1 Bft)
12.05.2020 01:24 26,0 °C 0,0 °C 45 % 86 % 1015,2 hPa 0,0 l/m² 1,1 km/h (1 Bft) W 260 ° 0 min 0 W/m² -2,1 °C 0,0 °C 3,2 km/h (1 Bft)
12.05.2020 01:26 26,0 °C 0,1 °C 44 % 86 % 1015,3 hPa 0,0 l/m² 1,9 km/h (1 Bft) W 260 ° 0 min 0 W/m² -2,0 °C 0,1 °C 3,2 km/h (1 Bft)
12.05.2020 01:28 26,0 °C 0,1 °C 45 % 87 % 1015,3 hPa 0,0 l/m² 1,1 km/h (1 Bft) W 260 ° 0 min 0 W/m² -1,8 °C 0,1 °C 3,2 km/h (1 Bft)
12.05.2020 01:30 25,9 °C 0,0 °C 45 % 87 % 1015,3 hPa 0,0 l/m² 0,4 km/h (0 Bft) W 260 ° 0 min 0 W/m² -1,9 °C 0,0 °C 1,6 km/h (1 Bft)
12.05.2020 01:32 25,9 °C -0,1 °C 45 % 87 % 1015,4 hPa 0,0 l/m² 0,0 km/h (0 Bft) W 260 ° 0 min 0 W/m² -2,0 °C -0,1 °C 0,0 km/h (0 Bft)
12.05.2020 01:34 25,9 °C -0,1 °C 45 % 87 % 1015,3 hPa 0,0 l/m² 0,0 km/h (0 Bft) W 260 ° 0 min 0 W/m² -2,0 °C -0,1 °C 1,6 km/h (1 Bft)
12.05.2020 01:36 25,9 °C -0,1 °C 45 % 87 % 1015,4 hPa 0,0 l/m² 0,6 km/h (0 Bft) W 260 ° 0 min 0 W/m² -2,0 °C -0,1 °C 1,6 km/h (1 Bft)
12.05.2020 01:38 25,9 °C -0,1 °C 45 % 88 % 1015,4 hPa 0,0 l/m² 1,1 km/h (1 Bft) W 260 ° 0 min 0 W/m² -1,8 °C -0,1 °C 1,6 km/h (1 Bft)
12.05.2020 01:40 25,9 °C -0,1 °C 45 % 88 % 1015,4 hPa 0,0 l/m² 1,5 km/h (1 Bft) W 260 ° 0 min 0 W/m² -1,8 °C -0,1 °C 3,2 km/h (1 Bft)
12.05.2020 01:42 25,9 °C -0,1 °C 45 % 88 % 1015,4 hPa 0,0 l/m² 1,2 km/h (1 Bft) W 260 ° 0 min 0 W/m² -1,8 °C -0,1 °C 1,6 km/h (1 Bft)
12.05.2020 01:44 25,9 °C -0,1 °C 45 % 88 % 1015,4 hPa 0,0 l/m² 1,5 km/h (1 Bft) W 260 ° 0 min 0 W/m² -1,8 °C -0,1 °C 3,2 km/h (1 Bft)
12.05.2020 01:46 25,9 °C 0,0 °C 45 % 88 % 1015,5 hPa 0,0 l/m² 1,3 km/h (1 Bft) W 260 ° 0 min 0 W/m² -1,7 °C 0,0 °C 1,6 km/h (1 Bft)
12.05.2020 01:48 25,9 °C 0,0 °C 45 % 88 % 1015,5 hPa 0,0 l/m² 1,1 km/h (1 Bft) W 260 ° 0 min 0 W/m² -1,7 °C 0,0 °C 3,2 km/h (1 Bft)
12.05.2020 01:50 25,9 °C 0,0 °C 45 % 88 % 1015,4 hPa 0,0 l/m² 1,4 km/h (1 Bft) W 260 ° 0 min 0 W/m² -1,7 °C 0,0 °C 3,2 km/h (1 Bft)
12.05.2020 01:52 25,8 °C 0,0 °C 45 % 88 % 1015,4 hPa 0,0 l/m² 2,2 km/h (1 Bft) W 260 ° 0 min 0 W/m² -1,7 °C 0,0 °C 3,2 km/h (1 Bft)
12.05.2020 01:54 25,9 °C -0,1 °C 45 % 88 % 1015,4 hPa 0,0 l/m² 1,5 km/h (1 Bft) W 260 ° 0 min 0 W/m² -1,8 °C -0,1 °C 3,2 km/h (1 Bft)
12.05.2020 01:56 25,8 °C -0,1 °C 45 % 87 % 1015,4 hPa 0,0 l/m² 2,2 km/h (1 Bft) W 260 ° 0 min 0 W/m² -2,0 °C -0,1 °C 3,2 km/h (1 Bft)
12.05.2020 01:58 25,8 °C -0,1 °C 45 % 87 % 1015,4 hPa 0,0 l/m² 1,7 km/h (1 Bft) W 260 ° 0 min 0 W/m² -2,0 °C -0,1 °C 3,2 km/h (1 Bft)
12.05.2020 02:00 25,8 °C -0,1 °C 45 % 87 % 1015,5 hPa 0,0 l/m² 1,6 km/h (1 Bft) W 260 ° 0 min 0 W/m² -2,0 °C -0,1 °C 3,2 km/h (1 Bft)
12.05.2020 02:02 25,8 °C -0,1 °C 45 % 87 % 1015,5 hPa 0,0 l/m² 0,9 km/h (0 Bft) W 260 ° 0 min 0 W/m² -2,0 °C -0,1 °C 3,2 km/h (1 Bft)
12.05.2020 02:04 25,8 °C -0,1 °C 45 % 87 % 1015,4 hPa 0,0 l/m² 1,4 km/h (1 Bft) W 260 ° 0 min 0 W/m² -2,0 °C -0,1 °C 3,2 km/h (1 Bft)
12.05.2020 02:06 25,8 °C -0,2 °C 45 % 87 % 1015,5 hPa 0,0 l/m² 1,1 km/h (1 Bft) W 260 ° 0 min 0 W/m² -2,1 °C -0,2 °C 1,6 km/h (1 Bft)
12.05.2020 02:08 25,8 °C -0,2 °C 45 % 87 % 1015,5 hPa 0,0 l/m² 1,0 km/h (0 Bft) W 260 ° 0 min 0 W/m² -2,1 °C -0,2 °C 1,6 km/h (1 Bft)
12.05.2020 02:10 25,8 °C -0,2 °C 45 % 87 % 1015,6 hPa 0,0 l/m² 1,9 km/h (1 Bft) W 260 ° 0 min 0 W/m² -2,1 °C -0,2 °C 3,2 km/h (1 Bft)
12.05.2020 02:12 25,8 °C -0,2 °C 45 % 87 % 1015,6 hPa 0,0 l/m² 1,9 km/h (1 Bft) W 260 ° 0 min 0 W/m² -2,1 °C -0,2 °C 3,2 km/h (1 Bft)
12.05.2020 02:14 25,8 °C -0,2 °C 45 % 87 % 1015,6 hPa 0,0 l/m² 1,4 km/h (1 Bft) W 260 ° 0 min 0 W/m² -2,1 °C -0,2 °C 3,2 km/h (1 Bft)
12.05.2020 02:16 25,8 °C -0,2 °C 45 % 87 % 1015,6 hPa 0,0 l/m² 1,5 km/h (1 Bft) W 260 ° 0 min 0 W/m² -2,1 °C -0,2 °C 3,2 km/h (1 Bft)
12.05.2020 02:18 25,8 °C -0,3 °C 45 % 87 % 1015,5 hPa 0,0 l/m² 1,0 km/h (0 Bft) W 260 ° 0 min 0 W/m² -2,2 °C -0,3 °C 1,6 km/h (1 Bft)
12.05.2020 02:20 25,8 °C -0,3 °C 45 % 87 % 1015,5 hPa 0,0 l/m² 1,3 km/h (1 Bft) W 260 ° 0 min 0 W/m² -2,2 °C -0,3 °C 1,6 km/h (1 Bft)
12.05.2020 02:22 25,7 °C -0,3 °C 45 % 87 % 1015,6 hPa 0,0 l/m² 0,3 km/h (0 Bft) W 260 ° 0 min 0 W/m² -2,2 °C -0,3 °C 1,6 km/h (1 Bft)
12.05.2020 02:24 25,7 °C -0,4 °C 45 % 86 % 1015,6 hPa 0,0 l/m² 1,0 km/h (0 Bft) W 260 ° 0 min 0 W/m² -2,4 °C -0,4 °C 1,6 km/h (1 Bft)
12.05.2020 02:26 25,7 °C -0,3 °C 45 % 87 % 1015,6 hPa 0,0 l/m² 1,2 km/h (1 Bft) W 260 ° 0 min 0 W/m² -2,2 °C -0,3 °C 1,6 km/h (1 Bft)
12.05.2020 02:28 25,7 °C -0,3 °C 45 % 87 % 1015,6 hPa 0,0 l/m² 1,0 km/h (0 Bft) W 260 ° 0 min 0 W/m² -2,2 °C -0,3 °C 1,6 km/h (1 Bft)
12.05.2020 02:30 25,7 °C -0,3 °C 45 % 87 % 1015,6 hPa 0,0 l/m² 1,0 km/h (0 Bft) W 260 ° 0 min 0 W/m² -2,2 °C -0,3 °C 1,6 km/h (1 Bft)
12.05.2020 02:32 25,7 °C -0,3 °C 45 % 87 % 1015,6 hPa 0,0 l/m² 0,7 km/h (0 Bft) W 260 ° 0 min 0 W/m² -2,2 °C -0,3 °C 1,6 km/h (1 Bft)
12.05.2020 02:34 25,7 °C -0,3 °C 44 % 87 % 1015,6 hPa 0,0 l/m² 0,4 km/h (0 Bft) W 260 ° 0 min 0 W/m² -2,2 °C -0,3 °C 1,6 km/h (1 Bft)
12.05.2020 02:36 25,7 °C -0,3 °C 44 % 87 % 1015,8 hPa 0,0 l/m² 0,4 km/h (0 Bft) W 260 ° 0 min 0 W/m² -2,2 °C -0,3 °C 1,6 km/h (1 Bft)
12.05.2020 02:38 25,7 °C -0,4 °C 44 % 87 % 1015,7 hPa 0,0 l/m² 0,1 km/h (0 Bft) W 260 ° 0 min 0 W/m² -2,3 °C -0,4 °C 1,6 km/h (1 Bft)
12.05.2020 02:40 25,6 °C -0,4 °C 44 % 87 % 1015,7 hPa 0,0 l/m² 0,4 km/h (0 Bft) W 260 ° 0 min 0 W/m² -2,3 °C -0,4 °C 1,6 km/h (1 Bft)
12.05.2020 02:42 25,6 °C -0,4 °C 44 % 87 % 1015,8 hPa 0,0 l/m² 1,2 km/h (1 Bft) W 260 ° 0 min 0 W/m² -2,3 °C -0,4 °C 1,6 km/h (1 Bft)
12.05.2020 02:43 25,6 °C -0,4 °C 44 % 87 % 1015,7 hPa 0,0 l/m² 0,7 km/h (0 Bft) W 260 ° 0 min 0 W/m² -2,3 °C -0,4 °C 1,6 km/h (1 Bft)
12.05.2020 02:45 25,5 °C -0,5 °C 44 % 87 % 1015,8 hPa 0,0 l/m² 1,1 km/h (1 Bft) W 260 ° 0 min 0 W/m² -2,4 °C -0,5 °C 1,6 km/h (1 Bft)
12.05.2020 02:47 25,4 °C -0,5 °C 44 % 87 % 1015,8 hPa 0,0 l/m² 0,9 km/h (0 Bft) W 260 ° 0 min 0 W/m² -2,4 °C -0,5 °C 1,6 km/h (1 Bft)
12.05.2020 02:49 25,4 °C -0,6 °C 44 % 87 % 1015,9 hPa 0,0 l/m² 1,0 km/h (0 Bft) W 260 ° 0 min 0 W/m² -2,5 °C -0,6 °C 1,6 km/h (1 Bft)
12.05.2020 02:51 25,3 °C -0,6 °C 44 % 87 % 1015,9 hPa 0,0 l/m² 1,2 km/h (1 Bft) W 260 ° 0 min 0 W/m² -2,5 °C -0,6 °C 3,2 km/h (1 Bft)
12.05.2020 02:52 25,3 °C -0,5 °C 44 % 87 % 1015,9 hPa 0,0 l/m² 1,5 km/h (1 Bft) W 260 ° 0 min 0 W/m² -2,4 °C -0,5 °C 3,2 km/h (1 Bft)
12.05.2020 02:53 25,3 °C -0,6 °C 44 % 88 % 1015,9 hPa 0,0 l/m² 1,3 km/h (1 Bft) W 260 ° 0 min 0 W/m² -2,3 °C -0,6 °C 1,6 km/h (1 Bft)
12.05.2020 02:54 25,3 °C -0,5 °C 44 % 88 % 1015,9 hPa 0,0 l/m² 1,1 km/h (1 Bft) W 260 ° 0 min 0 W/m² -2,2 °C -0,5 °C 1,6 km/h (1 Bft)
12.05.2020 02:56 25,3 °C -0,6 °C 44 % 88 % 1015,9 hPa 0,0 l/m² 0,7 km/h (0 Bft) W 260 ° 0 min 0 W/m² -2,3 °C -0,6 °C 1,6 km/h (1 Bft)
12.05.2020 02:58 25,2 °C -0,6 °C 44 % 88 % 1015,9 hPa 0,0 l/m² 0,0 km/h (0 Bft) W 260 ° 0 min 0 W/m² -2,3 °C -0,6 °C 0,0 km/h (0 Bft)
12.05.2020 03:00 25,2 °C -0,6 °C 44 % 88 % 1015,8 hPa 0,0 l/m² 0,0 km/h (0 Bft) W 260 ° 0 min 0 W/m² -2,3 °C -0,6 °C 1,6 km/h (1 Bft)
12.05.2020 03:01 25,2 °C -0,6 °C 44 % 88 % 1015,8 hPa 0,0 l/m² 0,0 km/h (0 Bft) N 0 ° 0 min 0 W/m² -2,3 °C -0,6 °C 0,0 km/h (0 Bft)
12.05.2020 03:06 25,1 °C -0,8 °C 44 % 88 % 1015,9 hPa 0,0 l/m² 0,0 km/h (0 Bft) W 260 ° 0 min 0 W/m² -2,5 °C -0,8 °C 0,0 km/h (0 Bft)
12.05.2020 03:08 25,1 °C -0,8 °C 44 % 88 % 1015,9 hPa 0,0 l/m² 0,0 km/h (0 Bft) W 260 ° 0 min 0 W/m² -2,5 °C -0,8 °C 0,0 km/h (0 Bft)
12.05.2020 03:09 25,1 °C -0,8 °C 44 % 88 % 1015,9 hPa 0,0 l/m² 0,0 km/h (0 Bft) W 260 ° 0 min 0 W/m² -2,5 °C -0,8 °C 0,0 km/h (0 Bft)
12.05.2020 03:11 25,1 °C -0,8 °C 44 % 88 % 1015,9 hPa 0,0 l/m² 0,0 km/h (0 Bft) W 260 ° 0 min 0 W/m² -2,5 °C -0,8 °C 0,0 km/h (0 Bft)
12.05.2020 03:13 25,1 °C -0,8 °C 44 % 89 % 1015,9 hPa 0,0 l/m² 0,0 km/h (0 Bft) W 260 ° 0 min 0 W/m² -2,4 °C -0,8 °C 0,0 km/h (0 Bft)
12.05.2020 03:15 25,0 °C -0,8 °C 44 % 88 % 1016,0 hPa 0,0 l/m² 0,0 km/h (0 Bft) W 260 ° 0 min 0 W/m² -2,5 °C -0,8 °C 0,0 km/h (0 Bft)
12.05.2020 03:16 25,1 °C -0,7 °C 44 % 89 % 1015,9 hPa 0,0 l/m² 0,0 km/h (0 Bft) W 260 ° 0 min 0 W/m² -2,3 °C -0,7 °C 0,0 km/h (0 Bft)
12.05.2020 03:18 25,0 °C -0,7 °C 44 % 89 % 1016,0 hPa 0,0 l/m² 0,0 km/h (0 Bft) W 260 ° 0 min 0 W/m² -2,3 °C -0,7 °C 0,0 km/h (0 Bft)
12.05.2020 03:20 25,0 °C -0,7 °C 44 % 89 % 1016,0 hPa 0,0 l/m² 0,0 km/h (0 Bft) W 260 ° 0 min 0 W/m² -2,3 °C -0,7 °C 0,0 km/h (0 Bft)
12.05.2020 03:21 24,9 °C -0,7 °C 44 % 89 % 1016,1 hPa 0,0 l/m² 0,0 km/h (0 Bft) W 260 ° 0 min 0 W/m² -2,3 °C -0,7 °C 0,0 km/h (0 Bft)
12.05.2020 03:22 25,0 °C -0,6 °C 44 % 89 % 1016,0 hPa 0,0 l/m² 0,0 km/h (0 Bft) W 260 ° 0 min 0 W/m² -2,2 °C -0,6 °C 0,0 km/h (0 Bft)
12.05.2020 03:23 24,9 °C -0,7 °C 44 % 89 % 1016,1 hPa 0,0 l/m² 0,0 km/h (0 Bft) W 260 ° 0 min 0 W/m² -2,3 °C -0,7 °C 0,0 km/h (0 Bft)
12.05.2020 03:25 24,9 °C -0,7 °C 44 % 89 % 1016,2 hPa 0,0 l/m² 0,0 km/h (0 Bft) W 260 ° 0 min 0 W/m² -2,3 °C -0,7 °C 0,0 km/h (0 Bft)
12.05.2020 03:27 24,9 °C -0,7 °C 45 % 89 % 1016,1 hPa 0,0 l/m² 0,0 km/h (0 Bft) W 260 ° 0 min 0 W/m² -2,3 °C -0,7 °C 0,0 km/h (0 Bft)
12.05.2020 03:28 24,9 °C -0,7 °C 45 % 89 % 1016,1 hPa 0,0 l/m² 0,0 km/h (0 Bft) W 260 ° 0 min 0 W/m² -2,3 °C -0,7 °C 0,0 km/h (0 Bft)
12.05.2020 03:30 24,9 °C -0,6 °C 45 % 89 % 1016,2 hPa 0,0 l/m² 0,0 km/h (0 Bft) W 260 ° 0 min 0 W/m² -2,2 °C -0,6 °C 0,0 km/h (0 Bft)
12.05.2020 03:31 24,9 °C -0,7 °C 45 % 89 % 1016,2 hPa 0,0 l/m² 0,0 km/h (0 Bft) W 260 ° 0 min 0 W/m² -2,3 °C -0,7 °C 0,0 km/h (0 Bft)
12.05.2020 03:32 24,9 °C -0,7 °C 45 % 89 % 1016,3 hPa 0,0 l/m² 0,0 km/h (0 Bft) W 260 ° 0 min 0 W/m² -2,3 °C -0,7 °C 0,0 km/h (0 Bft)
12.05.2020 03:33 24,9 °C -0,7 °C 45 % 89 % 1016,3 hPa 0,0 l/m² 0,0 km/h (0 Bft) W 260 ° 0 min 0 W/m² -2,3 °C -0,7 °C 0,0 km/h (0 Bft)
12.05.2020 03:35 24,8 °C -0,7 °C 45 % 89 % 1016,3 hPa 0,0 l/m² 0,0 km/h (0 Bft) W 260 ° 0 min 0 W/m² -2,3 °C -0,7 °C 0,0 km/h (0 Bft)
12.05.2020 03:37 24,8 °C -0,7 °C 45 % 89 % 1016,3 hPa 0,0 l/m² 0,7 km/h (0 Bft) W 260 ° 0 min 0 W/m² -2,3 °C -0,7 °C 1,6 km/h (1 Bft)
12.05.2020 03:39 24,8 °C -0,7 °C 45 % 89 % 1016,4 hPa 0,0 l/m² 1,6 km/h (1 Bft) W 260 ° 0 min 0 W/m² -2,3 °C -0,7 °C 3,2 km/h (1 Bft)
12.05.2020 03:40 24,8 °C -0,7 °C 45 % 89 % 1016,5 hPa 0,0 l/m² 1,1 km/h (1 Bft) W 260 ° 0 min 0 W/m² -2,3 °C -0,7 °C 1,6 km/h (1 Bft)
12.05.2020 03:41 24,8 °C -0,8 °C 45 % 89 % 1016,4 hPa 0,0 l/m² 0,5 km/h (0 Bft) W 260 ° 0 min 0 W/m² -2,4 °C -0,8 °C 1,6 km/h (1 Bft)
12.05.2020 03:43 24,8 °C -0,8 °C 45 % 88 % 1016,5 hPa 0,0 l/m² 0,0 km/h (0 Bft) W 260 ° 0 min 0 W/m² -2,5 °C -0,8 °C 0,0 km/h (0 Bft)
12.05.2020 03:44 24,8 °C -0,8 °C 45 % 89 % 1016,5 hPa 0,0 l/m² 0,0 km/h (0 Bft) W 260 ° 0 min 0 W/m² -2,4 °C -0,8 °C 0,0 km/h (0 Bft)
12.05.2020 03:45 24,8 °C -0,8 °C 45 % 89 % 1016,5 hPa 0,0 l/m² 0,0 km/h (0 Bft) W 260 ° 0 min 0 W/m² -2,4 °C -0,8 °C 0,0 km/h (0 Bft)
12.05.2020 03:46 24,8 °C -0,8 °C 45 % 89 % 1016,6 hPa 0,0 l/m² 0,0 km/h (0 Bft) W 260 ° 0 min 0 W/m² -2,4 °C -0,8 °C 0,0 km/h (0 Bft)
12.05.2020 03:48 24,8 °C -0,8 °C 45 % 89 % 1016,6 hPa 0,0 l/m² 0,4 km/h (0 Bft) W 260 ° 0 min 0 W/m² -2,4 °C -0,8 °C 1,6 km/h (1 Bft)
12.05.2020 03:50 24,7 °C -0,8 °C 45 % 89 % 1016,6 hPa 0,0 l/m² 0,0 km/h (0 Bft) W 260 ° 0 min 0 W/m² -2,4 °C -0,8 °C 1,6 km/h (1 Bft)
12.05.2020 03:51 24,7 °C -0,8 °C 45 % 89 % 1016,6 hPa 0,0 l/m² 0,0 km/h (0 Bft) W 260 ° 0 min 0 W/m² -2,4 °C -0,8 °C 0,0 km/h (0 Bft)
12.05.2020 03:52 24,7 °C -0,8 °C 45 % 89 % 1016,7 hPa 0,0 l/m² 0,0 km/h (0 Bft) W 260 ° 0 min 0 W/m² -2,4 °C -0,8 °C 0,0 km/h (0 Bft)
12.05.2020 03:54 24,7 °C -0,8 °C 45 % 89 % 1016,7 hPa 0,0 l/m² 0,0 km/h (0 Bft) W 260 ° 0 min 0 W/m² -2,4 °C -0,8 °C 0,0 km/h (0 Bft)
12.05.2020 03:55 24,7 °C -0,8 °C 45 % 89 % 1016,6 hPa 0,0 l/m² 0,0 km/h (0 Bft) W 260 ° 0 min 0 W/m² -2,4 °C -0,8 °C 0,0 km/h (0 Bft)
12.05.2020 03:57 24,7 °C -0,9 °C 45 % 89 % 1016,7 hPa 0,0 l/m² 0,0 km/h (0 Bft) W 260 ° 0 min 0 W/m² -2,5 °C -0,9 °C 0,0 km/h (0 Bft)
12.05.2020 03:59 24,7 °C -0,9 °C 45 % 89 % 1016,7 hPa 0,0 l/m² 0,0 km/h (0 Bft) W 260 ° 0 min 0 W/m² -2,5 °C -0,9 °C 0,0 km/h (0 Bft)
12.05.2020 04:00 24,7 °C -0,9 °C 45 % 89 % 1016,7 hPa 0,0 l/m² 0,0 km/h (0 Bft) W 260 ° 0 min 0 W/m² -2,5 °C -0,9 °C 0,0 km/h (0 Bft)
12.05.2020 04:01 24,7 °C -0,9 °C 45 % 89 % 1016,6 hPa 0,0 l/m² 0,0 km/h (0 Bft) W 260 ° 0 min 0 W/m² -2,5 °C -0,9 °C 0,0 km/h (0 Bft)
12.05.2020 04:03 24,7 °C -0,9 °C 45 % 89 % 1016,7 hPa 0,0 l/m² 0,0 km/h (0 Bft) W 260 ° 0 min 0 W/m² -2,5 °C -0,9 °C 0,0 km/h (0 Bft)
12.05.2020 04:05 24,6 °C -0,8 °C 45 % 89 % 1016,7 hPa 0,0 l/m² 0,0 km/h (0 Bft) W 260 ° 0 min 0 W/m² -2,4 °C -0,8 °C 0,0 km/h (0 Bft)
12.05.2020 04:07 24,6 °C -0,8 °C 45 % 89 % 1016,7 hPa 0,0 l/m² 0,0 km/h (0 Bft) W 260 ° 0 min 0 W/m² -2,4 °C -0,8 °C 0,0 km/h (0 Bft)
12.05.2020 04:09 24,6 °C -0,8 °C 45 % 89 % 1016,7 hPa 0,0 l/m² 0,0 km/h (0 Bft) W 260 ° 0 min 0 W/m² -2,4 °C -0,8 °C 0,0 km/h (0 Bft)
12.05.2020 04:10 24,6 °C -0,8 °C 45 % 89 % 1016,7 hPa 0,0 l/m² 0,0 km/h (0 Bft) W 260 ° 0 min 0 W/m² -2,4 °C -0,8 °C 0,0 km/h (0 Bft)
12.05.2020 04:11 24,6 °C -0,8 °C 45 % 89 % 1016,7 hPa 0,0 l/m² 0,5 km/h (0 Bft) W 260 ° 0 min 0 W/m² -2,4 °C -0,8 °C 1,6 km/h (1 Bft)
12.05.2020 04:13 24,6 °C -0,8 °C 45 % 89 % 1016,6 hPa 0,0 l/m² 0,2 km/h (0 Bft) W 260 ° 0 min 0 W/m² -2,4 °C -0,8 °C 1,6 km/h (1 Bft)
12.05.2020 04:15 24,6 °C -0,9 °C 45 % 89 % 1016,7 hPa 0,0 l/m² 0,0 km/h (0 Bft) W 260 ° 0 min 0 W/m² -2,5 °C -0,9 °C 0,0 km/h (0 Bft)
12.05.2020 04:17 24,6 °C -0,9 °C 45 % 89 % 1016,7 hPa 0,0 l/m² 0,0 km/h (0 Bft) W 260 ° 0 min 0 W/m² -2,5 °C -0,9 °C 0,0 km/h (0 Bft)
12.05.2020 04:19 24,5 °C -0,9 °C 45 % 89 % 1016,7 hPa 0,0 l/m² 0,0 km/h (0 Bft) W 260 ° 0 min 0 W/m² -2,5 °C -0,9 °C 0,0 km/h (0 Bft)
12.05.2020 04:20 24,5 °C -0,9 °C 45 % 89 % 1016,6 hPa 0,0 l/m² 0,0 km/h (0 Bft) W 260 ° 0 min 0 W/m² -2,5 °C -0,9 °C 0,0 km/h (0 Bft)
12.05.2020 04:21 24,5 °C -0,9 °C 45 % 89 % 1016,7 hPa 0,0 l/m² 0,0 km/h (0 Bft) W 260 ° 0 min 0 W/m² -2,5 °C -0,9 °C 0,0 km/h (0 Bft)
12.05.2020 04:23 24,4 °C -0,9 °C 45 % 89 % 1016,8 hPa 0,0 l/m² 0,0 km/h (0 Bft) W 260 ° 0 min 0 W/m² -2,5 °C -0,9 °C 0,0 km/h (0 Bft)
12.05.2020 04:25 24,4 °C -0,9 °C 45 % 89 % 1016,7 hPa 0,0 l/m² 0,0 km/h (0 Bft) W 260 ° 0 min 0 W/m² -2,5 °C -0,9 °C 0,0 km/h (0 Bft)
12.05.2020 04:27 24,4 °C -0,8 °C 45 % 89 % 1016,8 hPa 0,0 l/m² 0,0 km/h (0 Bft) W 260 ° 0 min 0 W/m² -2,4 °C -0,8 °C 0,0 km/h (0 Bft)
12.05.2020 04:28 24,4 °C -0,8 °C 45 % 89 % 1016,8 hPa 0,0 l/m² 0,0 km/h (0 Bft) W 260 ° 0 min 0 W/m² -2,4 °C -0,8 °C 0,0 km/h (0 Bft)
12.05.2020 04:30 24,4 °C -0,8 °C 45 % 89 % 1016,8 hPa 0,0 l/m² 0,0 km/h (0 Bft) W 260 ° 0 min 0 W/m² -2,4 °C -0,8 °C 0,0 km/h (0 Bft)
12.05.2020 04:31 24,4 °C -0,8 °C 45 % 89 % 1016,8 hPa 0,0 l/m² 0,0 km/h (0 Bft) W 260 ° 0 min 0 W/m² -2,4 °C -0,8 °C 0,0 km/h (0 Bft)
12.05.2020 04:32 24,4 °C -0,8 °C 45 % 89 % 1016,8 hPa 0,0 l/m² 0,0 km/h (0 Bft) W 260 ° 0 min 0 W/m² -2,4 °C -0,8 °C 0,0 km/h (0 Bft)
12.05.2020 04:33 24,4 °C -0,8 °C 45 % 89 % 1016,8 hPa 0,0 l/m² 0,0 km/h (0 Bft) W 260 ° 0 min 0 W/m² -2,4 °C -0,8 °C 0,0 km/h (0 Bft)
12.05.2020 04:35 24,3 °C -0,8 °C 45 % 89 % 1016,8 hPa 0,0 l/m² 0,0 km/h (0 Bft) W 260 ° 0 min 0 W/m² -2,4 °C -0,8 °C 0,0 km/h (0 Bft)
12.05.2020 04:37 24,3 °C -0,9 °C 45 % 89 % 1016,8 hPa 0,0 l/m² 0,0 km/h (0 Bft) W 260 ° 0 min 0 W/m² -2,5 °C -0,9 °C 1,6 km/h (1 Bft)
12.05.2020 04:39 24,3 °C -0,9 °C 45 % 89 % 1016,8 hPa 0,0 l/m² 0,0 km/h (0 Bft) W 260 ° 0 min 0 W/m² -2,5 °C -0,9 °C 0,0 km/h (0 Bft)
12.05.2020 04:40 24,3 °C -0,9 °C 45 % 89 % 1016,8 hPa 0,0 l/m² 0,8 km/h (0 Bft) W 260 ° 0 min 0 W/m² -2,5 °C -0,9 °C 1,6 km/h (1 Bft)
12.05.2020 04:41 24,3 °C -0,9 °C 45 % 89 % 1016,8 hPa 0,0 l/m² 0,7 km/h (0 Bft) W 260 ° 0 min 0 W/m² -2,5 °C -0,9 °C 1,6 km/h (1 Bft)
12.05.2020 04:42 24,3 °C -0,9 °C 45 % 89 % 1016,8 hPa 0,0 l/m² 0,9 km/h (0 Bft) W 260 ° 0 min 0 W/m² -2,5 °C -0,9 °C 1,6 km/h (1 Bft)
12.05.2020 04:43 24,3 °C -0,9 °C 45 % 89 % 1016,8 hPa 0,0 l/m² 1,6 km/h (1 Bft) W 260 ° 0 min 0 W/m² -2,5 °C -0,9 °C 1,6 km/h (1 Bft)
12.05.2020 04:45 24,3 °C -0,9 °C 45 % 89 % 1016,8 hPa 0,0 l/m² 0,7 km/h (0 Bft) W 260 ° 0 min 0 W/m² -2,5 °C -0,9 °C 1,6 km/h (1 Bft)
12.05.2020 04:47 24,3 °C -0,9 °C 45 % 89 % 1016,9 hPa 0,0 l/m² 0,0 km/h (0 Bft) W 260 ° 0 min 0 W/m² -2,5 °C -0,9 °C 0,0 km/h (0 Bft)
12.05.2020 04:48 24,3 °C -0,9 °C 45 % 89 % 1016,8 hPa 0,0 l/m² 0,0 km/h (0 Bft) W 260 ° 0 min 0 W/m² -2,5 °C -0,9 °C 0,0 km/h (0 Bft)
12.05.2020 04:50 24,2 °C -1,0 °C 45 % 89 % 1016,9 hPa 0,0 l/m² 0,0 km/h (0 Bft) W 260 ° 0 min 0 W/m² -2,6 °C -1,0 °C 0,0 km/h (0 Bft)
12.05.2020 04:51 24,2 °C -1,0 °C 45 % 89 % 1016,9 hPa 0,0 l/m² 0,1 km/h (0 Bft) W 260 ° 0 min 0 W/m² -2,6 °C -1,0 °C 1,6 km/h (1 Bft)
12.05.2020 04:52 24,2 °C -1,0 °C 45 % 89 % 1016,9 hPa 0,0 l/m² 0,8 km/h (0 Bft) W 260 ° 0 min 0 W/m² -2,6 °C -1,0 °C 1,6 km/h (1 Bft)
12.05.2020 04:53 24,2 °C -1,0 °C 45 % 89 % 1016,9 hPa 0,0 l/m² 1,3 km/h (1 Bft) W 260 ° 0 min 0 W/m² -2,6 °C -1,0 °C 1,6 km/h (1 Bft)
12.05.2020 04:55 24,2 °C -0,9 °C 45 % 89 % 1016,9 hPa 0,0 l/m² 1,5 km/h (1 Bft) W 260 ° 0 min 0 W/m² -2,5 °C -0,9 °C 3,2 km/h (1 Bft)
12.05.2020 04:57 24,2 °C -0,9 °C 45 % 89 % 1016,9 hPa 0,0 l/m² 2,5 km/h (1 Bft) W 260 ° 0 min 0 W/m² -2,5 °C -0,9 °C 3,2 km/h (1 Bft)
12.05.2020 04:59 24,2 °C -0,8 °C 45 % 89 % 1016,9 hPa 0,0 l/m² 3,6 km/h (1 Bft) W 260 ° 0 min 0 W/m² -2,4 °C -0,8 °C 4,8 km/h (1 Bft)
12.05.2020 05:00 24,2 °C -0,8 °C 45 % 89 % 1017,0 hPa 0,0 l/m² 4,1 km/h (1 Bft) W 260 ° 0 min 0 W/m² -2,4 °C -0,8 °C 4,8 km/h (1 Bft)
12.05.2020 05:01 24,2 °C -0,8 °C 45 % 89 % 1016,9 hPa 0,0 l/m² 5,5 km/h (2 Bft) W 260 ° 0 min 0 W/m² -2,4 °C -0,8 °C 6,4 km/h (2 Bft)
12.05.2020 05:02 24,2 °C -0,7 °C 45 % 89 % 1017,0 hPa 0,0 l/m² 5,2 km/h (1 Bft) W 260 ° 0 min 0 W/m² -2,3 °C -0,7 °C 6,4 km/h (2 Bft)
12.05.2020 05:04 24,2 °C -0,6 °C 45 % 89 % 1016,9 hPa 0,0 l/m² 4,7 km/h (1 Bft) W 260 ° 0 min 0 W/m² -2,2 °C -0,6 °C 6,4 km/h (2 Bft)
12.05.2020 05:06 24,2 °C -0,6 °C 45 % 89 % 1016,9 hPa 0,0 l/m² 4,3 km/h (1 Bft) W 260 ° 0 min 0 W/m² -2,2 °C -0,6 °C 4,8 km/h (1 Bft)
12.05.2020 05:08 24,2 °C -0,5 °C 45 % 89 % 1017,0 hPa 0,0 l/m² 5,3 km/h (1 Bft) W 260 ° 0 min 0 W/m² -2,1 °C -0,5 °C 6,4 km/h (2 Bft)
12.05.2020 05:10 24,2 °C -0,4 °C 45 % 89 % 1017,0 hPa 0,0 l/m² 5,5 km/h (2 Bft) W 259 ° 0 min 0 W/m² -2,0 °C -0,4 °C 6,4 km/h (2 Bft)
12.05.2020 05:11 24,2 °C -0,4 °C 45 % 89 % 1017,1 hPa 0,0 l/m² 5,9 km/h (2 Bft) W 259 ° 0 min 0 W/m² -2,0 °C -0,4 °C 6,4 km/h (2 Bft)
12.05.2020 05:12 24,2 °C -0,3 °C 45 % 89 % 1017,0 hPa 0,0 l/m² 5,1 km/h (1 Bft) W 259 ° 0 min 0 W/m² -1,9 °C -0,3 °C 6,4 km/h (2 Bft)
12.05.2020 05:14 24,2 °C -0,3 °C 45 % 89 % 1017,1 hPa 0,0 l/m² 4,7 km/h (1 Bft) W-SW 258 ° 0 min 0 W/m² -1,9 °C -0,3 °C 6,4 km/h (2 Bft)
12.05.2020 05:16 24,2 °C -0,2 °C 45 % 88 % 1017,0 hPa 0,0 l/m² 6,6 km/h (2 Bft) W-SW 244 ° 0 min 0 W/m² -1,9 °C -0,4 °C 8,0 km/h (2 Bft)
12.05.2020 05:18 24,1 °C -0,2 °C 45 % 88 % 1017,1 hPa 0,0 l/m² 5,9 km/h (2 Bft) W-SW 241 ° 0 min 0 W/m² -1,9 °C -0,2 °C 6,4 km/h (2 Bft)
12.05.2020 05:20 24,1 °C -0,2 °C 45 % 88 % 1017,1 hPa 0,0 l/m² 5,6 km/h (2 Bft) W-SW 251 ° 0 min 0 W/m² -1,9 °C -0,2 °C 6,4 km/h (2 Bft)
12.05.2020 05:21 24,1 °C -0,2 °C 45 % 88 % 1017,1 hPa 0,0 l/m² 6,3 km/h (2 Bft) W-SW 249 ° 0 min 0 W/m² -1,9 °C -0,2 °C 8,0 km/h (2 Bft)
12.05.2020 05:22 24,1 °C -0,1 °C 45 % 88 % 1017,1 hPa 0,0 l/m² 5,7 km/h (2 Bft) W-SW 252 ° 0 min 0 W/m² -1,8 °C -0,1 °C 6,4 km/h (2 Bft)
12.05.2020 05:23 24,1 °C -0,1 °C 45 % 88 % 1017,1 hPa 0,0 l/m² 4,7 km/h (1 Bft) W 261 ° 0 min 5 W/m² -1,8 °C -0,1 °C 6,4 km/h (2 Bft)
12.05.2020 05:25 24,1 °C -0,1 °C 45 % 88 % 1017,1 hPa 0,0 l/m² 4,7 km/h (1 Bft) W 259 ° 0 min 5 W/m² -1,8 °C -0,1 °C 6,4 km/h (2 Bft)
12.05.2020 05:27 24,1 °C 0,0 °C 45 % 88 % 1017,2 hPa 0,0 l/m² 5,0 km/h (1 Bft) W-SW 250 ° 0 min 5 W/m² -1,7 °C 0,0 °C 6,4 km/h (2 Bft)
12.05.2020 05:28 24,1 °C 0,0 °C 45 % 88 % 1017,2 hPa 0,0 l/m² 5,1 km/h (1 Bft) W-SW 248 ° 0 min 5 W/m² -1,7 °C 0,0 °C 6,4 km/h (2 Bft)
12.05.2020 05:30 24,1 °C 0,1 °C 45 % 87 % 1017,2 hPa 0,0 l/m² 5,5 km/h (2 Bft) W-SW 255 ° 0 min 7 W/m² -1,8 °C 0,1 °C 8,0 km/h (2 Bft)
12.05.2020 05:31 24,1 °C 0,1 °C 45 % 87 % 1017,3 hPa 0,0 l/m² 4,8 km/h (1 Bft) W 259 ° 0 min 7 W/m² -1,8 °C 0,1 °C 6,4 km/h (2 Bft)
12.05.2020 05:32 24,1 °C 0,1 °C 45 % 87 % 1017,2 hPa 0,0 l/m² 4,6 km/h (1 Bft) W-SW 252 ° 0 min 9 W/m² -1,8 °C 0,1 °C 6,4 km/h (2 Bft)
12.05.2020 05:34 24,1 °C 0,1 °C 45 % 87 % 1017,3 hPa 0,0 l/m² 4,3 km/h (1 Bft) W-SW 251 ° 0 min 9 W/m² -1,8 °C 0,1 °C 6,4 km/h (2 Bft)
12.05.2020 05:36 24,1 °C 0,1 °C 45 % 87 % 1017,3 hPa 0,0 l/m² 4,0 km/h (1 Bft) W 267 ° 0 min 12 W/m² -1,8 °C 0,1 °C 4,8 km/h (1 Bft)
12.05.2020 05:38 24,1 °C 0,1 °C 45 % 87 % 1017,3 hPa 0,0 l/m² 3,6 km/h (1 Bft) W 263 ° 0 min 12 W/m² -1,8 °C 0,1 °C 6,4 km/h (2 Bft)
12.05.2020 05:40 24,0 °C 0,1 °C 45 % 87 % 1017,3 hPa 0,0 l/m² 4,5 km/h (1 Bft) W 263 ° 0 min 14 W/m² -1,8 °C 0,1 °C 6,4 km/h (2 Bft)
12.05.2020 05:41 24,1 °C 0,1 °C 45 % 87 % 1017,2 hPa 0,0 l/m² 4,3 km/h (1 Bft) W 263 ° 0 min 16 W/m² -1,8 °C 0,1 °C 6,4 km/h (2 Bft)
12.05.2020 05:42 24,0 °C 0,1 °C 45 % 87 % 1017,3 hPa 0,0 l/m² 4,4 km/h (1 Bft) W 263 ° 0 min 16 W/m² -1,8 °C 0,1 °C 4,8 km/h (1 Bft)
12.05.2020 05:44 24,1 °C 0,1 °C 45 % 87 % 1017,3 hPa 0,0 l/m² 4,2 km/h (1 Bft) W 263 ° 0 min 18 W/m² -1,8 °C 0,1 °C 6,4 km/h (2 Bft)
12.05.2020 05:46 24,0 °C 0,1 °C 45 % 87 % 1017,4 hPa 0,0 l/m² 4,7 km/h (1 Bft) W 262 ° 0 min 18 W/m² -1,8 °C 0,1 °C 6,4 km/h (2 Bft)
12.05.2020 05:48 24,0 °C 0,2 °C 45 % 87 % 1017,3 hPa 0,0 l/m² 3,5 km/h (1 Bft) W 262 ° 0 min 18 W/m² -1,7 °C 0,2 °C 4,8 km/h (1 Bft)
12.05.2020 05:50 24,0 °C 0,2 °C 45 % 87 % 1017,3 hPa 0,0 l/m² 3,9 km/h (1 Bft) W 262 ° 0 min 18 W/m² -1,7 °C 0,2 °C 4,8 km/h (1 Bft)
12.05.2020 05:51 23,9 °C 0,2 °C 45 % 87 % 1017,3 hPa 0,0 l/m² 2,9 km/h (1 Bft) W 262 ° 0 min 18 W/m² -1,7 °C 0,2 °C 3,2 km/h (1 Bft)
12.05.2020 05:52 24,0 °C 0,3 °C 45 % 87 % 1017,3 hPa 0,0 l/m² 2,8 km/h (1 Bft) W 262 ° 0 min 18 W/m² -1,6 °C 0,3 °C 3,2 km/h (1 Bft)
12.05.2020 05:54 23,9 °C 0,3 °C 45 % 87 % 1017,3 hPa 0,0 l/m² 3,6 km/h (1 Bft) W 262 ° 0 min 18 W/m² -1,6 °C 0,3 °C 4,8 km/h (1 Bft)
12.05.2020 05:56 23,9 °C 0,3 °C 45 % 87 % 1017,3 hPa 0,0 l/m² 3,4 km/h (1 Bft) W 262 ° 0 min 19 W/m² -1,6 °C 0,3 °C 4,8 km/h (1 Bft)
12.05.2020 05:58 23,9 °C 0,3 °C 45 % 87 % 1017,3 hPa 0,0 l/m² 3,6 km/h (1 Bft) W 263 ° 0 min 19 W/m² -1,6 °C 0,3 °C 4,8 km/h (1 Bft)
12.05.2020 06:00 23,9 °C 0,3 °C 45 % 87 % 1017,3 hPa 0,0 l/m² 3,6 km/h (1 Bft) W 263 ° 0 min 21 W/m² -1,6 °C 0,3 °C 4,8 km/h (1 Bft)
12.05.2020 06:01 23,9 °C 0,2 °C 45 % 87 % 1017,3 hPa 0,0 l/m² 3,2 km/h (1 Bft) W 263 ° 0 min 23 W/m² -1,7 °C 0,2 °C 4,8 km/h (1 Bft)
12.05.2020 06:02 23,9 °C 0,3 °C 45 % 87 % 1017,3 hPa 0,0 l/m² 3,4 km/h (1 Bft) W 263 ° 0 min 23 W/m² -1,6 °C 0,3 °C 4,8 km/h (1 Bft)
12.05.2020 06:04 23,9 °C 0,2 °C 45 % 87 % 1017,3 hPa 0,0 l/m² 3,2 km/h (1 Bft) W 263 ° 0 min 21 W/m² -1,7 °C 0,2 °C 4,8 km/h (1 Bft)
12.05.2020 06:05 23,9 °C 0,2 °C 45 % 87 % 1017,3 hPa 0,0 l/m² 3,2 km/h (1 Bft) W 263 ° 0 min 23 W/m² -1,7 °C 0,2 °C 3,2 km/h (1 Bft)
12.05.2020 06:07 23,9 °C 0,3 °C 45 % 87 % 1017,3 hPa 0,0 l/m² 3,1 km/h (1 Bft) W 263 ° 0 min 23 W/m² -1,6 °C 0,3 °C 3,2 km/h (1 Bft)
12.05.2020 06:09 23,9 °C 0,3 °C 45 % 87 % 1017,3 hPa 0,0 l/m² 2,9 km/h (1 Bft) W 263 ° 0 min 25 W/m² -1,6 °C 0,3 °C 4,8 km/h (1 Bft)
12.05.2020 06:10 23,9 °C 0,3 °C 45 % 87 % 1017,3 hPa 0,0 l/m² 2,9 km/h (1 Bft) W 263 ° 0 min 28 W/m² -1,6 °C 0,3 °C 4,8 km/h (1 Bft)
12.05.2020 06:11 23,9 °C 0,3 °C 45 % 88 % 1017,3 hPa 0,0 l/m² 2,8 km/h (1 Bft) W 263 ° 0 min 28 W/m² -1,4 °C 0,3 °C 3,2 km/h (1 Bft)
12.05.2020 06:12 23,9 °C 0,3 °C 45 % 88 % 1017,4 hPa 0,0 l/m² 3,1 km/h (1 Bft) W 263 ° 0 min 26 W/m² -1,4 °C 0,3 °C 4,8 km/h (1 Bft)
12.05.2020 06:13 23,9 °C 0,4 °C 45 % 88 % 1017,2 hPa 0,0 l/m² 3,4 km/h (1 Bft) W 263 ° 0 min 26 W/m² -1,3 °C 0,4 °C 4,8 km/h (1 Bft)
12.05.2020 06:15 23,9 °C 0,4 °C 45 % 88 % 1017,4 hPa 0,0 l/m² 2,6 km/h (1 Bft) W 263 ° 0 min 26 W/m² -1,3 °C 0,4 °C 4,8 km/h (1 Bft)
12.05.2020 06:17 23,9 °C 0,4 °C 45 % 87 % 1017,3 hPa 0,0 l/m² 3,0 km/h (1 Bft) W 263 ° 0 min 40 W/m² -1,5 °C 0,4 °C 4,8 km/h (1 Bft)
12.05.2020 06:19 23,9 °C 0,5 °C 45 % 87 % 1017,3 hPa 0,0 l/m² 3,2 km/h (1 Bft) W 262 ° 0 min 46 W/m² -1,4 °C 0,5 °C 4,8 km/h (1 Bft)
12.05.2020 06:20 23,9 °C 0,5 °C 45 % 87 % 1017,4 hPa 0,0 l/m² 3,1 km/h (1 Bft) W 262 ° 0 min 42 W/m² -1,4 °C 0,5 °C 4,8 km/h (1 Bft)
12.05.2020 06:21 23,9 °C 0,5 °C 45 % 87 % 1017,4 hPa 0,0 l/m² 4,2 km/h (1 Bft) W 264 ° 0 min 35 W/m² -1,4 °C 0,5 °C 4,8 km/h (1 Bft)
12.05.2020 06:22 23,9 °C 0,6 °C 45 % 87 % 1017,4 hPa 0,0 l/m² 4,3 km/h (1 Bft) W 263 ° 0 min 28 W/m² -1,3 °C 0,6 °C 4,8 km/h (1 Bft)
12.05.2020 06:23 23,9 °C 0,6 °C 45 % 87 % 1017,4 hPa 0,0 l/m² 3,8 km/h (1 Bft) W 263 ° 0 min 30 W/m² -1,3 °C 0,6 °C 4,8 km/h (1 Bft)
12.05.2020 06:25 23,9 °C 0,7 °C 45 % 87 % 1017,6 hPa 0,0 l/m² 2,9 km/h (1 Bft) W 263 ° 0 min 37 W/m² -1,2 °C 0,7 °C 4,8 km/h (1 Bft)
12.05.2020 06:27 23,9 °C 0,7 °C 45 % 87 % 1017,5 hPa 0,0 l/m² 2,5 km/h (1 Bft) W 263 ° 0 min 35 W/m² -1,2 °C 0,7 °C 4,8 km/h (1 Bft)
12.05.2020 06:29 23,9 °C 0,7 °C 45 % 87 % 1017,5 hPa 0,0 l/m² 2,3 km/h (1 Bft) W 263 ° 0 min 35 W/m² -1,2 °C 0,7 °C 3,2 km/h (1 Bft)
12.05.2020 06:30 23,9 °C 0,7 °C 45 % 87 % 1017,6 hPa 0,0 l/m² 4,0 km/h (1 Bft) W 262 ° 0 min 47 W/m² -1,2 °C 0,7 °C 6,4 km/h (2 Bft)
12.05.2020 06:31 23,9 °C 0,8 °C 45 % 87 % 1017,6 hPa 0,0 l/m² 3,2 km/h (1 Bft) W 262 ° 0 min 51 W/m² -1,1 °C 0,8 °C 6,4 km/h (2 Bft)
12.05.2020 06:32 23,8 °C 0,8 °C 45 % 87 % 1017,5 hPa 0,0 l/m² 4,2 km/h (1 Bft) W 262 ° 0 min 42 W/m² -1,1 °C 0,8 °C 4,8 km/h (1 Bft)
12.05.2020 06:33 23,8 °C 0,8 °C 45 % 87 % 1017,5 hPa 0,0 l/m² 3,6 km/h (1 Bft) W 262 ° 0 min 33 W/m² -1,1 °C 0,8 °C 4,8 km/h (1 Bft)
12.05.2020 06:35 23,8 °C 0,9 °C 45 % 87 % 1017,5 hPa 0,0 l/m² 3,6 km/h (1 Bft) W 262 ° 2 min 60 W/m² -1,0 °C 0,9 °C 4,8 km/h (1 Bft)
12.05.2020 06:37 23,8 °C 0,9 °C 45 % 87 % 1017,5 hPa 0,0 l/m² 2,8 km/h (1 Bft) W 262 ° 2 min 76 W/m² -1,0 °C 0,9 °C 4,8 km/h (1 Bft)
12.05.2020 06:39 23,8 °C 1,0 °C 45 % 87 % 1017,6 hPa 0,0 l/m² 2,6 km/h (1 Bft) W 262 ° 2 min 98 W/m² -0,9 °C 1,0 °C 4,8 km/h (1 Bft)
12.05.2020 06:40 23,8 °C 1,1 °C 45 % 87 % 1017,6 hPa 0,0 l/m² 3,5 km/h (1 Bft) W 262 ° 1 min 95 W/m² -0,8 °C 1,1 °C 4,8 km/h (1 Bft)
12.05.2020 06:41 23,8 °C 1,1 °C 45 % 87 % 1017,6 hPa 0,0 l/m² 3,1 km/h (1 Bft) W 262 ° 1 min 91 W/m² -0,8 °C 1,1 °C 3,2 km/h (1 Bft)
12.05.2020 06:42 23,8 °C 1,1 °C 45 % 87 % 1017,5 hPa 0,0 l/m² 2,5 km/h (1 Bft) W 262 ° 1 min 84 W/m² -0,8 °C 1,1 °C 3,2 km/h (1 Bft)
12.05.2020 06:43 23,8 °C 1,2 °C 45 % 87 % 1017,6 hPa 0,0 l/m² 3,4 km/h (1 Bft) W 262 ° 1 min 79 W/m² -0,7 °C 1,2 °C 4,8 km/h (1 Bft)
12.05.2020 06:45 23,7 °C 1,2 °C 45 % 87 % 1017,7 hPa 0,0 l/m² 4,6 km/h (1 Bft) W 273 ° 0 min 40 W/m² -0,7 °C 1,2 °C 6,4 km/h (2 Bft)
12.05.2020 06:46 23,7 °C 1,2 °C 45 % 87 % 1017,6 hPa 0,0 l/m² 3,2 km/h (1 Bft) W 273 ° 0 min 37 W/m² -0,7 °C 1,2 °C 4,8 km/h (1 Bft)
12.05.2020 06:47 23,8 °C 1,2 °C 45 % 87 % 1017,6 hPa 0,0 l/m² 4,2 km/h (1 Bft) W 270 ° 0 min 39 W/m² -0,7 °C 1,2 °C 6,4 km/h (2 Bft)
12.05.2020 06:49 23,7 °C 1,2 °C 45 % 87 % 1017,6 hPa 0,0 l/m² 2,6 km/h (1 Bft) W 270 ° 0 min 39 W/m² -0,7 °C 1,2 °C 4,8 km/h (1 Bft)
12.05.2020 06:51 23,7 °C 1,3 °C 45 % 87 % 1017,6 hPa 0,0 l/m² 2,1 km/h (1 Bft) W 270 ° 2 min 56 W/m² -0,6 °C 1,3 °C 3,2 km/h (1 Bft)
12.05.2020 06:53 23,7 °C 1,3 °C 45 % 87 % 1017,5 hPa 0,0 l/m² 1,4 km/h (1 Bft) W 270 ° 2 min 74 W/m² -0,6 °C 1,3 °C 3,2 km/h (1 Bft)
12.05.2020 06:55 23,7 °C 1,4 °C 45 % 88 % 1017,6 hPa 0,0 l/m² 2,9 km/h (1 Bft) W 270 ° 2 min 79 W/m² -0,4 °C 1,4 °C 4,8 km/h (1 Bft)
12.05.2020 06:57 23,7 °C 1,5 °C 45 % 88 % 1017,7 hPa 0,0 l/m² 4,3 km/h (1 Bft) W 275 ° 2 min 114 W/m² -0,3 °C 1,5 °C 6,4 km/h (2 Bft)
12.05.2020 06:59 23,7 °C 1,6 °C 45 % 88 % 1017,7 hPa 0,0 l/m² 4,9 km/h (1 Bft) W 271 ° 2 min 130 W/m² -0,2 °C 1,6 °C 6,4 km/h (2 Bft)
12.05.2020 07:00 23,7 °C 1,7 °C 45 % 87 % 1017,6 hPa 0,0 l/m² 4,0 km/h (1 Bft) W 271 ° 1 min 135 W/m² -0,2 °C 1,7 °C 4,8 km/h (1 Bft)
12.05.2020 07:01 23,7 °C 1,7 °C 45 % 87 % 1017,7 hPa 0,0 l/m² 5,6 km/h (2 Bft) W 265 ° 1 min 146 W/m² -0,2 °C 1,7 °C 6,4 km/h (2 Bft)
12.05.2020 07:02 23,7 °C 1,7 °C 45 % 87 % 1017,7 hPa 0,0 l/m² 4,8 km/h (1 Bft) W 265 ° 1 min 148 W/m² -0,2 °C 1,7 °C 6,4 km/h (2 Bft)
12.05.2020 07:03 23,7 °C 1,7 °C 45 % 87 % 1017,7 hPa 0,0 l/m² 3,7 km/h (1 Bft) W 265 ° 1 min 146 W/m² -0,2 °C 1,7 °C 4,8 km/h (1 Bft)
12.05.2020 07:05 23,7 °C 1,8 °C 45 % 87 % 1017,7 hPa 0,0 l/m² 5,2 km/h (1 Bft) W-SW 245 ° 2 min 141 W/m² -0,1 °C 1,8 °C 8,0 km/h (2 Bft)
12.05.2020 07:07 23,7 °C 1,8 °C 45 % 88 % 1017,8 hPa 0,0 l/m² 5,4 km/h (2 Bft) W-SW 244 ° 2 min 137 W/m² 0,0 °C 1,8 °C 8,0 km/h (2 Bft)
12.05.2020 07:09 23,7 °C 1,9 °C 45 % 88 % 1017,7 hPa 0,0 l/m² 4,5 km/h (1 Bft) W-SW 244 ° 2 min 139 W/m² 0,1 °C 1,9 °C 6,4 km/h (2 Bft)
12.05.2020 07:10 23,7 °C 2,0 °C 45 % 88 % 1017,7 hPa 0,0 l/m² 3,8 km/h (1 Bft) W-SW 243 ° 1 min 137 W/m² 0,2 °C 2,0 °C 6,4 km/h (2 Bft)
12.05.2020 07:11 23,7 °C 2,1 °C 45 % 88 % 1017,8 hPa 0,0 l/m² 5,1 km/h (1 Bft) W-SW 243 ° 1 min 139 W/m² 0,3 °C 2,1 °C 6,4 km/h (2 Bft)
12.05.2020 07:13 23,6 °C 2,2 °C 45 % 88 % 1017,8 hPa 0,0 l/m² 4,5 km/h (1 Bft) W-SW 243 ° 2 min 141 W/m² 0,4 °C 2,2 °C 6,4 km/h (2 Bft)
12.05.2020 07:14 23,6 °C 2,2 °C 45 % 88 % 1017,8 hPa 0,0 l/m² 5,2 km/h (1 Bft) W-SW 239 ° 1 min 144 W/m² 0,4 °C 2,2 °C 6,4 km/h (2 Bft)
12.05.2020 07:16 23,6 °C 2,3 °C 45 % 88 % 1017,8 hPa 0,0 l/m² 3,7 km/h (1 Bft) W-SW 239 ° 2 min 153 W/m² 0,5 °C 2,3 °C 4,8 km/h (1 Bft)
12.05.2020 07:18 23,6 °C 2,4 °C 45 % 88 % 1017,8 hPa 0,0 l/m² 3,5 km/h (1 Bft) W-SW 239 ° 2 min 160 W/m² 0,6 °C 2,4 °C 4,8 km/h (1 Bft)
12.05.2020 07:20 23,6 °C 2,6 °C 45 % 88 % 1017,8 hPa 0,0 l/m² 2,7 km/h (1 Bft) W-SW 239 ° 2 min 169 W/m² 0,8 °C 2,6 °C 4,8 km/h (1 Bft)
12.05.2020 07:21 23,5 °C 2,7 °C 45 % 88 % 1017,7 hPa 0,0 l/m² 2,6 km/h (1 Bft) W-SW 239 ° 1 min 176 W/m² 0,9 °C 2,7 °C 3,2 km/h (1 Bft)
12.05.2020 07:22 23,6 °C 2,7 °C 45 % 88 % 1017,8 hPa 0,0 l/m² 2,7 km/h (1 Bft) W-SW 239 ° 1 min 181 W/m² 0,9 °C 2,7 °C 3,2 km/h (1 Bft)
12.05.2020 07:24 23,5 °C 2,8 °C 45 % 88 % 1017,8 hPa 0,0 l/m² 2,6 km/h (1 Bft) W-SW 239 ° 2 min 190 W/m² 1,0 °C 2,8 °C 4,8 km/h (1 Bft)
12.05.2020 07:26 23,5 °C 2,9 °C 45 % 88 % 1017,8 hPa 0,0 l/m² 2,6 km/h (1 Bft) W-SW 239 ° 2 min 197 W/m² 1,1 °C 2,9 °C 3,2 km/h (1 Bft)
12.05.2020 07:28 23,5 °C 3,1 °C 45 % 87 % 1017,8 hPa 0,0 l/m² 3,5 km/h (1 Bft) W-SW 239 ° 2 min 200 W/m² 1,2 °C 3,1 °C 4,8 km/h (1 Bft)
12.05.2020 07:30 23,5 °C 3,3 °C 45 % 87 % 1017,9 hPa 0,0 l/m² 3,8 km/h (1 Bft) W-SW 240 ° 2 min 204 W/m² 1,3 °C 3,3 °C 6,4 km/h (2 Bft)
12.05.2020 07:31 23,5 °C 3,3 °C 45 % 87 % 1017,9 hPa 0,0 l/m² 4,4 km/h (1 Bft) W-SW 247 ° 1 min 206 W/m² 1,3 °C 3,3 °C 4,8 km/h (1 Bft)
12.05.2020 07:32 23,4 °C 3,4 °C 45 % 87 % 1017,9 hPa 0,0 l/m² 5,3 km/h (1 Bft) W-SW 255 ° 1 min 207 W/m² 1,4 °C 3,4 °C 6,4 km/h (2 Bft)
12.05.2020 07:34 23,5 °C 3,6 °C 45 % 86 % 1017,8 hPa 0,0 l/m² 4,6 km/h (1 Bft) W-SW 245 ° 2 min 211 W/m² 1,5 °C 3,6 °C 6,4 km/h (2 Bft)
12.05.2020 07:36 23,4 °C 3,7 °C 45 % 85 % 1017,8 hPa 0,0 l/m² 5,2 km/h (1 Bft) W-SW 242 ° 2 min 214 W/m² 1,4 °C 3,7 °C 8,0 km/h (2 Bft)
12.05.2020 07:38 23,5 °C 3,8 °C 45 % 85 % 1017,9 hPa 0,0 l/m² 4,9 km/h (1 Bft) W-SW 252 ° 2 min 220 W/m² 1,5 °C 3,8 °C 8,0 km/h (2 Bft)
12.05.2020 07:40 23,4 °C 3,9 °C 45 % 85 % 1018,0 hPa 0,0 l/m² 4,6 km/h (1 Bft) W-SW 243 ° 2 min 223 W/m² 1,6 °C 3,9 °C 6,4 km/h (2 Bft)
12.05.2020 07:41 23,4 °C 4,1 °C 45 % 85 % 1017,9 hPa 0,0 l/m² 5,1 km/h (1 Bft) W-SW 255 ° 1 min 225 W/m² 1,8 °C 4,1 °C 6,4 km/h (2 Bft)
12.05.2020 07:42 23,4 °C 4,1 °C 45 % 85 % 1018,0 hPa 0,0 l/m² 4,5 km/h (1 Bft) W-SW 255 ° 1 min 229 W/m² 1,8 °C 4,1 °C 4,8 km/h (1 Bft)
12.05.2020 07:43 23,4 °C 4,3 °C 45 % 85 % 1018,0 hPa 0,0 l/m² 5,4 km/h (2 Bft) W-SW 246 ° 1 min 230 W/m² 2,0 °C 4,3 °C 6,4 km/h (2 Bft)
12.05.2020 07:44 23,4 °C 4,3 °C 45 % 85 % 1018,0 hPa 0,0 l/m² 6,5 km/h (2 Bft) W-SW 248 ° 1 min 234 W/m² 2,0 °C 4,2 °C 8,0 km/h (2 Bft)
12.05.2020 07:46 23,4 °C 4,4 °C 45 % 84 % 1018,1 hPa 0,0 l/m² 5,8 km/h (2 Bft) W-SW 243 ° 2 min 236 W/m² 1,9 °C 4,4 °C 8,0 km/h (2 Bft)
12.05.2020 07:48 23,4 °C 4,6 °C 45 % 84 % 1018,0 hPa 0,0 l/m² 6,4 km/h (2 Bft) W-SW 256 ° 2 min 234 W/m² 2,1 °C 4,6 °C 8,0 km/h (2 Bft)
12.05.2020 07:50 23,4 °C 4,7 °C 45 % 83 % 1018,1 hPa 0,0 l/m² 7,5 km/h (2 Bft) W-SW 257 ° 2 min 230 W/m² 2,1 °C 3,7 °C 11,3 km/h (2 Bft)
12.05.2020 07:51 23,4 °C 4,7 °C 45 % 83 % 1018,0 hPa 0,0 l/m² 6,9 km/h (2 Bft) W-SW 246 ° 1 min 230 W/m² 2,1 °C 4,3 °C 11,3 km/h (2 Bft)
12.05.2020 07:52 23,4 °C 4,8 °C 45 % 83 % 1018,1 hPa 0,0 l/m² 6,4 km/h (2 Bft) W 267 ° 1 min 229 W/m² 2,2 °C 4,8 °C 8,0 km/h (2 Bft)
12.05.2020 07:53 23,4 °C 4,8 °C 45 % 83 % 1018,1 hPa 0,0 l/m² 6,7 km/h (2 Bft) W-NW 284 ° 1 min 227 W/m² 2,2 °C 4,6 °C 9,7 km/h (2 Bft)
12.05.2020 07:55 23,4 °C 4,9 °C 45 % 83 % 1018,1 hPa 0,0 l/m² 7,7 km/h (2 Bft) W 273 ° 2 min 225 W/m² 2,3 °C 3,8 °C 12,9 km/h (3 Bft)
12.05.2020 07:57 23,4 °C 5,1 °C 45 % 82 % 1018,1 hPa 0,0 l/m² 7,6 km/h (2 Bft) W-SW 257 ° 2 min 225 W/m² 2,3 °C 4,0 °C 14,5 km/h (3 Bft)
12.05.2020 07:59 23,4 °C 5,3 °C 45 % 81 % 1018,2 hPa 0,0 l/m² 10,5 km/h (2 Bft) W-SW 254 ° 2 min 229 W/m² 2,3 °C 2,1 °C 14,5 km/h (3 Bft)
12.05.2020 08:00 23,4 °C 5,3 °C 45 % 80 % 1018,1 hPa 0,0 l/m² 10,7 km/h (2 Bft) W-SW 254 ° 1 min 234 W/m² 2,1 °C 1,9 °C 16,1 km/h (3 Bft)
12.05.2020 08:01 23,4 °C 5,4 °C 45 % 80 % 1018,2 hPa 0,0 l/m² 11,3 km/h (2 Bft) W-SW 252 ° 1 min 237 W/m² 2,2 °C 1,7 °C 14,5 km/h (3 Bft)
12.05.2020 08:03 23,5 °C 5,6 °C 45 % 79 % 1018,1 hPa 0,0 l/m² 12,5 km/h (2 Bft) W 276 ° 2 min 248 W/m² 2,3 °C 1,2 °C 17,7 km/h (3 Bft)
12.05.2020 08:04 23,4 °C 5,6 °C 45 % 79 % 1018,2 hPa 0,0 l/m² 11,4 km/h (2 Bft) W 273 ° 1 min 253 W/m² 2,3 °C 1,8 °C 16,1 km/h (3 Bft)
12.05.2020 08:06 23,4 °C 5,7 °C 45 % 78 % 1018,3 hPa 0,0 l/m² 11,6 km/h (2 Bft) W 261 ° 2 min 265 W/m² 2,2 °C 1,8 °C 14,5 km/h (3 Bft)
12.05.2020 08:08 23,5 °C 5,8 °C 45 % 78 % 1018,2 hPa 0,0 l/m² 11,4 km/h (2 Bft) W-SW 249 ° 2 min 294 W/m² 2,3 °C 2,0 °C 14,5 km/h (3 Bft)
12.05.2020 08:10 23,5 °C 5,8 °C 45 % 77 % 1018,2 hPa 0,0 l/m² 10,3 km/h (2 Bft) W-SW 241 ° 2 min 311 W/m² 2,1 °C 2,8 °C 14,5 km/h (3 Bft)
12.05.2020 08:11 23,5 °C 5,9 °C 45 % 79 % 1018,2 hPa 0,0 l/m² 8,1 km/h (2 Bft) W 266 ° 1 min 318 W/m² 2,5 °C 4,5 °C 11,3 km/h (2 Bft)
12.05.2020 08:12 23,5 °C 5,9 °C 45 % 79 % 1018,2 hPa 0,0 l/m² 6,8 km/h (2 Bft) W-SW 248 ° 1 min 325 W/m² 2,5 °C 5,6 °C 8,0 km/h (2 Bft)
12.05.2020 08:13 23,6 °C 6,0 °C 45 % 78 % 1018,2 hPa 0,0 l/m² 10,5 km/h (2 Bft) W-SW 251 ° 1 min 336 W/m² 2,5 °C 2,8 °C 12,9 km/h (3 Bft)
12.05.2020 08:15 23,6 °C 6,1 °C 45 % 77 % 1018,2 hPa 0,0 l/m² 10,2 km/h (2 Bft) W 273 ° 2 min 338 W/m² 2,4 °C 3,2 °C 14,5 km/h (3 Bft)
12.05.2020 08:17 23,7 °C 6,2 °C 45 % 75 % 1018,1 hPa 0,0 l/m² 9,7 km/h (2 Bft) NW 305 ° 2 min 339 W/m² 2,1 °C 3,6 °C 16,1 km/h (3 Bft)
12.05.2020 08:19 23,7 °C 6,3 °C 45 % 75 % 1018,1 hPa 0,0 l/m² 8,3 km/h (2 Bft) W 279 ° 2 min 338 W/m² 2,2 °C 4,7 °C 14,5 km/h (3 Bft)
12.05.2020 08:20 23,8 °C 6,4 °C 45 % 74 % 1018,2 hPa 0,0 l/m² 9,7 km/h (2 Bft) W 274 ° 1 min 338 W/m² 2,1 °C 3,8 °C 14,5 km/h (3 Bft)
12.05.2020 08:21 23,8 °C 6,5 °C 45 % 75 % 1018,2 hPa 0,0 l/m² 7,2 km/h (2 Bft) W-NW 288 ° 1 min 338 W/m² 2,4 °C 5,8 °C 12,9 km/h (3 Bft)
12.05.2020 08:23 24,1 °C 6,6 °C 45 % 74 % 1018,2 hPa 0,0 l/m² 9,3 km/h (2 Bft) W 277 ° 2 min 338 W/m² 2,3 °C 4,3 °C 17,7 km/h (3 Bft)
12.05.2020 08:24 24,1 °C 6,6 °C 45 % 73 % 1018,2 hPa 0,0 l/m² 17,9 km/h (3 Bft) W 275 ° 1 min 338 W/m² 2,1 °C -0,3 °C 19,3 km/h (3 Bft)
12.05.2020 08:26 24,2 °C 6,5 °C 44 % 71 % 1018,3 hPa 0,0 l/m² 12,7 km/h (3 Bft) W-NW 288 ° 2 min 338 W/m² 1,6 °C 2,1 °C 16,1 km/h (3 Bft)
12.05.2020 08:28 24,3 °C 6,7 °C 44 % 71 % 1018,3 hPa 0,0 l/m² 10,4 km/h (2 Bft) W-NW 282 ° 2 min 339 W/m² 1,8 °C 3,7 °C 17,7 km/h (3 Bft)
12.05.2020 08:30 24,3 °C 6,7 °C 44 % 72 % 1018,2 hPa 0,0 l/m² 13,6 km/h (3 Bft) W-NW 289 ° 2 min 343 W/m² 2,0 °C 1,8 °C 20,9 km/h (4 Bft)
12.05.2020 08:31 24,3 °C 6,7 °C 44 % 73 % 1018,3 hPa 0,0 l/m² 9,4 km/h (2 Bft) W 275 ° 1 min 348 W/m² 2,2 °C 4,4 °C 12,9 km/h (3 Bft)
12.05.2020 08:32 24,3 °C 6,8 °C 44 % 72 % 1018,3 hPa 0,0 l/m² 7,6 km/h (2 Bft) NW 305 ° 1 min 352 W/m² 2,1 °C 5,8 °C 14,5 km/h (3 Bft)
12.05.2020 08:33 24,3 °C 6,8 °C 44 % 71 % 1018,2 hPa 0,0 l/m² 8,5 km/h (2 Bft) N-NW 327 ° 1 min 355 W/m² 1,9 °C 5,1 °C 12,9 km/h (3 Bft)
12.05.2020 08:35 24,4 °C 6,9 °C 44 % 71 % 1018,2 hPa 0,0 l/m² 9,9 km/h (2 Bft) N-NW 333 ° 2 min 366 W/m² 2,0 °C 4,2 °C 14,5 km/h (3 Bft)
12.05.2020 08:37 24,5 °C 7,1 °C 44 % 73 % 1018,2 hPa 0,0 l/m² 5,4 km/h (2 Bft) W-NW 298 ° 2 min 381 W/m² 2,6 °C 7,1 °C 9,7 km/h (2 Bft)
12.05.2020 08:39 24,6 °C 7,2 °C 44 % 70 % 1018,2 hPa 0,0 l/m² 5,8 km/h (2 Bft) W 281 ° 2 min 394 W/m² 2,1 °C 7,2 °C 12,9 km/h (3 Bft)
12.05.2020 08:40 24,7 °C 7,3 °C 44 % 70 % 1018,2 hPa 0,0 l/m² 7,9 km/h (2 Bft) NW 326 ° 1 min 401 W/m² 2,2 °C 6,1 °C 12,9 km/h (3 Bft)
12.05.2020 08:41 24,7 °C 7,2 °C 44 % 70 % 1018,2 hPa 0,0 l/m² 7,2 km/h (2 Bft) NW 309 ° 1 min 408 W/m² 2,1 °C 6,5 °C 12,9 km/h (3 Bft)
12.05.2020 08:43 24,8 °C 7,2 °C 44 % 70 % 1018,1 hPa 0,0 l/m² 8,3 km/h (2 Bft) W 275 ° 2 min 427 W/m² 2,1 °C 5,7 °C 14,5 km/h (3 Bft)
12.05.2020 08:44 24,8 °C 7,3 °C 44 % 69 % 1018,2 hPa 0,0 l/m² 8,1 km/h (2 Bft) W 273 ° 1 min 436 W/m² 2,0 °C 5,9 °C 12,9 km/h (3 Bft)
12.05.2020 08:46 24,9 °C 7,3 °C 44 % 69 % 1018,2 hPa 0,0 l/m² 6,5 km/h (2 Bft) W-SW 254 ° 2 min 450 W/m² 2,0 °C 7,2 °C 11,3 km/h (2 Bft)
12.05.2020 08:48 25,0 °C 7,4 °C 44 % 70 % 1018,2 hPa 0,0 l/m² 7,7 km/h (2 Bft) N-NW 347 ° 2 min 462 W/m² 2,3 °C 6,4 °C 14,5 km/h (3 Bft)
12.05.2020 08:50 25,1 °C 7,5 °C 44 % 68 % 1018,3 hPa 0,0 l/m² 7,0 km/h (2 Bft) W-NW 292 ° 2 min 482 W/m² 2,0 °C 7,0 °C 12,9 km/h (3 Bft)
12.05.2020 08:51 25,2 °C 7,6 °C 44 % 69 % 1018,3 hPa 0,0 l/m² 6,9 km/h (2 Bft) W-NW 301 ° 1 min 489 W/m² 2,3 °C 7,2 °C 14,5 km/h (3 Bft)
12.05.2020 08:52 25,3 °C 7,6 °C 43 % 68 % 1018,4 hPa 0,0 l/m² 10,6 km/h (2 Bft) W-NW 297 ° 1 min 492 W/m² 2,1 °C 4,6 °C 17,7 km/h (3 Bft)
12.05.2020 08:53 25,3 °C 7,6 °C 44 % 69 % 1018,3 hPa 0,0 l/m² 6,3 km/h (2 Bft) N-NW 336 ° 1 min 494 W/m² 2,3 °C 7,6 °C 11,3 km/h (2 Bft)
12.05.2020 08:55 25,3 °C 7,6 °C 43 % 69 % 1018,4 hPa 0,0 l/m² 10,8 km/h (2 Bft) W-NW 298 ° 2 min 501 W/m² 2,3 °C 4,4 °C 19,3 km/h (3 Bft)
12.05.2020 08:57 25,4 °C 7,6 °C 43 % 67 % 1018,3 hPa 0,0 l/m² 9,5 km/h (2 Bft) W-NW 293 ° 2 min 506 W/m² 1,9 °C 5,3 °C 19,3 km/h (3 Bft)
12.05.2020 08:59 25,6 °C 7,7 °C 43 % 68 % 1018,4 hPa 0,0 l/m² 7,7 km/h (2 Bft) NW 313 ° 2 min 512 W/m² 2,2 °C 6,7 °C 12,9 km/h (3 Bft)
12.05.2020 09:00 25,7 °C 7,8 °C 43 % 68 % 1018,4 hPa 0,0 l/m² 10,6 km/h (2 Bft) W-NW 302 ° 1 min 517 W/m² 2,3 °C 4,8 °C 16,1 km/h (3 Bft)
12.05.2020 09:01 25,8 °C 7,8 °C 43 % 66 % 1018,3 hPa 0,0 l/m² 8,1 km/h (2 Bft) NW 315 ° 1 min 522 W/m² 1,9 °C 6,5 °C 14,5 km/h (3 Bft)
12.05.2020 09:02 26,0 °C 7,8 °C 43 % 67 % 1018,4 hPa 0,0 l/m² 10,5 km/h (2 Bft) W 279 ° 1 min 520 W/m² 2,1 °C 4,9 °C 17,7 km/h (3 Bft)
12.05.2020 09:03 26,1 °C 7,8 °C 43 % 67 % 1018,4 hPa 0,0 l/m² 7,6 km/h (2 Bft) W 260 ° 1 min 524 W/m² 2,1 °C 6,8 °C 12,9 km/h (3 Bft)
12.05.2020 09:05 26,3 °C 7,8 °C 42 % 66 % 1018,3 hPa 0,0 l/m² 9,5 km/h (2 Bft) W 275 ° 2 min 527 W/m² 1,9 °C 5,5 °C 16,1 km/h (3 Bft)
12.05.2020 09:07 26,6 °C 7,9 °C 42 % 69 % 1018,4 hPa 0,0 l/m² 9,9 km/h (2 Bft) W-NW 302 ° 2 min 534 W/m² 2,6 °C 5,3 °C 14,5 km/h (3 Bft)
12.05.2020 09:09 27,1 °C 7,9 °C 42 % 67 % 1018,4 hPa 0,0 l/m² 9,4 km/h (2 Bft) W-NW 286 ° 2 min 540 W/m² 2,2 °C 5,7 °C 14,5 km/h (3 Bft)
12.05.2020 09:10 27,2 °C 8,1 °C 41 % 67 % 1018,4 hPa 0,0 l/m² 12,1 km/h (2 Bft) N-NW 333 ° 1 min 540 W/m² 2,3 °C 4,3 °C 20,9 km/h (4 Bft)
12.05.2020 09:11 27,3 °C 8,1 °C 41 % 65 % 1018,4 hPa 0,0 l/m² 12,3 km/h (2 Bft) W-NW 300 ° 1 min 545 W/m² 1,9 °C 4,2 °C 17,7 km/h (3 Bft)
12.05.2020 09:12 27,5 °C 8,1 °C 41 % 64 % 1018,5 hPa 0,0 l/m² 10,3 km/h (2 Bft) NW 317 ° 1 min 550 W/m² 1,7 °C 5,3 °C 16,1 km/h (3 Bft)
12.05.2020 09:13 27,6 °C 8,2 °C 39 % 66 % 1018,4 hPa 0,0 l/m² 8,2 km/h (2 Bft) N-NW 340 ° 1 min 552 W/m² 2,2 °C 6,8 °C 16,1 km/h (3 Bft)
12.05.2020 09:15 27,7 °C 8,2 °C 39 % 64 % 1018,5 hPa 0,0 l/m² 12,4 km/h (2 Bft) NW 319 ° 2 min 557 W/m² 1,8 °C 4,2 °C 19,3 km/h (3 Bft)
12.05.2020 09:17 27,8 °C 8,1 °C 39 % 65 % 1018,5 hPa 0,0 l/m² 8,9 km/h (2 Bft) N-NW 331 ° 2 min 563 W/m² 1,9 °C 6,2 °C 16,1 km/h (3 Bft)
12.05.2020 09:19 27,9 °C 8,2 °C 39 % 65 % 1018,4 hPa 0,0 l/m² 12,1 km/h (2 Bft) W 272 ° 2 min 568 W/m² 2,0 °C 4,4 °C 17,7 km/h (3 Bft)
12.05.2020 09:20 27,9 °C 8,3 °C 39 % 64 % 1018,4 hPa 0,0 l/m² 6,9 km/h (2 Bft) W 275 ° 1 min 570 W/m² 1,9 °C 7,9 °C 12,9 km/h (3 Bft)
12.05.2020 09:21 28,0 °C 8,3 °C 39 % 65 % 1018,4 hPa 0,0 l/m² 11,7 km/h (2 Bft) W 277 ° 1 min 573 W/m² 2,1 °C 4,7 °C 14,5 km/h (3 Bft)
12.05.2020 09:23 28,1 °C 8,6 °C 39 % 67 % 1018,4 hPa 0,0 l/m² 7,7 km/h (2 Bft) W-NW 284 ° 2 min 580 W/m² 2,8 °C 7,6 °C 14,5 km/h (3 Bft)
12.05.2020 09:25 28,1 °C 8,5 °C 39 % 64 % 1018,4 hPa 0,0 l/m² 8,2 km/h (2 Bft) W-NW 286 ° 2 min 584 W/m² 2,1 °C 7,1 °C 14,5 km/h (3 Bft)
12.05.2020 09:27 28,1 °C 8,5 °C 37 % 66 % 1018,4 hPa 0,0 l/m² 9,8 km/h (2 Bft) W-NW 289 ° 2 min 591 W/m² 2,5 °C 6,1 °C 17,7 km/h (3 Bft)
12.05.2020 09:29 28,1 °C 8,6 °C 37 % 63 % 1018,4 hPa 0,0 l/m² 9,9 km/h (2 Bft) W-NW 284 ° 2 min 599 W/m² 2,0 °C 6,1 °C 19,3 km/h (3 Bft)
12.05.2020 09:30 28,1 °C 8,5 °C 37 % 61 % 1018,4 hPa 0,0 l/m² 17,8 km/h (3 Bft) W 281 ° 1 min 606 W/m² 1,4 °C 2,2 °C 22,5 km/h (4 Bft)
12.05.2020 09:31 28,1 °C 8,4 °C 37 % 61 % 1018,4 hPa 0,0 l/m² 13,2 km/h (3 Bft) W 267 ° 1 min 613 W/m² 1,3 °C 4,0 °C 16,1 km/h (3 Bft)
12.05.2020 09:32 28,2 °C 8,4 °C 37 % 62 % 1018,4 hPa 0,0 l/m² 15,5 km/h (3 Bft) W-SW 242 ° 1 min 626 W/m² 1,6 °C 3,0 °C 20,9 km/h (4 Bft)
12.05.2020 09:33 28,2 °C 8,4 °C 38 % 63 % 1018,4 hPa 0,0 l/m² 16,2 km/h (3 Bft) W 272 ° 1 min 629 W/m² 1,8 °C 2,7 °C 22,5 km/h (4 Bft)
12.05.2020 09:35 28,2 °C 8,4 °C 38 % 65 % 1018,4 hPa 0,0 l/m² 11,0 km/h (2 Bft) W-NW 303 ° 2 min 645 W/m² 2,2 °C 5,2 °C 19,3 km/h (3 Bft)
12.05.2020 09:37 28,2 °C 8,3 °C 38 % 62 % 1018,4 hPa 0,0 l/m² 13,8 km/h (3 Bft) W-NW 303 ° 2 min 171 W/m² 1,5 °C 3,6 °C 19,3 km/h (3 Bft)
12.05.2020 09:39 28,3 °C 8,3 °C 38 % 65 % 1018,4 hPa 0,0 l/m² 9,1 km/h (2 Bft) NW 325 ° 2 min 633 W/m² 2,1 °C 6,3 °C 16,1 km/h (3 Bft)
12.05.2020 09:40 28,3 °C 8,4 °C 38 % 64 % 1018,4 hPa 0,0 l/m² 13,6 km/h (3 Bft) NW 313 ° 1 min 647 W/m² 2,0 °C 3,9 °C 17,7 km/h (3 Bft)
12.05.2020 09:41 28,3 °C 8,4 °C 38 % 65 % 1018,4 hPa 0,0 l/m² 7,7 km/h (2 Bft) W-NW 298 ° 1 min 654 W/m² 2,2 °C 7,4 °C 14,5 km/h (3 Bft)
12.05.2020 09:42 28,3 °C 8,6 °C 38 % 66 % 1018,5 hPa 0,0 l/m² 9,0 km/h (2 Bft) W 276 ° 1 min 663 W/m² 2,6 °C 6,7 °C 16,1 km/h (3 Bft)
12.05.2020 09:43 28,4 °C 8,6 °C 38 % 63 % 1018,4 hPa 0,0 l/m² 8,2 km/h (2 Bft) W-NW 291 ° 1 min 668 W/m² 2,0 °C 7,2 °C 14,5 km/h (3 Bft)
12.05.2020 09:45 28,4 °C 8,9 °C 38 % 66 % 1018,5 hPa 0,0 l/m² 5,3 km/h (1 Bft) W-NW 298 ° 2 min 666 W/m² 2,9 °C 8,9 °C 11,3 km/h (2 Bft)
12.05.2020 09:46 28,5 °C 9,1 °C 38 % 65 % 1018,4 hPa 0,0 l/m² 9,7 km/h (2 Bft) W 275 ° 1 min 666 W/m² 2,9 °C 6,8 °C 14,5 km/h (3 Bft)
12.05.2020 09:47 28,5 °C 9,0 °C 38 % 64 % 1018,5 hPa 0,0 l/m² 10,2 km/h (2 Bft) W 270 ° 1 min 707 W/m² 2,6 °C 6,4 °C 14,5 km/h (3 Bft)
12.05.2020 09:48 28,5 °C 8,9 °C 38 % 65 % 1018,5 hPa 0,0 l/m² 9,9 km/h (2 Bft) W-NW 298 ° 1 min 728 W/m² 2,7 °C 6,4 °C 12,9 km/h (3 Bft)
12.05.2020 09:50 28,6 °C 9,3 °C 38 % 66 % 1018,5 hPa 0,0 l/m² 5,5 km/h (2 Bft) W 265 ° 2 min 763 W/m² 3,3 °C 9,3 °C 11,3 km/h (2 Bft)
12.05.2020 09:51 28,7 °C 9,4 °C 38 % 64 % 1018,6 hPa 0,0 l/m² 11,9 km/h (2 Bft) W-NW 292 ° 1 min 763 W/m² 2,9 °C 5,9 °C 16,1 km/h (3 Bft)
12.05.2020 09:52 28,7 °C 9,2 °C 38 % 60 % 1018,6 hPa 0,0 l/m² 10,6 km/h (2 Bft) NW 315 ° 1 min 269 W/m² 1,8 °C 6,4 °C 16,1 km/h (3 Bft)
12.05.2020 09:53 28,7 °C 9,1 °C 38 % 63 % 1018,6 hPa 0,0 l/m² 13,7 km/h (3 Bft) W 267 ° 1 min 178 W/m² 2,4 °C 4,6 °C 20,9 km/h (4 Bft)
12.05.2020 09:55 28,8 °C 8,7 °C 37 % 63 % 1018,6 hPa 0,0 l/m² 14,1 km/h (3 Bft) N-NW 328 ° 2 min 171 W/m² 2,1 °C 4,0 °C 19,3 km/h (3 Bft)
12.05.2020 09:57 28,9 °C 8,4 °C 37 % 64 % 1018,6 hPa 0,0 l/m² 8,6 km/h (2 Bft) NW 311 ° 2 min 162 W/m² 2,0 °C 6,7 °C 14,5 km/h (3 Bft)
12.05.2020 09:59 29,1 °C 8,6 °C 37 % 63 % 1018,6 hPa 0,0 l/m² 8,4 km/h (2 Bft) N-NW 327 ° 2 min 805 W/m² 2,0 °C 7,1 °C 16,1 km/h (3 Bft)
12.05.2020 10:00 29,1 °C 8,9 °C 36 % 64 % 1018,6 hPa 0,0 l/m² 10,3 km/h (2 Bft) N-NW 327 ° 1 min 837 W/m² 2,5 °C 6,2 °C 17,7 km/h (3 Bft)
12.05.2020 10:01 29,1 °C 9,2 °C 36 % 65 % 1018,6 hPa 0,0 l/m² 9,5 km/h (2 Bft) NW 308 ° 1 min 837 W/m² 3,0 °C 7,0 °C 16,1 km/h (3 Bft)
12.05.2020 10:03 29,3 °C 9,4 °C 36 % 63 % 1018,5 hPa 0,0 l/m² 8,3 km/h (2 Bft) W-NW 286 ° 2 min 837 W/m² 2,7 °C 8,0 °C 16,1 km/h (3 Bft)
12.05.2020 10:05 29,4 °C 9,1 °C 36 % 62 % 1018,5 hPa 0,0 l/m² 13,0 km/h (3 Bft) W 266 ° 2 min 132 W/m² 2,2 °C 5,0 °C 16,1 km/h (3 Bft)
12.05.2020 10:07 29,5 °C 8,7 °C 36 % 62 % 1018,5 hPa 0,0 l/m² 11,2 km/h (2 Bft) W 263 ° 2 min 148 W/m² 1,8 °C 5,5 °C 16,1 km/h (3 Bft)
12.05.2020 10:09 29,6 °C 8,8 °C 36 % 63 % 1018,5 hPa 0,0 l/m² 12,0 km/h (2 Bft) NW 325 ° 2 min 793 W/m² 2,2 °C 5,1 °C 16,1 km/h (3 Bft)
12.05.2020 10:10 29,7 °C 8,7 °C 36 % 62 % 1018,6 hPa 0,0 l/m² 7,9 km/h (2 Bft) W 281 ° 1 min 278 W/m² 1,8 °C 7,6 °C 11,3 km/h (2 Bft)
12.05.2020 10:11 29,7 °C 8,8 °C 36 % 62 % 1018,6 hPa 0,0 l/m² 13,0 km/h (3 Bft) W 273 ° 1 min 791 W/m² 1,9 °C 4,6 °C 22,5 km/h (4 Bft)
12.05.2020 10:12 29,7 °C 8,8 °C 36 % 63 % 1018,6 hPa 0,0 l/m² 13,3 km/h (3 Bft) NW 307 ° 1 min 798 W/m² 2,2 °C 4,5 °C 19,3 km/h (3 Bft)
12.05.2020 10:13 29,7 °C 9,0 °C 36 % 64 % 1018,6 hPa 0,0 l/m² 7,4 km/h (2 Bft) NW 315 ° 1 min 809 W/m² 2,6 °C 8,2 °C 12,9 km/h (3 Bft)
12.05.2020 10:15 29,7 °C 9,3 °C 35 % 60 % 1018,6 hPa 0,0 l/m² 9,9 km/h (2 Bft) NW 323 ° 2 min 823 W/m² 1,9 °C 6,9 °C 17,7 km/h (3 Bft)
12.05.2020 10:17 29,7 °C 9,8 °C 36 % 62 % 1018,5 hPa 0,0 l/m² 5,4 km/h (2 Bft) W-NW 284 ° 2 min 858 W/m² 2,9 °C 9,8 °C 11,3 km/h (2 Bft)
12.05.2020 10:19 29,5 °C 9,7 °C 36 % 60 % 1018,5 hPa 0,0 l/m² 9,0 km/h (2 Bft) W 279 ° 2 min 858 W/m² 2,3 °C 7,9 °C 14,5 km/h (3 Bft)
12.05.2020 10:20 29,4 °C 9,6 °C 36 % 60 % 1018,5 hPa 0,0 l/m² 10,8 km/h (2 Bft) SW 232 ° 1 min 846 W/m² 2,2 °C 6,7 °C 14,5 km/h (3 Bft)
12.05.2020 10:21 29,3 °C 9,7 °C 36 % 62 % 1018,4 hPa 0,0 l/m² 6,7 km/h (2 Bft) SW 219 ° 1 min 847 W/m² 2,8 °C 9,5 °C 9,7 km/h (2 Bft)
12.05.2020 10:22 29,3 °C 9,6 °C 36 % 62 % 1018,4 hPa 0,0 l/m² 10,9 km/h (2 Bft) W 265 ° 1 min 172 W/m² 2,7 °C 6,6 °C 17,7 km/h (3 Bft)
12.05.2020 10:23 29,3 °C 9,5 °C 36 % 61 % 1018,4 hPa 0,0 l/m² 14,9 km/h (3 Bft) W-NW 282 ° 1 min 172 W/m² 2,4 °C 4,6 °C 20,9 km/h (4 Bft)
12.05.2020 10:25 29,2 °C 9,5 °C 36 % 62 % 1018,6 hPa 0,0 l/m² 13,7 km/h (3 Bft) W 279 ° 2 min 172 W/m² 2,6 °C 5,1 °C 25,7 km/h (4 Bft)
12.05.2020 10:27 29,2 °C 9,2 °C 36 % 56 % 1018,6 hPa 0,0 l/m² 16,7 km/h (3 Bft) W-NW 288 ° 2 min 148 W/m² 0,9 °C 3,5 °C 22,5 km/h (4 Bft)
12.05.2020 10:29 29,1 °C 9,3 °C 36 % 60 % 1018,6 hPa 0,0 l/m² 8,9 km/h (2 Bft) W-NW 302 ° 2 min 809 W/m² 1,9 °C 7,5 °C 17,7 km/h (3 Bft)
12.05.2020 10:30 29,2 °C 9,5 °C 36 % 59 % 1018,6 hPa 0,0 l/m² 6,9 km/h (2 Bft) W-NW 286 ° 1 min 812 W/m² 1,9 °C 9,1 °C 14,5 km/h (3 Bft)
12.05.2020 10:31 29,2 °C 9,7 °C 36 % 60 % 1018,6 hPa 0,0 l/m² 2,9 km/h (1 Bft) W-NW 286 ° 1 min 814 W/m² 2,3 °C 9,7 °C 4,8 km/h (1 Bft)
12.05.2020 10:32 29,2 °C 9,8 °C 36 % 58 % 1018,6 hPa 0,0 l/m² 7,6 km/h (2 Bft) W-NW 288 ° 1 min 821 W/m² 1,9 °C 8,9 °C 12,9 km/h (3 Bft)
12.05.2020 10:33 29,3 °C 9,8 °C 37 % 60 % 1018,6 hPa 0,0 l/m² 9,1 km/h (2 Bft) W 275 ° 1 min 837 W/m² 2,4 °C 7,9 °C 16,1 km/h (3 Bft)
12.05.2020 10:35 29,3 °C 10,0 °C 36 % 59 % 1018,5 hPa 0,0 l/m² 8,3 km/h (2 Bft) W 272 ° 2 min 888 W/m² 2,4 °C 8,7 °C 14,5 km/h (3 Bft)
12.05.2020 10:37 29,3 °C 10,1 °C 36 % 57 % 1018,5 hPa 0,0 l/m² 9,5 km/h (2 Bft) W 276 ° 2 min 909 W/m² 2,0 °C 8,0 °C 12,9 km/h (3 Bft)
12.05.2020 10:39 29,4 °C 10,1 °C 36 % 59 % 1018,6 hPa 0,0 l/m² 5,9 km/h (2 Bft) W 259 ° 2 min 944 W/m² 2,5 °C 10,1 °C 12,9 km/h (3 Bft)
12.05.2020 10:40 29,5 °C 10,1 °C 36 % 56 % 1018,5 hPa 0,0 l/m² 6,3 km/h (2 Bft) W 272 ° 1 min 963 W/m² 1,7 °C 10,1 °C 9,7 km/h (2 Bft)
12.05.2020 10:41 29,6 °C 10,2 °C 36 % 58 % 1018,6 hPa 0,0 l/m² 8,7 km/h (2 Bft) W-SW 239 ° 1 min 977 W/m² 2,3 °C 8,6 °C 11,3 km/h (2 Bft)
12.05.2020 10:42 29,6 °C 10,4 °C 36 % 58 % 1018,6 hPa 0,0 l/m² 14,6 km/h (3 Bft) W 263 ° 1 min 986 W/m² 2,5 °C 5,8 °C 20,9 km/h (4 Bft)
12.05.2020 10:43 29,6 °C 10,6 °C 36 % 60 % 1018,6 hPa 0,0 l/m² 14,8 km/h (3 Bft) W 267 ° 1 min 723 W/m² 3,2 °C 5,9 °C 17,7 km/h (3 Bft)
12.05.2020 10:45 29,7 °C 10,5 °C 36 % 55 % 1018,6 hPa 0,0 l/m² 10,6 km/h (2 Bft) W 263 ° 2 min 928 W/m² 1,8 °C 7,8 °C 14,5 km/h (3 Bft)
12.05.2020 10:47 29,7 °C 10,2 °C 36 % 55 % 1018,6 hPa 0,0 l/m² 10,1 km/h (2 Bft) W-SW 240 ° 2 min 512 W/m² 1,6 °C 7,8 °C 16,1 km/h (3 Bft)
12.05.2020 10:49 29,9 °C 10,1 °C 36 % 54 % 1018,7 hPa 0,0 l/m² 10,0 km/h (2 Bft) W-SW 250 ° 2 min 923 W/m² 1,2 °C 7,7 °C 17,7 km/h (3 Bft)
12.05.2020 10:50 29,9 °C 10,1 °C 36 % 57 % 1018,7 hPa 0,0 l/m² 12,4 km/h (2 Bft) W-SW 254 ° 1 min 969 W/m² 2,0 °C 6,4 °C 17,7 km/h (3 Bft)
12.05.2020 10:51 29,9 °C 10,1 °C 36 % 59 % 1018,7 hPa 0,0 l/m² 10,8 km/h (2 Bft) W-NW 299 ° 1 min 991 W/m² 2,5 °C 7,3 °C 16,1 km/h (3 Bft)
12.05.2020 10:52 29,9 °C 10,2 °C 36 % 58 % 1018,7 hPa 0,0 l/m² 13,1 km/h (3 Bft) W-SW 253 ° 1 min 991 W/m² 2,3 °C 6,2 °C 16,1 km/h (3 Bft)
12.05.2020 10:53 29,9 °C 10,2 °C 36 % 58 % 1018,7 hPa 0,0 l/m² 9,2 km/h (2 Bft) W 268 ° 1 min 374 W/m² 2,3 °C 8,3 °C 14,5 km/h (3 Bft)
12.05.2020 10:55 29,9 °C 10,1 °C 36 % 56 % 1018,7 hPa 0,0 l/m² 15,7 km/h (3 Bft) W 263 ° 2 min 225 W/m² 1,7 °C 5,0 °C 20,9 km/h (4 Bft)
12.05.2020 10:57 30,0 °C 9,9 °C 36 % 56 % 1018,8 hPa 0,0 l/m² 10,0 km/h (2 Bft) W-SW 247 ° 2 min 947 W/m² 1,5 °C 7,5 °C 17,7 km/h (3 Bft)
12.05.2020 10:59 30,1 °C 10,3 °C 36 % 59 % 1018,7 hPa 0,0 l/m² 7,2 km/h (2 Bft) SW 220 ° 2 min 1011 W/m² 2,6 °C 9,7 °C 11,3 km/h (2 Bft)
12.05.2020 11:00 30,1 °C 10,4 °C 36 % 63 % 1018,7 hPa 0,0 l/m² 7,5 km/h (2 Bft) SW 218 ° 1 min 1032 W/m² 3,7 °C 9,6 °C 11,3 km/h (2 Bft)
12.05.2020 11:01 30,1 °C 10,3 °C 36 % 58 % 1018,6 hPa 0,0 l/m² 6,4 km/h (2 Bft) W-SW 239 ° 1 min 1032 W/m² 2,4 °C 10,3 °C 11,3 km/h (2 Bft)
12.05.2020 11:02 30,1 °C 10,3 °C 36 % 62 % 1018,6 hPa 0,0 l/m² 6,5 km/h (2 Bft) SW 224 ° 1 min 1032 W/m² 3,3 °C 10,3 °C 8,0 km/h (2 Bft)
12.05.2020 11:03 30,1 °C 10,1 °C 36 % 60 % 1018,7 hPa 0,0 l/m² 5,3 km/h (1 Bft) S-SW 208 ° 1 min 1032 W/m² 2,7 °C 10,1 °C 8,0 km/h (2 Bft)
12.05.2020 11:05 30,1 °C 9,9 °C 36 % 60 % 1018,7 hPa 0,0 l/m² 8,2 km/h (2 Bft) S-SW 205 ° 2 min 330 W/m² 2,5 °C 8,6 °C 14,5 km/h (3 Bft)
12.05.2020 11:07 30,1 °C 9,6 °C 36 % 56 % 1018,7 hPa 0,0 l/m² 10,3 km/h (2 Bft) SW 221 ° 2 min 348 W/m² 1,3 °C 7,0 °C 14,5 km/h (3 Bft)
12.05.2020 11:09 30,1 °C 9,5 °C 36 % 62 % 1018,8 hPa 0,0 l/m² 8,8 km/h (2 Bft) W-SW 237 ° 2 min 304 W/m² 2,6 °C 7,8 °C 12,9 km/h (3 Bft)
12.05.2020 11:10 30,1 °C 9,5 °C 36 % 59 % 1018,7 hPa 0,0 l/m² 10,1 km/h (2 Bft) W 279 ° 1 min 304 W/m² 1,9 °C 7,0 °C 14,5 km/h (3 Bft)
12.05.2020 11:11 30,1 °C 9,6 °C 36 % 60 % 1018,7 hPa 0,0 l/m² 14,3 km/h (3 Bft) W-SW 249 ° 1 min 322 W/m² 2,2 °C 5,0 °C 17,7 km/h (3 Bft)
12.05.2020 11:12 30,1 °C 9,6 °C 36 % 59 % 1018,7 hPa 0,0 l/m² 16,9 km/h (3 Bft) W 270 ° 1 min 334 W/m² 2,0 °C 3,9 °C 20,9 km/h (4 Bft)
12.05.2020 11:13 30,1 °C 9,5 °C 36 % 59 % 1018,8 hPa 0,0 l/m² 12,9 km/h (3 Bft) W 269 ° 1 min 320 W/m² 1,9 °C 5,5 °C 16,1 km/h (3 Bft)
12.05.2020 11:15 30,1 °C 9,6 °C 36 % 61 % 1018,9 hPa 0,0 l/m² 11,2 km/h (2 Bft) SW 231 ° 2 min 287 W/m² 2,5 °C 6,5 °C 17,7 km/h (3 Bft)
12.05.2020 11:17 30,1 °C 9,4 °C 36 % 58 % 1018,8 hPa 0,0 l/m² 12,0 km/h (2 Bft) W-SW 244 ° 2 min 281 W/m² 1,6 °C 5,8 °C 16,1 km/h (3 Bft)
12.05.2020 11:19 30,2 °C 9,4 °C 36 % 60 % 1018,7 hPa 0,0 l/m² 10,5 km/h (2 Bft) W-SW 249 ° 2 min 285 W/m² 2,0 °C 6,6 °C 16,1 km/h (3 Bft)
12.05.2020 11:20 30,2 °C 9,3 °C 36 % 60 % 1018,8 hPa 0,0 l/m² 8,5 km/h (2 Bft) W 265 ° 1 min 283 W/m² 1,9 °C 7,8 °C 12,9 km/h (3 Bft)
12.05.2020 11:21 30,2 °C 9,3 °C 36 % 61 % 1018,8 hPa 0,0 l/m² 10,3 km/h (2 Bft) SW 222 ° 1 min 281 W/m² 2,2 °C 6,6 °C 14,5 km/h (3 Bft)
12.05.2020 11:22 30,4 °C 9,4 °C 36 % 63 % 1018,7 hPa 0,0 l/m² 13,1 km/h (3 Bft) W-SW 240 ° 1 min 285 W/m² 2,7 °C 5,3 °C 17,7 km/h (3 Bft)
12.05.2020 11:23 30,4 °C 9,3 °C 36 % 61 % 1018,7 hPa 0,0 l/m² 12,0 km/h (2 Bft) SW 227 ° 1 min 292 W/m² 2,2 °C 5,7 °C 14,5 km/h (3 Bft)
12.05.2020 11:25 30,6 °C 9,2 °C 36 % 65 % 1018,6 hPa 0,0 l/m² 10,1 km/h (2 Bft) SW 228 ° 2 min 316 W/m² 3,0 °C 6,7 °C 14,5 km/h (3 Bft)
12.05.2020 11:27 30,7 °C 9,2 °C 36 % 66 % 1018,7 hPa 0,0 l/m² 9,4 km/h (2 Bft) W-SW 252 ° 2 min 329 W/m² 3,2 °C 7,1 °C 14,5 km/h (3 Bft)
12.05.2020 11:29 30,8 °C 9,3 °C 35 % 64 % 1018,6 hPa 0,0 l/m² 10,9 km/h (2 Bft) W-SW 245 ° 2 min 334 W/m² 2,8 °C 6,3 °C 14,5 km/h (3 Bft)
12.05.2020 11:30 30,8 °C 9,4 °C 35 % 62 % 1018,6 hPa 0,0 l/m² 11,2 km/h (2 Bft) W-SW 242 ° 1 min 339 W/m² 2,5 °C 6,2 °C 14,5 km/h (3 Bft)
12.05.2020 11:31 30,8 °C 9,4 °C 35 % 62 % 1018,6 hPa 0,0 l/m² 8,0 km/h (2 Bft) W-SW 246 ° 1 min 348 W/m² 2,5 °C 8,2 °C 11,3 km/h (2 Bft)
12.05.2020 11:32 30,9 °C 9,4 °C 35 % 62 % 1018,7 hPa 0,0 l/m² 8,9 km/h (2 Bft) W 259 ° 1 min 360 W/m² 2,5 °C 7,6 °C 12,9 km/h (3 Bft)
12.05.2020 11:33 30,9 °C 9,4 °C 35 % 62 % 1018,7 hPa 0,0 l/m² 11,1 km/h (2 Bft) W-SW 255 ° 1 min 297 W/m² 2,5 °C 6,3 °C 16,1 km/h (3 Bft)
12.05.2020 11:35 31,0 °C 9,4 °C 35 % 62 % 1018,7 hPa 0,0 l/m² 6,4 km/h (2 Bft) W 281 ° 2 min 257 W/m² 2,5 °C 9,4 °C 9,7 km/h (2 Bft)
12.05.2020 11:37 31,1 °C 9,4 °C 35 % 64 % 1018,7 hPa 0,0 l/m² 8,1 km/h (2 Bft) SW 235 ° 2 min 234 W/m² 2,9 °C 8,2 °C 12,9 km/h (3 Bft)
12.05.2020 11:39 31,1 °C 9,3 °C 35 % 62 % 1018,8 hPa 0,0 l/m² 13,4 km/h (3 Bft) W-SW 252 ° 2 min 204 W/m² 2,4 °C 5,0 °C 19,3 km/h (3 Bft)
12.05.2020 11:40 31,1 °C 9,2 °C 35 % 62 % 1018,7 hPa 0,0 l/m² 12,2 km/h (2 Bft) W 263 ° 1 min 192 W/m² 2,3 °C 5,5 °C 16,1 km/h (3 Bft)
12.05.2020 11:41 31,1 °C 9,2 °C 35 % 61 % 1018,7 hPa 0,0 l/m² 11,1 km/h (2 Bft) W 271 ° 1 min 179 W/m² 2,1 °C 6,1 °C 16,1 km/h (3 Bft)
12.05.2020 11:42 31,2 °C 9,1 °C 35 % 61 % 1018,6 hPa 0,0 l/m² 13,3 km/h (3 Bft) W-SW 251 ° 1 min 165 W/m² 2,0 °C 4,8 °C 16,1 km/h (3 Bft)
12.05.2020 11:43 31,2 °C 9,0 °C 35 % 60 % 1018,7 hPa 0,0 l/m² 10,5 km/h (2 Bft) W 273 ° 1 min 151 W/m² 1,7 °C 6,2 °C 14,5 km/h (3 Bft)
12.05.2020 11:45 31,2 °C 8,9 °C 35 % 62 % 1018,7 hPa 0,0 l/m² 7,4 km/h (2 Bft) W-SW 243 ° 2 min 127 W/m² 2,0 °C 8,1 °C 12,9 km/h (3 Bft)
12.05.2020 11:47 31,2 °C 8,8 °C 35 % 65 % 1018,7 hPa 0,0 l/m² 6,0 km/h (2 Bft) W 264 ° 2 min 121 W/m² 2,6 °C 8,8 °C 9,7 km/h (2 Bft)
12.05.2020 11:49 31,2 °C 8,7 °C 35 % 65 % 1018,7 hPa 0,0 l/m² 7,7 km/h (2 Bft) W 271 ° 2 min 125 W/m² 2,5 °C 7,7 °C 14,5 km/h (3 Bft)
12.05.2020 11:50 31,2 °C 8,7 °C 35 % 65 % 1018,7 hPa 0,0 l/m² 8,9 km/h (2 Bft) W 268 ° 1 min 134 W/m² 2,5 °C 6,9 °C 12,9 km/h (3 Bft)
12.05.2020 11:51 31,2 °C 8,7 °C 35 % 65 % 1018,7 hPa 0,0 l/m² 11,3 km/h (2 Bft) W-SW 251 ° 1 min 142 W/m² 2,5 °C 5,4 °C 14,5 km/h (3 Bft)
12.05.2020 11:52 31,2 °C 8,6 °C 35 % 64 % 1018,7 hPa 0,0 l/m² 15,4 km/h (3 Bft) W-SW 246 ° 1 min 155 W/m² 2,2 °C 3,3 °C 19,3 km/h (3 Bft)
12.05.2020 11:53 31,2 °C 8,6 °C 35 % 61 % 1018,7 hPa 0,0 l/m² 13,6 km/h (3 Bft) W-SW 252 ° 1 min 167 W/m² 1,5 °C 4,1 °C 16,1 km/h (3 Bft)
12.05.2020 11:55 31,2 °C 8,6 °C 35 % 62 % 1018,7 hPa 0,0 l/m² 12,3 km/h (2 Bft) W-SW 256 ° 2 min 197 W/m² 1,7 °C 4,7 °C 16,1 km/h (3 Bft)
12.05.2020 11:57 31,2 °C 8,6 °C 35 % 63 % 1018,7 hPa 0,0 l/m² 10,8 km/h (2 Bft) W-SW 238 ° 2 min 236 W/m² 2,0 °C 5,6 °C 17,7 km/h (3 Bft)
12.05.2020 11:59 31,2 °C 8,7 °C 35 % 64 % 1018,6 hPa 0,0 l/m² 7,9 km/h (2 Bft) W 264 ° 2 min 267 W/m² 2,3 °C 7,6 °C 16,1 km/h (3 Bft)
12.05.2020 12:00 31,2 °C 8,7 °C 35 % 63 % 1018,7 hPa 0,0 l/m² 12,7 km/h (3 Bft) SW 235 ° 1 min 260 W/m² 2,1 °C 4,7 °C 16,1 km/h (3 Bft)
12.05.2020 12:01 31,2 °C 8,8 °C 35 % 63 % 1018,7 hPa 0,0 l/m² 11,3 km/h (2 Bft) W-SW 257 ° 1 min 269 W/m² 2,2 °C 5,5 °C 14,5 km/h (3 Bft)
12.05.2020 12:02 31,2 °C 8,8 °C 35 % 61 % 1018,6 hPa 0,0 l/m² 13,6 km/h (3 Bft) W-SW 239 ° 1 min 283 W/m² 1,7 °C 4,3 °C 16,1 km/h (3 Bft)
12.05.2020 12:03 31,1 °C 8,8 °C 35 % 61 % 1018,7 hPa 0,0 l/m² 12,5 km/h (2 Bft) W-SW 244 ° 1 min 285 W/m² 1,7 °C 4,9 °C 16,1 km/h (3 Bft)
12.05.2020 12:05 31,2 °C 8,9 °C 35 % 60 % 1018,6 hPa 0,0 l/m² 13,8 km/h (3 Bft) W-SW 240 ° 2 min 260 W/m² 1,6 °C 4,3 °C 17,7 km/h (3 Bft)
12.05.2020 12:07 31,1 °C 8,9 °C 34 % 58 % 1018,7 hPa 0,0 l/m² 13,9 km/h (3 Bft) W-SW 251 ° 2 min 206 W/m² 1,1 °C 4,3 °C 22,5 km/h (4 Bft)
12.05.2020 12:09 31,0 °C 8,9 °C 34 % 58 % 1018,6 hPa 0,0 l/m² 9,6 km/h (2 Bft) W 261 ° 2 min 178 W/m² 1,1 °C 6,6 °C 14,5 km/h (3 Bft)
12.05.2020 12:10 30,8 °C 8,9 °C 34 % 60 % 1018,6 hPa 0,0 l/m² 5,7 km/h (2 Bft) W-SW 240 ° 1 min 165 W/m² 1,6 °C 8,9 °C 8,0 km/h (2 Bft)
12.05.2020 12:11 30,8 °C 8,8 °C 35 % 60 % 1018,6 hPa 0,0 l/m² 6,1 km/h (2 Bft) W 260 ° 1 min 156 W/m² 1,5 °C 8,8 °C 9,7 km/h (2 Bft)
12.05.2020 12:12 30,7 °C 8,9 °C 35 % 62 % 1018,6 hPa 0,0 l/m² 7,0 km/h (2 Bft) W-SW 254 ° 1 min 149 W/m² 2,0 °C 8,4 °C 9,7 km/h (2 Bft)
12.05.2020 12:13 30,6 °C 8,8 °C 35 % 60 % 1018,5 hPa 0,0 l/m² 6,4 km/h (2 Bft) W-SW 255 ° 1 min 137 W/m² 1,5 °C 8,8 °C 11,3 km/h (2 Bft)
12.05.2020 12:15 30,5 °C 8,8 °C 35 % 60 % 1018,6 hPa 0,0 l/m² 8,7 km/h (2 Bft) W-NW 293 ° 2 min 128 W/m² 1,5 °C 7,1 °C 12,9 km/h (3 Bft)
12.05.2020 12:17 30,3 °C 8,8 °C 35 % 58 % 1018,6 hPa 0,0 l/m² 8,4 km/h (2 Bft) W 267 ° 2 min 123 W/m² 1,0 °C 7,3 °C 14,5 km/h (3 Bft)
12.05.2020 12:19 30,2 °C 8,8 °C 36 % 57 % 1018,7 hPa 0,0 l/m² 11,1 km/h (2 Bft) W 265 ° 2 min 111 W/m² 0,8 °C 5,6 °C 14,5 km/h (3 Bft)
12.05.2020 12:21 29,9 °C 8,8 °C 36 % 60 % 1018,8 hPa 0,0 l/m² 9,4 km/h (2 Bft) W-SW 257 ° 2 min 105 W/m² 1,5 °C 6,6 °C 12,9 km/h (3 Bft)
12.05.2020 12:22 29,9 °C 8,8 °C 36 % 61 % 1018,8 hPa 0,0 l/m² 9,3 km/h (2 Bft) W 259 ° 1 min 104 W/m² 1,7 °C 6,7 °C 14,5 km/h (3 Bft)
12.05.2020 12:23 29,8 °C 8,8 °C 36 % 60 % 1018,7 hPa 0,0 l/m² 11,0 km/h (2 Bft) W-NW 284 ° 1 min 104 W/m² 1,5 °C 5,7 °C 16,1 km/h (3 Bft)
12.05.2020 12:25 29,7 °C 8,8 °C 36 % 61 % 1018,7 hPa 0,0 l/m² 14,8 km/h (3 Bft) W-NW 285 ° 2 min 104 W/m² 1,7 °C 3,8 °C 19,3 km/h (3 Bft)
12.05.2020 12:27 29,6 °C 8,7 °C 36 % 62 % 1018,6 hPa 0,0 l/m² 14,8 km/h (3 Bft) W 275 ° 2 min 109 W/m² 1,8 °C 3,6 °C 20,9 km/h (4 Bft)
12.05.2020 12:29 29,4 °C 8,7 °C 37 % 62 % 1018,7 hPa 0,0 l/m² 14,4 km/h (3 Bft) W 280 ° 2 min 118 W/m² 1,8 °C 3,8 °C 19,3 km/h (3 Bft)
12.05.2020 12:31 29,3 °C 8,7 °C 37 % 62 % 1018,5 hPa 0,0 l/m² 14,8 km/h (3 Bft) W-NW 289 ° 2 min 137 W/m² 1,8 °C 3,6 °C 19,3 km/h (3 Bft)
12.05.2020 12:32 29,3 °C 8,6 °C 37 % 62 % 1018,6 hPa 0,0 l/m² 12,8 km/h (3 Bft) W 267 ° 1 min 144 W/m² 1,7 °C 4,5 °C 16,1 km/h (3 Bft)
12.05.2020 12:33 29,3 °C 8,6 °C 37 % 63 % 1018,6 hPa 0,0 l/m² 5,7 km/h (2 Bft) W 259 ° 1 min 149 W/m² 2,0 °C 8,6 °C 11,3 km/h (2 Bft)
12.05.2020 12:35 29,2 °C 8,7 °C 37 % 64 % 1018,8 hPa 0,0 l/m² 7,5 km/h (2 Bft) N-NW 327 ° 2 min 160 W/m² 2,3 °C 7,9 °C 16,1 km/h (3 Bft)
12.05.2020 12:37 29,1 °C 8,7 °C 37 % 64 % 1018,7 hPa 0,0 l/m² 8,7 km/h (2 Bft) W 281 ° 2 min 181 W/m² 2,3 °C 7,0 °C 16,1 km/h (3 Bft)
12.05.2020 12:39 29,1 °C 8,8 °C 37 % 65 % 1018,7 hPa 0,0 l/m² 5,1 km/h (1 Bft) NW 311 ° 2 min 213 W/m² 2,6 °C 8,8 °C 14,5 km/h (3 Bft)
12.05.2020 12:41 29,0 °C 8,8 °C 37 % 64 % 1018,6 hPa 0,0 l/m² 8,0 km/h (2 Bft) NW 321 ° 2 min 258 W/m² 2,4 °C 7,6 °C 14,5 km/h (3 Bft)
12.05.2020 12:42 28,9 °C 8,8 °C 37 % 63 % 1018,6 hPa 0,0 l/m² 8,5 km/h (2 Bft) NW 321 ° 1 min 308 W/m² 2,2 °C 7,2 °C 14,5 km/h (3 Bft)
12.05.2020 12:43 28,9 °C 8,9 °C 37 % 62 % 1018,6 hPa 0,0 l/m² 7,9 km/h (2 Bft) W 281 ° 1 min 330 W/m² 2,0 °C 7,8 °C 12,9 km/h (3 Bft)
12.05.2020 12:45 28,9 °C 9,1 °C 37 % 65 % 1018,6 hPa 0,0 l/m² 5,7 km/h (2 Bft) NW 317 ° 2 min 366 W/m² 2,9 °C 9,1 °C 9,7 km/h (2 Bft)
12.05.2020 12:46 28,9 °C 9,2 °C 38 % 64 % 1018,8 hPa 0,0 l/m² 5,9 km/h (2 Bft) W-NW 289 ° 1 min 378 W/m² 2,8 °C 9,2 °C 9,7 km/h (2 Bft)
12.05.2020 12:48 28,9 °C 9,2 °C 38 % 63 % 1018,6 hPa 0,0 l/m² 5,7 km/h (2 Bft) NW 312 ° 2 min 383 W/m² 2,5 °C 9,2 °C 11,3 km/h (2 Bft)
12.05.2020 12:50 28,9 °C 9,4 °C 38 % 64 % 1018,6 hPa 0,0 l/m² 6,9 km/h (2 Bft) NW 313 ° 2 min 385 W/m² 2,9 °C 9,0 °C 12,9 km/h (3 Bft)
12.05.2020 12:52 28,9 °C 9,4 °C 38 % 62 % 1018,6 hPa 0,0 l/m² 6,9 km/h (2 Bft) W-NW 293 ° 2 min 387 W/m² 2,5 °C 9,0 °C 12,9 km/h (3 Bft)
12.05.2020 12:53 28,9 °C 9,5 °C 38 % 62 % 1018,6 hPa 0,0 l/m² 8,9 km/h (2 Bft) W-NW 296 ° 1 min 388 W/m² 2,6 °C 7,7 °C 12,9 km/h (3 Bft)
12.05.2020 12:55 28,9 °C 9,5 °C 38 % 60 % 1018,6 hPa 0,0 l/m² 10,7 km/h (2 Bft) W-NW 288 ° 2 min 387 W/m² 2,1 °C 6,6 °C 14,5 km/h (3 Bft)
12.05.2020 12:57 28,9 °C 9,4 °C 38 % 60 % 1018,6 hPa 0,0 l/m² 7,7 km/h (2 Bft) W-NW 285 ° 2 min 378 W/m² 2,0 °C 8,4 °C 11,3 km/h (2 Bft)
12.05.2020 12:59 29,0 °C 9,5 °C 38 % 61 % 1018,5 hPa 0,0 l/m² 5,7 km/h (2 Bft) NW 316 ° 2 min 369 W/m² 2,4 °C 9,5 °C 14,5 km/h (3 Bft)
12.05.2020 13:01 29,0 °C 9,5 °C 38 % 59 % 1018,6 hPa 0,0 l/m² 6,2 km/h (2 Bft) N-NW 333 ° 2 min 341 W/m² 1,9 °C 9,5 °C 11,3 km/h (2 Bft)
12.05.2020 13:02 29,0 °C 9,5 °C 38 % 59 % 1018,6 hPa 0,0 l/m² 6,4 km/h (2 Bft) W-NW 303 ° 1 min 329 W/m² 1,9 °C 9,5 °C 8,0 km/h (2 Bft)
12.05.2020 13:03 29,0 °C 9,5 °C 38 % 59 % 1018,6 hPa 0,0 l/m² 3,3 km/h (1 Bft) W-NW 303 ° 1 min 320 W/m² 1,9 °C 9,5 °C 4,8 km/h (1 Bft)
12.05.2020 13:05 29,1 °C 9,5 °C 38 % 60 % 1018,6 hPa 0,0 l/m² 10,3 km/h (2 Bft) W 275 ° 2 min 308 W/m² 2,1 °C 6,9 °C 17,7 km/h (3 Bft)
12.05.2020 13:07 29,1 °C 9,3 °C 38 % 59 % 1018,6 hPa 0,0 l/m² 9,0 km/h (2 Bft) W 281 ° 2 min 306 W/m² 1,7 °C 7,4 °C 14,5 km/h (3 Bft)
12.05.2020 13:09 29,1 °C 9,3 °C 38 % 59 % 1018,6 hPa 0,0 l/m² 10,4 km/h (2 Bft) W-NW 286 ° 2 min 302 W/m² 1,7 °C 6,6 °C 16,1 km/h (3 Bft)
12.05.2020 13:11 29,1 °C 9,4 °C 38 % 62 % 1018,6 hPa 0,0 l/m² 7,8 km/h (2 Bft) NW 304 ° 2 min 295 W/m² 2,5 °C 8,4 °C 12,9 km/h (3 Bft)
12.05.2020 13:12 29,1 °C 9,6 °C 38 % 61 % 1018,6 hPa 0,0 l/m² 10,2 km/h (2 Bft) W 276 ° 1 min 285 W/m² 2,5 °C 7,0 °C 16,1 km/h (3 Bft)
12.05.2020 13:13 29,1 °C 9,6 °C 38 % 61 % 1018,6 hPa 0,0 l/m² 10,0 km/h (2 Bft) N-NW 329 ° 1 min 278 W/m² 2,5 °C 7,2 °C 16,1 km/h (3 Bft)
12.05.2020 13:15 29,2 °C 9,6 °C 37 % 62 % 1018,6 hPa 0,0 l/m² 8,2 km/h (2 Bft) W-NW 284 ° 2 min 265 W/m² 2,7 °C 8,3 °C 16,1 km/h (3 Bft)
12.05.2020 13:17 29,1 °C 9,6 °C 35 % 61 % 1018,7 hPa 0,0 l/m² 9,3 km/h (2 Bft) W-NW 289 ° 2 min 250 W/m² 2,5 °C 7,6 °C 16,1 km/h (3 Bft)
12.05.2020 13:19 29,1 °C 9,4 °C 36 % 60 % 1018,7 hPa 0,0 l/m² 7,2 km/h (2 Bft) NW 313 ° 2 min 225 W/m² 2,0 °C 8,8 °C 14,5 km/h (3 Bft)
12.05.2020 13:21 29,1 °C 9,4 °C 36 % 62 % 1018,7 hPa 0,0 l/m² 4,3 km/h (1 Bft) W-NW 302 ° 2 min 206 W/m² 2,5 °C 9,4 °C 6,4 km/h (2 Bft)
12.05.2020 13:22 29,1 °C 9,5 °C 36 % 61 % 1018,6 hPa 0,0 l/m² 5,2 km/h (1 Bft) NW 315 ° 1 min 195 W/m² 2,4 °C 9,5 °C 8,0 km/h (2 Bft)
12.05.2020 13:23 29,1 °C 9,4 °C 36 % 61 % 1018,6 hPa 0,0 l/m² 11,0 km/h (2 Bft) W 273 ° 1 min 186 W/m² 2,3 °C 6,4 °C 16,1 km/h (3 Bft)
12.05.2020 13:25 29,1 °C 9,3 °C 37 % 59 % 1018,7 hPa 0,0 l/m² 17,0 km/h (3 Bft) W 277 ° 2 min 167 W/m² 1,7 °C 3,5 °C 22,5 km/h (4 Bft)
12.05.2020 13:27 29,1 °C 9,2 °C 37 % 59 % 1018,7 hPa 0,0 l/m² 17,3 km/h (3 Bft) W 279 ° 2 min 160 W/m² 1,6 °C 3,2 °C 20,9 km/h (4 Bft)
12.05.2020 13:29 29,1 °C 9,2 °C 37 % 60 % 1018,7 hPa 0,0 l/m² 13,2 km/h (3 Bft) W 261 ° 2 min 158 W/m² 1,8 °C 5,0 °C 17,7 km/h (3 Bft)
12.05.2020 13:31 29,1 °C 9,1 °C 37 % 60 % 1018,7 hPa 0,0 l/m² 10,5 km/h (2 Bft) W-NW 283 ° 2 min 160 W/m² 1,8 °C 6,3 °C 16,1 km/h (3 Bft)
12.05.2020 13:32 29,1 °C 9,1 °C 37 % 61 % 1018,7 hPa 0,0 l/m² 14,3 km/h (3 Bft) W 275 ° 1 min 160 W/m² 2,0 °C 4,4 °C 22,5 km/h (4 Bft)
12.05.2020 13:33 29,1 °C 9,1 °C 37 % 61 % 1018,7 hPa 0,0 l/m² 15,3 km/h (3 Bft) W-NW 285 ° 1 min 162 W/m² 2,0 °C 3,9 °C 19,3 km/h (3 Bft)
12.05.2020 13:35 29,1 °C 9,1 °C 37 % 62 % 1018,7 hPa 0,0 l/m² 13,5 km/h (3 Bft) W-NW 300 ° 2 min 163 W/m² 2,2 °C 4,7 °C 16,1 km/h (3 Bft)
12.05.2020 13:37 29,1 °C 9,1 °C 37 % 61 % 1018,8 hPa 0,0 l/m² 16,5 km/h (3 Bft) W 276 ° 2 min 171 W/m² 2,0 °C 3,4 °C 22,5 km/h (4 Bft)
12.05.2020 13:39 29,1 °C 9,1 °C 37 % 63 % 1018,6 hPa 0,0 l/m² 8,6 km/h (2 Bft) W 273 ° 2 min 179 W/m² 2,4 °C 7,5 °C 16,1 km/h (3 Bft)
12.05.2020 13:41 29,1 °C 9,1 °C 37 % 63 % 1018,7 hPa 0,0 l/m² 12,7 km/h (3 Bft) W 278 ° 2 min 192 W/m² 2,4 °C 5,1 °C 19,3 km/h (3 Bft)
12.05.2020 13:42 29,1 °C 9,1 °C 37 % 61 % 1018,7 hPa 0,0 l/m² 13,7 km/h (3 Bft) W 270 ° 1 min 197 W/m² 2,0 °C 4,6 °C 16,1 km/h (3 Bft)
12.05.2020 13:43 29,1 °C 9,1 °C 37 % 63 % 1018,7 hPa 0,0 l/m² 10,9 km/h (2 Bft) W-NW 302 ° 1 min 202 W/m² 2,4 °C 6,1 °C 12,9 km/h (3 Bft)
12.05.2020 13:45 29,1 °C 9,1 °C 37 % 61 % 1018,7 hPa 0,0 l/m² 13,9 km/h (3 Bft) W 281 ° 2 min 218 W/m² 2,0 °C 4,5 °C 17,7 km/h (3 Bft)
12.05.2020 13:47 29,2 °C 9,1 °C 37 % 60 % 1018,6 hPa 0,0 l/m² 12,5 km/h (2 Bft) W 272 ° 2 min 223 W/m² 1,8 °C 5,2 °C 16,1 km/h (3 Bft)
12.05.2020 13:49 29,1 °C 9,1 °C 37 % 60 % 1018,7 hPa 0,0 l/m² 11,9 km/h (2 Bft) W-NW 288 ° 2 min 214 W/m² 1,8 °C 5,5 °C 16,1 km/h (3 Bft)
12.05.2020 13:51 29,1 °C 9,1 °C 37 % 61 % 1018,6 hPa 0,0 l/m² 13,5 km/h (3 Bft) W 269 ° 2 min 204 W/m² 2,0 °C 4,7 °C 17,7 km/h (3 Bft)
12.05.2020 13:52 29,1 °C 9,1 °C 38 % 59 % 1018,5 hPa 0,0 l/m² 12,9 km/h (3 Bft) W 269 ° 1 min 204 W/m² 1,5 °C 5,0 °C 16,1 km/h (3 Bft)
12.05.2020 13:53 29,1 °C 9,1 °C 38 % 58 % 1018,5 hPa 0,0 l/m² 12,1 km/h (2 Bft) W-SW 252 ° 1 min 209 W/m² 1,3 °C 5,4 °C 14,5 km/h (3 Bft)
12.05.2020 13:55 29,1 °C 9,1 °C 38 % 61 % 1018,6 hPa 0,0 l/m² 12,0 km/h (2 Bft) W 279 ° 2 min 223 W/m² 2,0 °C 5,5 °C 14,5 km/h (3 Bft)
12.05.2020 13:57 29,2 °C 9,1 °C 38 % 59 % 1018,5 hPa 0,0 l/m² 10,4 km/h (2 Bft) W 275 ° 2 min 243 W/m² 1,5 °C 6,4 °C 16,1 km/h (3 Bft)
12.05.2020 13:59 29,2 °C 9,2 °C 38 % 61 % 1018,5 hPa 0,0 l/m² 8,7 km/h (2 Bft) W 265 ° 2 min 272 W/m² 2,1 °C 7,5 °C 12,9 km/h (3 Bft)
12.05.2020 14:01 29,3 °C 9,3 °C 38 % 59 % 1018,3 hPa 0,0 l/m² 8,6 km/h (2 Bft) W 274 ° 2 min 287 W/m² 1,7 °C 7,7 °C 12,9 km/h (3 Bft)
12.05.2020 14:02 29,4 °C 9,4 °C 38 % 62 % 1018,4 hPa 0,0 l/m² 9,7 km/h (2 Bft) W 275 ° 1 min 294 W/m² 2,5 °C 7,1 °C 12,9 km/h (3 Bft)
12.05.2020 14:03 29,4 °C 9,4 °C 38 % 61 % 1018,4 hPa 0,0 l/m² 14,7 km/h (3 Bft) W 272 ° 1 min 301 W/m² 2,3 °C 4,5 °C 19,3 km/h (3 Bft)
12.05.2020 14:05 29,5 °C 9,6 °C 38 % 60 % 1018,4 hPa 0,0 l/m² 8,0 km/h (2 Bft) W 279 ° 2 min 318 W/m² 2,2 °C 8,4 °C 12,9 km/h (3 Bft)
12.05.2020 14:07 29,6 °C 9,7 °C 37 % 60 % 1018,4 hPa 0,0 l/m² 11,9 km/h (2 Bft) W-NW 286 ° 2 min 330 W/m² 2,3 °C 6,2 °C 16,1 km/h (3 Bft)
12.05.2020 14:09 29,6 °C 9,7 °C 37 % 55 % 1018,5 hPa 0,0 l/m² 13,4 km/h (3 Bft) W-NW 292 ° 2 min 350 W/m² 1,1 °C 5,5 °C 16,1 km/h (3 Bft)
12.05.2020 14:11 29,7 °C 9,7 °C 37 % 59 % 1018,5 hPa 0,0 l/m² 10,3 km/h (2 Bft) W-NW 283 ° 2 min 348 W/m² 2,1 °C 7,1 °C 14,5 km/h (3 Bft)
12.05.2020 14:12 29,8 °C 9,7 °C 37 % 59 % 1018,6 hPa 0,0 l/m² 10,0 km/h (2 Bft) W-SW 242 ° 1 min 330 W/m² 2,1 °C 7,3 °C 14,5 km/h (3 Bft)
12.05.2020 14:13 29,8 °C 9,8 °C 37 % 59 % 1018,6 hPa 0,0 l/m² 11,8 km/h (2 Bft) W 279 ° 1 min 309 W/m² 2,2 °C 6,4 °C 16,1 km/h (3 Bft)
12.05.2020 14:15 29,8 °C 9,9 °C 37 % 58 % 1018,5 hPa 0,0 l/m² 8,7 km/h (2 Bft) W-NW 292 ° 2 min 264 W/m² 2,0 °C 8,3 °C 17,7 km/h (3 Bft)
12.05.2020 14:17 29,9 °C 9,8 °C 37 % 55 % 1018,6 hPa 0,0 l/m² 4,9 km/h (1 Bft) NW 312 ° 2 min 230 W/m² 1,2 °C 9,8 °C 11,3 km/h (2 Bft)
12.05.2020 14:19 29,9 °C 9,8 °C 37 % 57 % 1018,5 hPa 0,0 l/m² 8,5 km/h (2 Bft) W 280 ° 2 min 225 W/m² 1,7 °C 8,3 °C 14,5 km/h (3 Bft)
12.05.2020 14:21 30,0 °C 9,8 °C 37 % 56 % 1018,6 hPa 0,0 l/m² 10,6 km/h (2 Bft) W-NW 292 ° 2 min 214 W/m² 1,4 °C 7,0 °C 19,3 km/h (3 Bft)
12.05.2020 14:22 30,0 °C 9,8 °C 37 % 55 % 1018,6 hPa 0,0 l/m² 16,7 km/h (3 Bft) W-SW 255 ° 1 min 199 W/m² 1,2 °C 4,2 °C 20,9 km/h (4 Bft)
12.05.2020 14:23 30,0 °C 9,7 °C 37 % 56 % 1018,6 hPa 0,0 l/m² 18,8 km/h (3 Bft) W 263 ° 1 min 190 W/m² 1,4 °C 3,3 °C 22,5 km/h (4 Bft)
12.05.2020 14:25 30,1 °C 9,6 °C 37 % 56 % 1018,6 hPa 0,0 l/m² 17,6 km/h (3 Bft) W 261 ° 2 min 176 W/m² 1,3 °C 3,6 °C 25,7 km/h (4 Bft)
12.05.2020 14:27 30,1 °C 9,4 °C 37 % 56 % 1018,7 hPa 0,0 l/m² 16,6 km/h (3 Bft) W 266 ° 2 min 167 W/m² 1,1 °C 3,7 °C 20,9 km/h (4 Bft)
12.05.2020 14:29 30,1 °C 9,4 °C 37 % 56 % 1018,6 hPa 0,0 l/m² 14,1 km/h (3 Bft) W 269 ° 2 min 169 W/m² 1,1 °C 4,8 °C 20,9 km/h (4 Bft)
12.05.2020 14:31 30,1 °C 9,2 °C 37 % 60 % 1018,5 hPa 0,0 l/m² 13,6 km/h (3 Bft) W-SW 244 ° 2 min 179 W/m² 1,8 °C 4,8 °C 19,3 km/h (3 Bft)
12.05.2020 14:32 30,1 °C 9,2 °C 37 % 61 % 1018,5 hPa 0,0 l/m² 13,3 km/h (3 Bft) W-SW 247 ° 1 min 186 W/m² 2,1 °C 4,9 °C 16,1 km/h (3 Bft)
12.05.2020 14:33 30,1 °C 9,2 °C 37 % 60 % 1018,5 hPa 0,0 l/m² 12,1 km/h (2 Bft) W-SW 240 ° 1 min 195 W/m² 1,8 °C 5,5 °C 14,5 km/h (3 Bft)
12.05.2020 14:35 30,0 °C 9,2 °C 37 % 61 % 1018,6 hPa 0,0 l/m² 14,2 km/h (3 Bft) W-SW 252 ° 2 min 223 W/m² 2,1 °C 4,5 °C 19,3 km/h (3 Bft)
12.05.2020 14:37 29,9 °C 9,2 °C 36 % 60 % 1018,5 hPa 0,0 l/m² 13,5 km/h (3 Bft) W-SW 249 ° 2 min 251 W/m² 1,8 °C 4,8 °C 16,1 km/h (3 Bft)
12.05.2020 14:39 29,9 °C 9,3 °C 37 % 62 % 1018,5 hPa 0,0 l/m² 11,7 km/h (2 Bft) W-SW 255 ° 2 min 287 W/m² 2,4 °C 5,9 °C 16,1 km/h (3 Bft)
12.05.2020 14:41 29,8 °C 9,4 °C 37 % 62 % 1018,4 hPa 0,0 l/m² 11,1 km/h (2 Bft) W-SW 242 ° 2 min 338 W/m² 2,5 °C 6,3 °C 17,7 km/h (3 Bft)
12.05.2020 14:42 29,8 °C 9,5 °C 37 % 61 % 1018,5 hPa 0,0 l/m² 15,7 km/h (3 Bft) SW 234 ° 1 min 352 W/m² 2,4 °C 4,2 °C 20,9 km/h (4 Bft)
12.05.2020 14:43 29,8 °C 9,6 °C 37 % 58 % 1018,5 hPa 0,0 l/m² 16,3 km/h (3 Bft) W-SW 248 ° 1 min 360 W/m² 1,8 °C 4,1 °C 19,3 km/h (3 Bft)
12.05.2020 14:45 29,8 °C 9,7 °C 37 % 60 % 1018,4 hPa 0,0 l/m² 12,2 km/h (2 Bft) W-SW 252 ° 2 min 373 W/m² 2,3 °C 6,1 °C 17,7 km/h (3 Bft)
12.05.2020 14:47 29,8 °C 9,8 °C 37 % 58 % 1018,5 hPa 0,0 l/m² 9,7 km/h (2 Bft) W 259 ° 2 min 378 W/m² 1,9 °C 7,6 °C 12,9 km/h (3 Bft)
12.05.2020 14:49 29,8 °C 9,9 °C 37 % 54 % 1018,4 hPa 0,0 l/m² 15,5 km/h (3 Bft) W 274 ° 2 min 383 W/m² 1,0 °C 4,8 °C 20,9 km/h (4 Bft)
12.05.2020 14:51 29,8 °C 9,9 °C 37 % 57 % 1018,3 hPa 0,0 l/m² 12,0 km/h (2 Bft) W 268 ° 2 min 380 W/m² 1,8 °C 6,4 °C 16,1 km/h (3 Bft)
12.05.2020 14:52 29,8 °C 9,9 °C 37 % 56 % 1018,4 hPa 0,0 l/m² 11,2 km/h (2 Bft) W 274 ° 1 min 373 W/m² 1,5 °C 6,8 °C 16,1 km/h (3 Bft)
12.05.2020 14:53 29,8 °C 9,9 °C 37 % 57 % 1018,4 hPa 0,0 l/m² 12,9 km/h (3 Bft) W 265 ° 1 min 366 W/m² 1,8 °C 6,0 °C 19,3 km/h (3 Bft)
12.05.2020 14:55 29,8 °C 10,1 °C 37 % 56 % 1018,4 hPa 0,0 l/m² 13,3 km/h (3 Bft) W 268 ° 2 min 359 W/m² 1,7 °C 6,0 °C 24,1 km/h (4 Bft)
12.05.2020 14:57 29,8 °C 9,9 °C 37 % 56 % 1018,4 hPa 0,0 l/m² 14,6 km/h (3 Bft) W 275 ° 2 min 360 W/m² 1,5 °C 5,2 °C 20,9 km/h (4 Bft)
12.05.2020 14:59 29,8 °C 10,0 °C 38 % 58 % 1018,4 hPa 0,0 l/m² 14,7 km/h (3 Bft) W-NW 286 ° 2 min 369 W/m² 2,1 °C 5,3 °C 20,9 km/h (4 Bft)
12.05.2020 15:01 29,8 °C 9,9 °C 38 % 55 % 1018,3 hPa 0,0 l/m² 16,1 km/h (3 Bft) W 269 ° 2 min 376 W/m² 1,3 °C 4,6 °C 20,9 km/h (4 Bft)
12.05.2020 15:02 29,8 °C 9,9 °C 38 % 54 % 1018,3 hPa 0,0 l/m² 12,9 km/h (3 Bft) W 271 ° 1 min 380 W/m² 1,0 °C 6,0 °C 16,1 km/h (3 Bft)
12.05.2020 15:03 29,8 °C 9,9 °C 38 % 57 % 1018,3 hPa 0,0 l/m² 12,9 km/h (3 Bft) W 265 ° 1 min 376 W/m² 1,8 °C 6,0 °C 16,1 km/h (3 Bft)
12.05.2020 15:05 29,7 °C 9,8 °C 38 % 53 % 1018,4 hPa 0,0 l/m² 16,7 km/h (3 Bft) W 273 ° 2 min 373 W/m² 0,7 °C 4,2 °C 20,9 km/h (4 Bft)
12.05.2020 15:07 29,7 °C 9,8 °C 38 % 54 % 1018,3 hPa 0,0 l/m² 15,0 km/h (3 Bft) W-SW 252 ° 2 min 371 W/m² 0,9 °C 4,9 °C 20,9 km/h (4 Bft)
12.05.2020 15:09 29,7 °C 9,8 °C 38 % 54 % 1018,3 hPa 0,0 l/m² 12,9 km/h (3 Bft) W 271 ° 2 min 376 W/m² 0,9 °C 5,8 °C 19,3 km/h (3 Bft)
12.05.2020 15:11 29,7 °C 9,8 °C 38 % 56 % 1018,4 hPa 0,0 l/m² 11,6 km/h (2 Bft) W 265 ° 2 min 376 W/m² 1,4 °C 6,5 °C 16,1 km/h (3 Bft)
12.05.2020 15:12 29,7 °C 9,9 °C 38 % 56 % 1018,3 hPa 0,0 l/m² 15,9 km/h (3 Bft) W 270 ° 1 min 381 W/m² 1,5 °C 4,6 °C 20,9 km/h (4 Bft)
12.05.2020 15:13 29,7 °C 9,9 °C 38 % 56 % 1018,3 hPa 0,0 l/m² 17,9 km/h (3 Bft) W-SW 254 ° 1 min 387 W/m² 1,5 °C 3,9 °C 20,9 km/h (4 Bft)
12.05.2020 15:15 29,7 °C 10,0 °C 38 % 57 % 1018,3 hPa 0,0 l/m² 13,6 km/h (3 Bft) NW 304 ° 2 min 408 W/m² 1,9 °C 5,7 °C 17,7 km/h (3 Bft)
12.05.2020 15:17 29,7 °C 10,1 °C 38 % 56 % 1018,3 hPa 0,0 l/m² 13,8 km/h (3 Bft) W 261 ° 2 min 418 W/m² 1,7 °C 5,8 °C 17,7 km/h (3 Bft)
12.05.2020 15:19 29,7 °C 10,2 °C 38 % 57 % 1018,3 hPa 0,0 l/m² 13,9 km/h (3 Bft) W-SW 256 ° 2 min 420 W/m² 2,1 °C 5,8 °C 19,3 km/h (3 Bft)
12.05.2020 15:21 29,6 °C 10,2 °C 38 % 56 % 1018,3 hPa 0,0 l/m² 14,6 km/h (3 Bft) W 272 ° 2 min 388 W/m² 1,8 °C 5,5 °C 24,1 km/h (4 Bft)
12.05.2020 15:22 29,6 °C 10,2 °C 38 % 55 % 1018,3 hPa 0,0 l/m² 13,6 km/h (3 Bft) W 265 ° 1 min 373 W/m² 1,6 °C 6,0 °C 17,7 km/h (3 Bft)
12.05.2020 15:23 29,6 °C 10,1 °C 38 % 53 % 1018,3 hPa 0,0 l/m² 13,6 km/h (3 Bft) W 260 ° 1 min 357 W/m² 1,0 °C 5,9 °C 16,1 km/h (3 Bft)
12.05.2020 15:25 29,6 °C 10,1 °C 38 % 54 % 1018,3 hPa 0,0 l/m² 16,4 km/h (3 Bft) W 273 ° 2 min 334 W/m² 1,2 °C 4,7 °C 22,5 km/h (4 Bft)
12.05.2020 15:27 29,6 °C 10,1 °C 38 % 55 % 1018,3 hPa 0,0 l/m² 14,8 km/h (3 Bft) W 263 ° 2 min 311 W/m² 1,5 °C 5,3 °C 19,3 km/h (3 Bft)
12.05.2020 15:29 29,5 °C 10,0 °C 38 % 53 % 1018,3 hPa 0,0 l/m² 12,4 km/h (2 Bft) W 272 ° 2 min 301 W/m² 0,9 °C 6,3 °C 17,7 km/h (3 Bft)
12.05.2020 15:31 29,5 °C 10,0 °C 38 % 54 % 1018,2 hPa 0,0 l/m² 14,4 km/h (3 Bft) W-SW 241 ° 2 min 297 W/m² 1,1 °C 5,4 °C 19,3 km/h (3 Bft)
12.05.2020 15:32 29,4 °C 9,9 °C 38 % 55 % 1018,2 hPa 0,0 l/m² 16,2 km/h (3 Bft) W 260 ° 1 min 297 W/m² 1,3 °C 4,5 °C 19,3 km/h (3 Bft)
12.05.2020 15:33 29,4 °C 9,9 °C 38 % 55 % 1018,2 hPa 0,0 l/m² 14,0 km/h (3 Bft) W 269 ° 1 min 299 W/m² 1,3 °C 5,4 °C 17,7 km/h (3 Bft)
12.05.2020 15:35 29,4 °C 9,9 °C 38 % 54 % 1018,2 hPa 0,0 l/m² 16,9 km/h (3 Bft) W 261 ° 2 min 308 W/m² 1,0 °C 4,3 °C 22,5 km/h (4 Bft)
12.05.2020 15:37 29,4 °C 9,9 °C 38 % 54 % 1018,2 hPa 0,0 l/m² 16,5 km/h (3 Bft) W-SW 253 ° 2 min 320 W/m² 1,0 °C 4,4 °C 22,5 km/h (4 Bft)
12.05.2020 15:39 29,4 °C 9,9 °C 38 % 55 % 1018,2 hPa 0,0 l/m² 16,3 km/h (3 Bft) W 261 ° 2 min 357 W/m² 1,3 °C 4,5 °C 22,5 km/h (4 Bft)
12.05.2020 15:41 29,3 °C 9,9 °C 39 % 54 % 1018,0 hPa 0,0 l/m² 14,3 km/h (3 Bft) W 272 ° 2 min 373 W/m² 1,0 °C 5,3 °C 19,3 km/h (3 Bft)
12.05.2020 15:42 29,3 °C 10,0 °C 39 % 54 % 1018,0 hPa 0,0 l/m² 17,2 km/h (3 Bft) W 259 ° 1 min 371 W/m² 1,1 °C 4,3 °C 22,5 km/h (4 Bft)
12.05.2020 15:43 29,3 °C 10,0 °C 39 % 54 % 1018,0 hPa 0,0 l/m² 12,4 km/h (2 Bft) W-SW 257 ° 1 min 367 W/m² 1,1 °C 6,3 °C 14,5 km/h (3 Bft)
12.05.2020 15:45 29,3 °C 10,1 °C 39 % 55 % 1018,0 hPa 0,0 l/m² 13,1 km/h (3 Bft) W-SW 255 ° 2 min 338 W/m² 1,5 °C 6,1 °C 17,7 km/h (3 Bft)
12.05.2020 15:46 29,3 °C 10,1 °C 39 % 56 % 1018,0 hPa 0,0 l/m² 11,0 km/h (2 Bft) SW 223 ° 1 min 325 W/m² 1,7 °C 7,1 °C 16,1 km/h (3 Bft)
12.05.2020 15:47 29,3 °C 10,1 °C 39 % 58 % 1018,0 hPa 0,0 l/m² 11,5 km/h (2 Bft) W 269 ° 1 min 315 W/m² 2,2 °C 6,9 °C 16,1 km/h (3 Bft)
12.05.2020 15:49 29,3 °C 10,2 °C 39 % 56 % 1018,0 hPa 0,0 l/m² 12,2 km/h (2 Bft) W 273 ° 2 min 294 W/m² 1,8 °C 6,6 °C 19,3 km/h (3 Bft)
12.05.2020 15:51 29,2 °C 10,1 °C 39 % 54 % 1018,0 hPa 0,0 l/m² 11,5 km/h (2 Bft) W 278 ° 2 min 272 W/m² 1,2 °C 6,9 °C 17,7 km/h (3 Bft)
12.05.2020 15:52 29,2 °C 10,1 °C 39 % 54 % 1017,9 hPa 0,0 l/m² 15,4 km/h (3 Bft) W 271 ° 1 min 267 W/m² 1,2 °C 5,1 °C 17,7 km/h (3 Bft)
12.05.2020 15:53 29,2 °C 10,1 °C 39 % 54 % 1017,9 hPa 0,0 l/m² 10,3 km/h (2 Bft) W-SW 245 ° 1 min 262 W/m² 1,2 °C 7,5 °C 12,9 km/h (3 Bft)
12.05.2020 15:55 29,2 °C 10,1 °C 39 % 56 % 1017,9 hPa 0,0 l/m² 10,8 km/h (2 Bft) SW 236 ° 2 min 253 W/m² 1,7 °C 7,3 °C 16,1 km/h (3 Bft)
12.05.2020 15:57 29,2 °C 10,1 °C 39 % 57 % 1017,9 hPa 0,0 l/m² 10,9 km/h (2 Bft) W 263 ° 2 min 239 W/m² 2,0 °C 7,2 °C 14,5 km/h (3 Bft)
12.05.2020 15:59 29,1 °C 9,9 °C 39 % 56 % 1017,8 hPa 0,0 l/m² 12,0 km/h (2 Bft) W 263 ° 2 min 234 W/m² 1,5 °C 6,4 °C 16,1 km/h (3 Bft)
12.05.2020 16:01 29,1 °C 9,9 °C 39 % 58 % 1017,8 hPa 0,0 l/m² 8,1 km/h (2 Bft) W 268 ° 2 min 241 W/m² 2,0 °C 8,7 °C 12,9 km/h (3 Bft)
12.05.2020 16:02 29,1 °C 10,0 °C 39 % 58 % 1017,8 hPa 0,0 l/m² 9,0 km/h (2 Bft) W-SW 238 ° 1 min 246 W/m² 2,1 °C 8,2 °C 11,3 km/h (2 Bft)
12.05.2020 16:03 29,1 °C 9,9 °C 39 % 57 % 1017,8 hPa 0,0 l/m² 10,6 km/h (2 Bft) W-SW 257 ° 1 min 255 W/m² 1,8 °C 7,1 °C 12,9 km/h (3 Bft)
12.05.2020 16:05 29,1 °C 10,0 °C 39 % 58 % 1017,8 hPa 0,0 l/m² 7,6 km/h (2 Bft) W-SW 258 ° 2 min 285 W/m² 2,1 °C 9,1 °C 11,3 km/h (2 Bft)
12.05.2020 16:07 29,1 °C 10,1 °C 39 % 57 % 1017,7 hPa 0,0 l/m² 9,4 km/h (2 Bft) W 275 ° 2 min 309 W/m² 2,0 °C 8,1 °C 14,5 km/h (3 Bft)
12.05.2020 16:09 29,0 °C 10,2 °C 39 % 59 % 1017,7 hPa 0,0 l/m² 6,0 km/h (2 Bft) W 280 ° 2 min 327 W/m² 2,6 °C 10,2 °C 12,9 km/h (3 Bft)
12.05.2020 16:11 29,0 °C 10,1 °C 39 % 55 % 1017,6 hPa 0,0 l/m² 7,4 km/h (2 Bft) NW 323 ° 2 min 327 W/m² 1,5 °C 9,4 °C 14,5 km/h (3 Bft)
12.05.2020 16:12 28,9 °C 10,1 °C 39 % 57 % 1017,6 hPa 0,0 l/m² 4,8 km/h (1 Bft) NW 319 ° 1 min 323 W/m² 2,0 °C 10,1 °C 8,0 km/h (2 Bft)
12.05.2020 16:13 28,9 °C 10,1 °C 39 % 56 % 1017,6 hPa 0,0 l/m² 5,4 km/h (2 Bft) W-NW 287 ° 1 min 320 W/m² 1,7 °C 10,1 °C 6,4 km/h (2 Bft)
12.05.2020 16:15 28,9 °C 10,2 °C 39 % 58 % 1017,6 hPa 0,0 l/m² 3,4 km/h (1 Bft) W-NW 302 ° 2 min 316 W/m² 2,3 °C 10,2 °C 8,0 km/h (2 Bft)
12.05.2020 16:17 28,9 °C 10,2 °C 39 % 55 % 1017,6 hPa 0,0 l/m² 8,8 km/h (2 Bft) W 281 ° 2 min 316 W/m² 1,6 °C 8,5 °C 12,9 km/h (3 Bft)
12.05.2020 16:19 28,9 °C 10,0 °C 39 % 54 % 1017,5 hPa 0,0 l/m² 6,8 km/h (2 Bft) W-NW 288 ° 2 min 306 W/m² 1,1 °C 9,7 °C 11,3 km/h (2 Bft)
12.05.2020 16:21 28,8 °C 10,1 °C 39 % 58 % 1017,4 hPa 0,0 l/m² 5,7 km/h (2 Bft) W-NW 290 ° 2 min 294 W/m² 2,2 °C 10,1 °C 12,9 km/h (3 Bft)
12.05.2020 16:22 28,8 °C 10,1 °C 39 % 54 % 1017,4 hPa 0,0 l/m² 6,8 km/h (2 Bft) W-SW 237 ° 1 min 295 W/m² 1,2 °C 9,8 °C 11,3 km/h (2 Bft)
12.05.2020 16:23 28,8 °C 10,1 °C 39 % 57 % 1017,4 hPa 0,0 l/m² 6,4 km/h (2 Bft) W-NW 286 ° 1 min 304 W/m² 2,0 °C 10,1 °C 9,7 km/h (2 Bft)
12.05.2020 16:25 28,8 °C 10,0 °C 39 % 57 % 1017,4 hPa 0,0 l/m² 6,7 km/h (2 Bft) W-NW 287 ° 2 min 367 W/m² 1,9 °C 9,8 °C 11,3 km/h (2 Bft)
12.05.2020 16:27 28,8 °C 10,1 °C 39 % 60 % 1017,2 hPa 0,0 l/m² 7,1 km/h (2 Bft) SW 228 ° 2 min 431 W/m² 2,7 °C 9,6 °C 11,3 km/h (2 Bft)
12.05.2020 16:29 28,7 °C 10,2 °C 40 % 59 % 1017,4 hPa 0,0 l/m² 11,7 km/h (2 Bft) SW 227 ° 2 min 517 W/m² 2,6 °C 6,9 °C 16,1 km/h (3 Bft)
12.05.2020 16:31 28,7 °C 10,6 °C 40 % 59 % 1017,3 hPa 0,0 l/m² 11,0 km/h (2 Bft) W 261 ° 2 min 643 W/m² 2,9 °C 7,7 °C 14,5 km/h (3 Bft)
12.05.2020 16:32 28,7 °C 10,8 °C 40 % 59 % 1017,3 hPa 0,0 l/m² 9,8 km/h (2 Bft) SW 226 ° 1 min 698 W/m² 3,1 °C 8,6 °C 14,5 km/h (3 Bft)
12.05.2020 16:33 28,7 °C 10,9 °C 40 % 56 % 1017,3 hPa 0,0 l/m² 9,3 km/h (2 Bft) SW 225 ° 1 min 698 W/m² 2,5 °C 9,0 °C 12,9 km/h (3 Bft)
12.05.2020 16:35 28,7 °C 11,3 °C 40 % 56 % 1017,3 hPa 0,0 l/m² 7,8 km/h (2 Bft) SW 216 ° 2 min 698 W/m² 2,8 °C 10,3 °C 11,3 km/h (2 Bft)
12.05.2020 16:37 28,7 °C 11,4 °C 40 % 52 % 1017,3 hPa 0,0 l/m² 11,9 km/h (2 Bft) SW 231 ° 2 min 715 W/m² 1,9 °C 8,2 °C 17,7 km/h (3 Bft)
12.05.2020 16:39 28,7 °C 11,6 °C 40 % 53 % 1017,2 hPa 0,0 l/m² 10,7 km/h (2 Bft) W-SW 249 ° 2 min 693 W/m² 2,4 °C 9,0 °C 16,1 km/h (3 Bft)
12.05.2020 16:41 28,7 °C 11,5 °C 40 % 54 % 1017,2 hPa 0,0 l/m² 9,5 km/h (2 Bft) W-SW 250 ° 2 min 693 W/m² 2,5 °C 9,5 °C 14,5 km/h (3 Bft)
12.05.2020 16:42 28,7 °C 11,4 °C 39 % 52 % 1017,3 hPa 0,0 l/m² 8,2 km/h (2 Bft) W-SW 242 ° 1 min 666 W/m² 1,9 °C 10,2 °C 12,9 km/h (3 Bft)
12.05.2020 16:43 28,7 °C 11,4 °C 39 % 57 % 1017,3 hPa 0,0 l/m² 12,6 km/h (3 Bft) W-SW 240 ° 1 min 666 W/m² 3,2 °C 7,8 °C 17,7 km/h (3 Bft)
12.05.2020 16:45 28,6 °C 11,3 °C 38 % 49 % 1017,2 hPa 0,0 l/m² 11,3 km/h (2 Bft) W 260 ° 2 min 659 W/m² 1,0 °C 8,4 °C 17,7 km/h (3 Bft)
12.05.2020 16:47 28,6 °C 11,3 °C 36 % 52 % 1017,1 hPa 0,0 l/m² 8,4 km/h (2 Bft) W-SW 250 ° 2 min 649 W/m² 1,8 °C 10,0 °C 11,3 km/h (2 Bft)
12.05.2020 16:49 28,4 °C 11,4 °C 36 % 55 % 1017,2 hPa 0,0 l/m² 12,2 km/h (2 Bft) W-SW 243 ° 2 min 617 W/m² 2,7 °C 8,0 °C 20,9 km/h (4 Bft)
12.05.2020 16:51 28,4 °C 11,6 °C 38 % 50 % 1017,1 hPa 0,0 l/m² 15,2 km/h (3 Bft) W-SW 254 ° 2 min 605 W/m² 1,5 °C 7,0 °C 20,9 km/h (4 Bft)
12.05.2020 16:52 28,4 °C 11,6 °C 38 % 48 % 1017,1 hPa 0,0 l/m² 13,8 km/h (3 Bft) W 264 ° 1 min 603 W/m² 1,0 °C 7,6 °C 17,7 km/h (3 Bft)
12.05.2020 16:53 28,4 °C 11,5 °C 38 % 50 % 1017,1 hPa 0,0 l/m² 15,8 km/h (3 Bft) W-SW 250 ° 1 min 598 W/m² 1,4 °C 6,6 °C 17,7 km/h (3 Bft)
12.05.2020 16:55 28,4 °C 11,3 °C 38 % 51 % 1017,1 hPa 0,0 l/m² 14,1 km/h (3 Bft) W-SW 257 ° 2 min 592 W/m² 1,5 °C 7,1 °C 19,3 km/h (3 Bft)
12.05.2020 16:57 28,4 °C 11,3 °C 37 % 50 % 1017,1 hPa 0,0 l/m² 12,7 km/h (3 Bft) W-SW 252 ° 2 min 585 W/m² 1,3 °C 7,7 °C 17,7 km/h (3 Bft)
12.05.2020 16:59 28,3 °C 11,4 °C 37 % 50 % 1017,1 hPa 0,0 l/m² 15,1 km/h (3 Bft) W 260 ° 2 min 580 W/m² 1,4 °C 6,8 °C 22,5 km/h (4 Bft)
12.05.2020 17:01 28,3 °C 11,6 °C 37 % 56 % 1017,2 hPa 0,0 l/m² 10,6 km/h (2 Bft) SW 234 ° 2 min 573 W/m² 3,1 °C 9,0 °C 17,7 km/h (3 Bft)
12.05.2020 17:02 28,3 °C 11,6 °C 38 % 54 % 1017,2 hPa 0,0 l/m² 10,2 km/h (2 Bft) W-SW 250 ° 1 min 570 W/m² 2,6 °C 9,3 °C 12,9 km/h (3 Bft)
12.05.2020 17:03 28,3 °C 11,7 °C 38 % 52 % 1017,2 hPa 0,0 l/m² 14,1 km/h (3 Bft) W 272 ° 1 min 570 W/m² 2,2 °C 7,6 °C 20,9 km/h (4 Bft)
12.05.2020 17:05 28,3 °C 11,5 °C 37 % 52 % 1017,2 hPa 0,0 l/m² 12,2 km/h (2 Bft) W 261 ° 2 min 564 W/m² 2,0 °C 8,1 °C 20,9 km/h (4 Bft)
12.05.2020 17:07 28,3 °C 11,6 °C 37 % 51 % 1017,1 hPa 0,0 l/m² 14,0 km/h (3 Bft) W-SW 252 ° 2 min 557 W/m² 1,8 °C 7,5 °C 20,9 km/h (4 Bft)
12.05.2020 17:09 28,3 °C 11,4 °C 36 % 50 % 1017,2 hPa 0,0 l/m² 16,8 km/h (3 Bft) W 265 ° 2 min 552 W/m² 1,4 °C 6,2 °C 20,9 km/h (4 Bft)
12.05.2020 17:11 28,3 °C 11,5 °C 36 % 54 % 1017,1 hPa 0,0 l/m² 14,5 km/h (3 Bft) SW 215 ° 2 min 547 W/m² 2,5 °C 7,2 °C 19,3 km/h (3 Bft)
12.05.2020 17:12 28,3 °C 11,5 °C 36 % 55 % 1017,2 hPa 0,0 l/m² 12,9 km/h (3 Bft) SW 224 ° 1 min 543 W/m² 2,8 °C 7,8 °C 17,7 km/h (3 Bft)
12.05.2020 17:13 28,3 °C 11,5 °C 36 % 53 % 1017,2 hPa 0,0 l/m² 16,0 km/h (3 Bft) SW 227 ° 1 min 545 W/m² 2,3 °C 6,6 °C 20,9 km/h (4 Bft)
12.05.2020 17:15 28,3 °C 11,6 °C 37 % 54 % 1017,1 hPa 0,0 l/m² 14,8 km/h (3 Bft) S-SW 202 ° 2 min 554 W/m² 2,6 °C 7,2 °C 19,3 km/h (3 Bft)
12.05.2020 17:17 28,2 °C 11,5 °C 37 % 56 % 1017,1 hPa 0,0 l/m² 14,2 km/h (3 Bft) W-SW 251 ° 2 min 552 W/m² 3,0 °C 7,3 °C 17,7 km/h (3 Bft)
12.05.2020 17:19 28,3 °C 11,6 °C 37 % 53 % 1017,0 hPa 0,0 l/m² 11,2 km/h (2 Bft) S-SW 202 ° 2 min 577 W/m² 2,4 °C 8,7 °C 19,3 km/h (3 Bft)
12.05.2020 17:21 28,2 °C 11,6 °C 37 % 55 % 1017,0 hPa 0,0 l/m² 11,9 km/h (2 Bft) SW 236 ° 2 min 499 W/m² 2,9 °C 8,4 °C 17,7 km/h (3 Bft)
12.05.2020 17:22 28,2 °C 11,7 °C 37 % 54 % 1017,0 hPa 0,0 l/m² 12,5 km/h (2 Bft) SW 228 ° 1 min 499 W/m² 2,7 °C 8,2 °C 16,1 km/h (3 Bft)
12.05.2020 17:23 28,2 °C 11,6 °C 37 % 52 % 1017,0 hPa 0,0 l/m² 17,6 km/h (3 Bft) W-SW 250 ° 1 min 499 W/m² 2,1 °C 6,1 °C 24,1 km/h (4 Bft)
12.05.2020 17:25 28,2 °C 11,4 °C 37 % 52 % 1017,0 hPa 0,0 l/m² 11,6 km/h (2 Bft) SW 216 ° 2 min 269 W/m² 1,9 °C 8,3 °C 17,7 km/h (3 Bft)
12.05.2020 17:27 28,2 °C 11,3 °C 38 % 52 % 1016,9 hPa 0,0 l/m² 14,8 km/h (3 Bft) W-SW 245 ° 2 min 643 W/m² 1,8 °C 6,8 °C 20,9 km/h (4 Bft)
12.05.2020 17:29 28,2 °C 11,5 °C 38 % 48 % 1017,0 hPa 0,0 l/m² 17,1 km/h (3 Bft) W-SW 256 ° 2 min 675 W/m² 0,9 °C 6,2 °C 22,5 km/h (4 Bft)
12.05.2020 17:31 28,2 °C 11,4 °C 38 % 50 % 1017,0 hPa 0,0 l/m² 15,4 km/h (3 Bft) W-SW 243 ° 2 min 362 W/m² 1,4 °C 6,7 °C 22,5 km/h (4 Bft)
12.05.2020 17:32 28,2 °C 11,3 °C 38 % 49 % 1016,9 hPa 0,0 l/m² 10,2 km/h (2 Bft) W-SW 252 ° 1 min 320 W/m² 1,0 °C 8,9 °C 12,9 km/h (3 Bft)
12.05.2020 17:33 28,2 °C 11,3 °C 38 % 51 % 1016,9 hPa 0,0 l/m² 16,0 km/h (3 Bft) SW 236 ° 1 min 320 W/m² 1,5 °C 6,3 °C 19,3 km/h (3 Bft)
12.05.2020 17:35 28,2 °C 11,3 °C 38 % 49 % 1016,9 hPa 0,0 l/m² 14,2 km/h (3 Bft) W-SW 240 ° 2 min 320 W/m² 1,0 °C 7,0 °C 17,7 km/h (3 Bft)
12.05.2020 17:37 28,1 °C 11,6 °C 38 % 52 % 1016,9 hPa 0,0 l/m² 17,0 km/h (3 Bft) S-SW 207 ° 2 min 657 W/m² 2,1 °C 6,3 °C 24,1 km/h (4 Bft)
12.05.2020 17:39 28,2 °C 11,8 °C 38 % 53 % 1016,9 hPa 0,0 l/m² 17,0 km/h (3 Bft) W-SW 257 ° 2 min 473 W/m² 2,5 °C 6,6 °C 24,1 km/h (4 Bft)
12.05.2020 17:41 28,1 °C 11,8 °C 38 % 51 % 1017,0 hPa 0,0 l/m² 18,5 km/h (3 Bft) W 259 ° 2 min 635 W/m² 2,0 °C 6,1 °C 25,7 km/h (4 Bft)
12.05.2020 17:42 28,1 °C 11,8 °C 38 % 51 % 1017,0 hPa 0,0 l/m² 11,9 km/h (2 Bft) SW 223 ° 1 min 621 W/m² 2,0 °C 8,6 °C 16,1 km/h (3 Bft)
12.05.2020 17:43 28,1 °C 11,9 °C 38 % 51 % 1017,0 hPa 0,0 l/m² 13,6 km/h (3 Bft) W-SW 248 ° 1 min 599 W/m² 2,1 °C 8,0 °C 16,1 km/h (3 Bft)
12.05.2020 17:45 28,1 °C 12,1 °C 38 % 53 % 1017,0 hPa 0,0 l/m² 13,1 km/h (3 Bft) S-SW 211 ° 2 min 589 W/m² 2,8 °C 8,4 °C 19,3 km/h (3 Bft)
12.05.2020 17:47 28,1 °C 11,9 °C 38 % 53 % 1016,9 hPa 0,0 l/m² 14,4 km/h (3 Bft) SW 229 ° 2 min 536 W/m² 2,6 °C 7,7 °C 20,9 km/h (4 Bft)
12.05.2020 17:49 28,1 °C 11,4 °C 38 % 52 % 1016,9 hPa 0,0 l/m² 11,7 km/h (2 Bft) W-SW 249 ° 2 min 178 W/m² 1,9 °C 8,3 °C 16,1 km/h (3 Bft)
12.05.2020 17:51 28,0 °C 11,1 °C 38 % 51 % 1016,9 hPa 0,0 l/m² 9,9 km/h (2 Bft) W-SW 244 ° 2 min 417 W/m² 1,4 °C 8,9 °C 14,5 km/h (3 Bft)
12.05.2020 17:52 28,1 °C 11,0 °C 38 % 51 % 1016,9 hPa 0,0 l/m² 11,3 km/h (2 Bft) SW 219 ° 1 min 417 W/m² 1,3 °C 8,0 °C 14,5 km/h (3 Bft)
12.05.2020 17:53 28,1 °C 10,9 °C 38 % 51 % 1016,9 hPa 0,0 l/m² 9,9 km/h (2 Bft) W-SW 238 ° 1 min 213 W/m² 1,2 °C 8,6 °C 14,5 km/h (3 Bft)
12.05.2020 17:55 28,0 °C 10,8 °C 38 % 50 % 1016,8 hPa 0,0 l/m² 7,4 km/h (2 Bft) W-SW 246 ° 2 min 536 W/m² 0,8 °C 10,1 °C 12,9 km/h (3 Bft)
12.05.2020 17:57 28,0 °C 11,1 °C 38 % 48 % 1016,8 hPa 0,0 l/m² 6,0 km/h (2 Bft) W-SW 246 ° 2 min 533 W/m² 0,5 °C 11,1 °C 11,3 km/h (2 Bft)
12.05.2020 17:59 28,0 °C 11,3 °C 38 % 49 % 1016,7 hPa 0,0 l/m² 12,1 km/h (2 Bft) W-SW 240 ° 2 min 385 W/m² 1,0 °C 8,0 °C 19,3 km/h (3 Bft)
12.05.2020 18:01 27,9 °C 11,7 °C 38 % 49 % 1016,8 hPa 0,0 l/m² 14,2 km/h (3 Bft) SW 235 ° 2 min 533 W/m² 1,3 °C 7,5 °C 20,9 km/h (4 Bft)
12.05.2020 18:02 27,9 °C 11,9 °C 38 % 51 % 1016,8 hPa 0,0 l/m² 11,1 km/h (2 Bft) W-NW 284 ° 1 min 534 W/m² 2,1 °C 9,1 °C 14,5 km/h (3 Bft)
12.05.2020 18:03 27,9 °C 12,1 °C 38 % 51 % 1016,8 hPa 0,0 l/m² 10,2 km/h (2 Bft) SW 223 ° 1 min 529 W/m² 2,3 °C 9,8 °C 16,1 km/h (3 Bft)
12.05.2020 18:05 27,9 °C 12,2 °C 36 % 50 % 1016,7 hPa 0,0 l/m² 12,5 km/h (2 Bft) SW 221 ° 2 min 274 W/m² 2,1 °C 8,8 °C 16,1 km/h (3 Bft)
12.05.2020 18:07 27,8 °C 11,9 °C 35 % 51 % 1016,6 hPa 0,0 l/m² 11,1 km/h (2 Bft) SW 217 ° 2 min 475 W/m² 2,1 °C 9,1 °C 17,7 km/h (3 Bft)
12.05.2020 18:09 27,8 °C 11,9 °C 35 % 53 % 1016,6 hPa 0,0 l/m² 15,3 km/h (3 Bft) W-SW 247 ° 2 min 441 W/m² 2,6 °C 7,3 °C 22,5 km/h (4 Bft)
12.05.2020 18:11 27,7 °C 11,9 °C 36 % 49 % 1016,7 hPa 0,0 l/m² 15,4 km/h (3 Bft) W 261 ° 2 min 413 W/m² 1,5 °C 7,3 °C 24,1 km/h (4 Bft)
12.05.2020 18:12 27,7 °C 11,9 °C 37 % 50 % 1016,6 hPa 0,0 l/m² 14,3 km/h (3 Bft) W-SW 251 ° 1 min 406 W/m² 1,8 °C 7,7 °C 17,7 km/h (3 Bft)
12.05.2020 18:13 27,7 °C 11,9 °C 37 % 48 % 1016,6 hPa 0,0 l/m² 17,0 km/h (3 Bft) SW 229 ° 1 min 403 W/m² 1,2 °C 6,7 °C 20,9 km/h (4 Bft)
12.05.2020 18:15 27,7 °C 11,8 °C 37 % 48 % 1016,7 hPa 0,0 l/m² 21,1 km/h (4 Bft) SW 233 ° 2 min 390 W/m² 1,2 °C 5,3 °C 29,0 km/h (5 Bft)
12.05.2020 18:17 27,7 °C 11,4 °C 37 % 50 % 1016,6 hPa 0,0 l/m² 18,0 km/h (3 Bft) SW 225 ° 2 min 371 W/m² 1,4 °C 5,7 °C 24,1 km/h (4 Bft)
12.05.2020 18:19 27,6 °C 11,2 °C 37 % 49 % 1016,7 hPa 0,0 l/m² 16,6 km/h (3 Bft) SW 227 ° 2 min 362 W/m² 0,9 °C 6,0 °C 20,9 km/h (4 Bft)
12.05.2020 18:21 27,6 °C 11,1 °C 38 % 52 % 1016,7 hPa 0,0 l/m² 11,9 km/h (2 Bft) SW 232 ° 2 min 343 W/m² 1,6 °C 7,8 °C 19,3 km/h (3 Bft)
12.05.2020 18:22 27,6 °C 11,1 °C 38 % 51 % 1016,6 hPa 0,0 l/m² 14,7 km/h (3 Bft) S-SW 212 ° 1 min 343 W/m² 1,4 °C 6,6 °C 20,9 km/h (4 Bft)
12.05.2020 18:23 27,6 °C 10,9 °C 38 % 51 % 1016,6 hPa 0,0 l/m² 14,6 km/h (3 Bft) SW 233 ° 1 min 343 W/m² 1,2 °C 6,4 °C 17,7 km/h (3 Bft)
12.05.2020 18:25 27,6 °C 10,8 °C 38 % 51 % 1016,6 hPa 0,0 l/m² 14,5 km/h (3 Bft) S-SW 211 ° 2 min 334 W/m² 1,1 °C 6,3 °C 19,3 km/h (3 Bft)
12.05.2020 18:27 27,6 °C 10,8 °C 38 % 53 % 1016,7 hPa 0,0 l/m² 12,3 km/h (2 Bft) SW 218 ° 2 min 329 W/m² 1,6 °C 7,3 °C 16,1 km/h (3 Bft)
12.05.2020 18:29 27,6 °C 10,9 °C 39 % 49 % 1016,6 hPa 0,0 l/m² 14,1 km/h (3 Bft) W-SW 244 ° 2 min 320 W/m² 0,6 °C 6,6 °C 19,3 km/h (3 Bft)
12.05.2020 18:31 27,6 °C 11,1 °C 39 % 50 % 1016,6 hPa 0,0 l/m² 13,6 km/h (3 Bft) W-SW 242 ° 2 min 316 W/m² 1,1 °C 7,1 °C 19,3 km/h (3 Bft)
12.05.2020 18:32 27,5 °C 11,1 °C 39 % 48 % 1016,6 hPa 0,0 l/m² 17,8 km/h (3 Bft) SW 229 ° 1 min 315 W/m² 0,5 °C 5,4 °C 22,5 km/h (4 Bft)
12.05.2020 18:33 27,5 °C 11,2 °C 39 % 48 % 1016,6 hPa 0,0 l/m² 15,7 km/h (3 Bft) W-SW 242 ° 1 min 311 W/m² 0,6 °C 6,3 °C 19,3 km/h (3 Bft)
12.05.2020 18:35 27,5 °C 11,1 °C 39 % 49 % 1016,5 hPa 0,0 l/m² 14,0 km/h (3 Bft) W-SW 240 ° 2 min 304 W/m² 0,8 °C 6,9 °C 20,9 km/h (4 Bft)
12.05.2020 18:37 27,5 °C 11,0 °C 39 % 47 % 1016,6 hPa 0,0 l/m² 16,3 km/h (3 Bft) SW 236 ° 2 min 299 W/m² 0,1 °C 5,8 °C 20,9 km/h (4 Bft)
12.05.2020 18:39 27,4 °C 10,9 °C 39 % 49 % 1016,6 hPa 0,0 l/m² 15,5 km/h (3 Bft) SW 225 ° 2 min 290 W/m² 0,6 °C 6,0 °C 19,3 km/h (3 Bft)
12.05.2020 18:41 27,5 °C 10,8 °C 39 % 49 % 1016,6 hPa 0,0 l/m² 13,7 km/h (3 Bft) SW 236 ° 2 min 281 W/m² 0,5 °C 6,7 °C 19,3 km/h (3 Bft)
12.05.2020 18:42 27,4 °C 10,8 °C 39 % 50 % 1016,6 hPa 0,0 l/m² 17,3 km/h (3 Bft) SW 231 ° 1 min 279 W/m² 0,8 °C 5,2 °C 22,5 km/h (4 Bft)
12.05.2020 18:43 27,4 °C 10,8 °C 39 % 48 % 1016,6 hPa 0,0 l/m² 16,0 km/h (3 Bft) W-SW 243 ° 1 min 276 W/m² 0,2 °C 5,7 °C 17,7 km/h (3 Bft)
12.05.2020 18:45 27,4 °C 10,8 °C 39 % 49 % 1016,6 hPa 0,0 l/m² 16,1 km/h (3 Bft) W-SW 254 ° 2 min 269 W/m² 0,5 °C 5,7 °C 20,9 km/h (4 Bft)
12.05.2020 18:46 27,4 °C 10,9 °C 39 % 49 % 1016,6 hPa 0,0 l/m² 13,8 km/h (3 Bft) W-SW 248 ° 1 min 267 W/m² 0,6 °C 6,7 °C 19,3 km/h (3 Bft)
12.05.2020 18:47 27,4 °C 10,9 °C 39 % 48 % 1016,6 hPa 0,0 l/m² 14,5 km/h (3 Bft) W-SW 255 ° 1 min 265 W/m² 0,3 °C 6,4 °C 19,3 km/h (3 Bft)
12.05.2020 18:48 27,4 °C 10,8 °C 39 % 48 % 1016,6 hPa 0,0 l/m² 14,5 km/h (3 Bft) SW 225 ° 1 min 262 W/m² 0,2 °C 6,3 °C 19,3 km/h (3 Bft)
12.05.2020 18:49 27,4 °C 10,8 °C 39 % 49 % 1016,6 hPa 0,0 l/m² 12,9 km/h (3 Bft) SW 225 ° 1 min 258 W/m² 0,5 °C 7,0 °C 17,7 km/h (3 Bft)
12.05.2020 18:54 27,3 °C 10,8 °C 39 % 49 % 1016,5 hPa 0,0 l/m² 9,4 km/h (2 Bft) W 267 ° 5 min 239 W/m² 0,5 °C 8,8 °C 12,9 km/h (3 Bft)
12.05.2020 18:56 27,3 °C 10,9 °C 39 % 47 % 1016,5 hPa 0,0 l/m² 11,8 km/h (2 Bft) W-SW 248 ° 2 min 232 W/m² 0,0 °C 7,6 °C 16,1 km/h (3 Bft)
12.05.2020 18:57 27,3 °C 10,9 °C 39 % 47 % 1016,5 hPa 0,0 l/m² 12,5 km/h (2 Bft) W-SW 248 ° 1 min 230 W/m² 0,0 °C 7,3 °C 17,7 km/h (3 Bft)
12.05.2020 18:59 27,3 °C 10,9 °C 39 % 47 % 1016,5 hPa 0,0 l/m² 13,5 km/h (3 Bft) W 267 ° 2 min 220 W/m² 0,0 °C 6,9 °C 19,3 km/h (3 Bft)
12.05.2020 19:00 27,3 °C 10,9 °C 39 % 47 % 1016,5 hPa 0,0 l/m² 15,1 km/h (3 Bft) SW 224 ° 1 min 213 W/m² 0,0 °C 6,2 °C 17,7 km/h (3 Bft)
12.05.2020 19:01 27,3 °C 10,9 °C 39 % 49 % 1016,5 hPa 0,0 l/m² 9,4 km/h (2 Bft) SW 236 ° 1 min 178 W/m² 0,6 °C 8,9 °C 12,9 km/h (3 Bft)
12.05.2020 19:02 27,3 °C 10,8 °C 39 % 50 % 1016,4 hPa 0,0 l/m² 10,0 km/h (2 Bft) W-SW 243 ° 1 min 142 W/m² 0,8 °C 8,5 °C 16,1 km/h (3 Bft)
12.05.2020 19:03 27,3 °C 10,8 °C 39 % 48 % 1016,4 hPa 0,0 l/m² 15,1 km/h (3 Bft) SW 235 ° 1 min 181 W/m² 0,2 °C 6,1 °C 19,3 km/h (3 Bft)
12.05.2020 19:05 27,2 °C 10,8 °C 40 % 48 % 1016,4 hPa 0,0 l/m² 14,5 km/h (3 Bft) W-SW 254 ° 2 min 200 W/m² 0,2 °C 6,3 °C 19,3 km/h (3 Bft)
12.05.2020 19:07 27,2 °C 10,7 °C 40 % 50 % 1016,4 hPa 0,0 l/m² 12,1 km/h (2 Bft) SW 236 ° 2 min 193 W/m² 0,7 °C 7,3 °C 17,7 km/h (3 Bft)
12.05.2020 19:09 27,2 °C 10,7 °C 40 % 50 % 1016,3 hPa 0,0 l/m² 12,0 km/h (2 Bft) W-SW 238 ° 2 min 186 W/m² 0,7 °C 7,3 °C 17,7 km/h (3 Bft)
12.05.2020 19:10 27,2 °C 10,7 °C 40 % 49 % 1016,3 hPa 0,0 l/m² 12,7 km/h (3 Bft) SW 233 ° 1 min 179 W/m² 0,4 °C 7,0 °C 16,1 km/h (3 Bft)
12.05.2020 19:11 27,2 °C 10,7 °C 40 % 49 % 1016,3 hPa 0,0 l/m² 14,4 km/h (3 Bft) W-SW 253 ° 1 min 178 W/m² 0,4 °C 6,2 °C 17,7 km/h (3 Bft)
12.05.2020 19:12 27,2 °C 10,6 °C 40 % 49 % 1016,3 hPa 0,0 l/m² 16,8 km/h (3 Bft) W-SW 238 ° 1 min 176 W/m² 0,3 °C 5,2 °C 19,3 km/h (3 Bft)
12.05.2020 19:13 27,2 °C 10,6 °C 40 % 49 % 1016,3 hPa 0,0 l/m² 14,5 km/h (3 Bft) W-SW 247 ° 1 min 172 W/m² 0,3 °C 6,1 °C 20,9 km/h (4 Bft)
12.05.2020 19:14 27,2 °C 10,6 °C 40 % 49 % 1016,3 hPa 0,0 l/m² 11,3 km/h (2 Bft) W-SW 247 ° 1 min 169 W/m² 0,3 °C 7,6 °C 16,1 km/h (3 Bft)
12.05.2020 19:19 27,2 °C 10,4 °C 41 % 50 % 1016,3 hPa 0,0 l/m² 9,4 km/h (2 Bft) W-SW 250 ° 5 min 135 W/m² 0,4 °C 8,4 °C 12,9 km/h (3 Bft)
12.05.2020 19:21 27,1 °C 10,4 °C 41 % 51 % 1016,2 hPa 0,0 l/m² 12,1 km/h (2 Bft) W-SW 238 ° 2 min 121 W/m² 0,7 °C 6,9 °C 16,1 km/h (3 Bft)
12.05.2020 19:22 27,1 °C 10,3 °C 41 % 51 % 1016,3 hPa 0,0 l/m² 13,9 km/h (3 Bft) W-SW 244 ° 1 min 111 W/m² 0,6 °C 6,0 °C 17,7 km/h (3 Bft)
12.05.2020 19:23 27,1 °C 10,3 °C 41 % 50 % 1016,3 hPa 0,0 l/m² 16,0 km/h (3 Bft) W-SW 248 ° 1 min 116 W/m² 0,3 °C 5,1 °C 19,3 km/h (3 Bft)
12.05.2020 19:25 27,1 °C 10,3 °C 41 % 49 % 1016,3 hPa 0,0 l/m² 14,3 km/h (3 Bft) W-SW 242 ° 2 min 132 W/m² 0,1 °C 5,8 °C 20,9 km/h (4 Bft)
12.05.2020 19:27 27,1 °C 10,2 °C 41 % 51 % 1016,2 hPa 0,0 l/m² 9,0 km/h (2 Bft) SW 232 ° 2 min 125 W/m² 0,5 °C 8,4 °C 16,1 km/h (3 Bft)
12.05.2020 19:29 27,1 °C 10,2 °C 41 % 51 % 1016,3 hPa 0,0 l/m² 12,3 km/h (2 Bft) W-SW 237 ° 2 min 121 W/m² 0,5 °C 6,6 °C 17,7 km/h (3 Bft)
12.05.2020 19:30 27,1 °C 10,2 °C 41 % 51 % 1016,3 hPa 0,0 l/m² 11,8 km/h (2 Bft) W-SW 238 ° 1 min 120 W/m² 0,5 °C 6,8 °C 16,1 km/h (3 Bft)
12.05.2020 19:31 27,1 °C 10,2 °C 41 % 51 % 1016,3 hPa 0,0 l/m² 12,7 km/h (3 Bft) SW 226 ° 1 min 118 W/m² 0,5 °C 6,4 °C 17,7 km/h (3 Bft)
12.05.2020 19:32 27,1 °C 10,2 °C 41 % 51 % 1016,3 hPa 0,0 l/m² 14,3 km/h (3 Bft) SW 219 ° 1 min 116 W/m² 0,5 °C 5,7 °C 19,3 km/h (3 Bft)
12.05.2020 19:33 27,1 °C 10,1 °C 40 % 51 % 1016,2 hPa 0,0 l/m² 15,3 km/h (3 Bft) SW 222 ° 1 min 111 W/m² 0,4 °C 5,1 °C 19,3 km/h (3 Bft)
12.05.2020 19:35 27,1 °C 10,0 °C 40 % 52 % 1016,2 hPa 0,0 l/m² 12,3 km/h (2 Bft) W-SW 255 ° 2 min 105 W/m² 0,6 °C 6,4 °C 20,9 km/h (4 Bft)
12.05.2020 19:37 27,1 °C 9,9 °C 40 % 53 % 1016,3 hPa 0,0 l/m² 10,2 km/h (2 Bft) SW 236 ° 2 min 100 W/m² 0,8 °C 7,4 °C 14,5 km/h (3 Bft)
12.05.2020 19:39 27,0 °C 9,9 °C 40 % 54 % 1016,2 hPa 0,0 l/m² 9,2 km/h (2 Bft) W-SW 238 ° 2 min 72 W/m² 1,0 °C 8,0 °C 16,1 km/h (3 Bft)
12.05.2020 19:40 27,1 °C 9,8 °C 40 % 54 % 1016,2 hPa 0,0 l/m² 8,5 km/h (2 Bft) W-SW 238 ° 1 min 56 W/m² 0,9 °C 8,3 °C 11,3 km/h (2 Bft)
12.05.2020 19:41 27,1 °C 9,8 °C 40 % 54 % 1016,2 hPa 0,0 l/m² 6,4 km/h (2 Bft) W-SW 244 ° 0 min 46 W/m² 0,9 °C 9,8 °C 8,0 km/h (2 Bft)
12.05.2020 19:42 27,1 °C 9,8 °C 40 % 55 % 1016,2 hPa 0,0 l/m² 8,2 km/h (2 Bft) W-SW 258 ° 0 min 46 W/m² 1,2 °C 8,5 °C 12,9 km/h (3 Bft)
12.05.2020 19:43 27,0 °C 9,8 °C 40 % 55 % 1016,2 hPa 0,0 l/m² 7,6 km/h (2 Bft) W-SW 237 ° 1 min 65 W/m² 1,2 °C 8,9 °C 11,3 km/h (2 Bft)
12.05.2020 19:45 27,0 °C 9,7 °C 40 % 55 % 1016,2 hPa 0,0 l/m² 7,9 km/h (2 Bft) SW 226 ° 2 min 63 W/m² 1,1 °C 8,6 °C 12,9 km/h (3 Bft)
12.05.2020 19:47 27,0 °C 9,7 °C 41 % 55 % 1016,1 hPa 0,0 l/m² 8,0 km/h (2 Bft) W-SW 238 ° 2 min 62 W/m² 1,1 °C 8,5 °C 12,9 km/h (3 Bft)
12.05.2020 19:49 27,0 °C 9,7 °C 41 % 55 % 1016,2 hPa 0,0 l/m² 7,3 km/h (2 Bft) W-SW 238 ° 2 min 63 W/m² 1,1 °C 9,0 °C 11,3 km/h (2 Bft)
12.05.2020 19:50 27,0 °C 9,7 °C 41 % 55 % 1016,1 hPa 0,0 l/m² 8,3 km/h (2 Bft) W-SW 250 ° 1 min 54 W/m² 1,1 °C 8,3 °C 12,9 km/h (3 Bft)
12.05.2020 19:51 27,0 °C 9,6 °C 41 % 55 % 1016,1 hPa 0,0 l/m² 7,4 km/h (2 Bft) W-SW 244 ° 0 min 46 W/m² 1,0 °C 8,9 °C 11,3 km/h (2 Bft)
12.05.2020 19:52 27,0 °C 9,6 °C 41 % 55 % 1016,1 hPa 0,0 l/m² 9,2 km/h (2 Bft) SW 229 ° 0 min 44 W/m² 1,0 °C 7,6 °C 12,9 km/h (3 Bft)
12.05.2020 19:53 26,9 °C 9,6 °C 41 % 55 % 1016,1 hPa 0,0 l/m² 9,9 km/h (2 Bft) W-SW 238 ° 0 min 51 W/m² 1,0 °C 7,2 °C 14,5 km/h (3 Bft)
12.05.2020 19:55 26,9 °C 9,4 °C 41 % 55 % 1016,1 hPa 0,0 l/m² 8,4 km/h (2 Bft) W-SW 243 ° 0 min 47 W/m² 0,8 °C 7,9 °C 12,9 km/h (3 Bft)
12.05.2020 19:57 26,9 °C 9,4 °C 40 % 56 % 1016,0 hPa 0,0 l/m² 7,7 km/h (2 Bft) W-SW 255 ° 0 min 37 W/m² 1,1 °C 8,4 °C 12,9 km/h (3 Bft)
12.05.2020 19:59 26,9 °C 9,3 °C 41 % 56 % 1016,1 hPa 0,0 l/m² 6,1 km/h (2 Bft) W-SW 241 ° 0 min 35 W/m² 1,0 °C 9,3 °C 8,0 km/h (2 Bft)
12.05.2020 20:00 26,9 °C 9,2 °C 41 % 57 % 1016,1 hPa 0,0 l/m² 6,1 km/h (2 Bft) W-SW 250 ° 0 min 35 W/m² 1,1 °C 9,2 °C 8,0 km/h (2 Bft)
12.05.2020 20:01 26,9 °C 9,2 °C 41 % 57 % 1016,1 hPa 0,0 l/m² 6,9 km/h (2 Bft) W-SW 246 ° 0 min 33 W/m² 1,1 °C 8,8 °C 9,7 km/h (2 Bft)
12.05.2020 20:02 26,9 °C 9,1 °C 41 % 57 % 1016,1 hPa 0,0 l/m² 7,0 km/h (2 Bft) W-SW 242 ° 0 min 32 W/m² 1,0 °C 8,7 °C 8,0 km/h (2 Bft)
12.05.2020 20:03 26,9 °C 9,1 °C 41 % 58 % 1016,1 hPa 0,0 l/m² 6,1 km/h (2 Bft) W-SW 241 ° 0 min 32 W/m² 1,3 °C 9,1 °C 11,3 km/h (2 Bft)
12.05.2020 20:05 26,9 °C 8,9 °C 41 % 58 % 1016,0 hPa 0,0 l/m² 7,4 km/h (2 Bft) SW 226 ° 0 min 28 W/m² 1,1 °C 8,1 °C 11,3 km/h (2 Bft)
12.05.2020 20:07 26,8 °C 8,8 °C 41 % 58 % 1016,1 hPa 0,0 l/m² 7,9 km/h (2 Bft) W-SW 244 ° 0 min 26 W/m² 1,0 °C 7,7 °C 12,9 km/h (3 Bft)
12.05.2020 20:09 26,8 °C 8,8 °C 41 % 58 % 1016,1 hPa 0,0 l/m² 9,5 km/h (2 Bft) W-SW 242 ° 0 min 28 W/m² 1,0 °C 6,6 °C 12,9 km/h (3 Bft)
12.05.2020 20:10 26,8 °C 8,8 °C 42 % 57 % 1016,0 hPa 0,0 l/m² 8,4 km/h (2 Bft) W-SW 241 ° 0 min 26 W/m² 0,8 °C 7,3 °C 14,5 km/h (3 Bft)
12.05.2020 20:11 26,8 °C 8,8 °C 42 % 58 % 1016,0 hPa 0,0 l/m² 10,7 km/h (2 Bft) SW 223 ° 0 min 26 W/m² 1,0 °C 5,9 °C 12,9 km/h (3 Bft)
12.05.2020 20:12 26,8 °C 8,8 °C 42 % 57 % 1016,1 hPa 0,0 l/m² 7,7 km/h (2 Bft) W-SW 238 ° 0 min 25 W/m² 0,8 °C 7,8 °C 11,3 km/h (2 Bft)
12.05.2020 20:13 26,8 °C 8,7 °C 42 % 58 % 1016,1 hPa 0,0 l/m² 7,4 km/h (2 Bft) W-SW 249 ° 0 min 23 W/m² 0,9 °C 7,9 °C 11,3 km/h (2 Bft)
12.05.2020 20:15 26,8 °C 8,7 °C 42 % 58 % 1016,0 hPa 0,0 l/m² 9,1 km/h (2 Bft) SW 234 ° 0 min 21 W/m² 0,9 °C 6,7 °C 12,9 km/h (3 Bft)
12.05.2020 20:17 26,8 °C 8,6 °C 42 % 59 % 1015,9 hPa 0,0 l/m² 7,3 km/h (2 Bft) SW 228 ° 0 min 21 W/m² 1,0 °C 7,9 °C 11,3 km/h (2 Bft)
12.05.2020 20:19 26,7 °C 8,4 °C 42 % 59 % 1016,0 hPa 0,0 l/m² 6,8 km/h (2 Bft) W-SW 253 ° 0 min 19 W/m² 0,9 °C 8,1 °C 11,3 km/h (2 Bft)
12.05.2020 20:20 26,7 °C 8,3 °C 42 % 59 % 1016,0 hPa 0,0 l/m² 6,1 km/h (2 Bft) W-SW 252 ° 0 min 19 W/m² 0,8 °C 8,3 °C 11,3 km/h (2 Bft)
12.05.2020 20:21 26,7 °C 8,3 °C 42 % 59 % 1016,0 hPa 0,0 l/m² 6,4 km/h (2 Bft) SW 236 ° 0 min 18 W/m² 0,8 °C 8,3 °C 8,0 km/h (2 Bft)
12.05.2020 20:22 26,7 °C 8,3 °C 42 % 60 % 1016,1 hPa 0,0 l/m² 7,4 km/h (2 Bft) W-SW 253 ° 0 min 18 W/m² 1,0 °C 7,5 °C 9,7 km/h (2 Bft)
12.05.2020 20:23 26,7 °C 8,2 °C 42 % 60 % 1016,0 hPa 0,0 l/m² 7,4 km/h (2 Bft) W-SW 244 ° 0 min 18 W/m² 0,9 °C 7,4 °C 11,3 km/h (2 Bft)
12.05.2020 20:25 26,7 °C 8,1 °C 42 % 60 % 1016,0 hPa 0,0 l/m² 6,4 km/h (2 Bft) W-SW 252 ° 0 min 18 W/m² 0,8 °C 8,1 °C 9,7 km/h (2 Bft)
12.05.2020 20:27 26,7 °C 7,9 °C 42 % 61 % 1015,9 hPa 0,0 l/m² 7,0 km/h (2 Bft) SW 232 ° 0 min 16 W/m² 0,9 °C 7,4 °C 9,7 km/h (2 Bft)
12.05.2020 20:29 26,7 °C 7,8 °C 42 % 61 % 1016,0 hPa 0,0 l/m² 5,7 km/h (2 Bft) W-SW 241 ° 0 min 16 W/m² 0,8 °C 7,8 °C 8,0 km/h (2 Bft)
12.05.2020 20:30 26,7 °C 7,8 °C 43 % 62 % 1015,9 hPa 0,0 l/m² 5,1 km/h (1 Bft) W-SW 237 ° 0 min 16 W/m² 1,0 °C 7,8 °C 6,4 km/h (2 Bft)
12.05.2020 20:31 26,7 °C 7,7 °C 43 % 62 % 1015,9 hPa 0,0 l/m² 5,4 km/h (2 Bft) W-SW 238 ° 0 min 14 W/m² 0,9 °C 7,7 °C 6,4 km/h (2 Bft)
12.05.2020 20:32 26,7 °C 7,6 °C 43 % 62 % 1015,9 hPa 0,0 l/m² 4,5 km/h (1 Bft) W-SW 238 ° 0 min 14 W/m² 0,8 °C 7,6 °C 6,4 km/h (2 Bft)
12.05.2020 20:33 26,7 °C 7,6 °C 43 % 62 % 1015,9 hPa 0,0 l/m² 3,4 km/h (1 Bft) W-SW 238 ° 0 min 14 W/m² 0,8 °C 7,6 °C 6,4 km/h (2 Bft)
12.05.2020 20:35 26,7 °C 7,6 °C 43 % 62 % 1015,9 hPa 0,0 l/m² 4,4 km/h (1 Bft) SW 236 ° 0 min 12 W/m² 0,8 °C 7,6 °C 6,4 km/h (2 Bft)
12.05.2020 20:37 26,7 °C 7,6 °C 43 % 63 % 1015,8 hPa 0,0 l/m² 3,1 km/h (1 Bft) SW 236 ° 0 min 12 W/m² 1,0 °C 7,6 °C 4,8 km/h (1 Bft)
12.05.2020 20:39 26,7 °C 7,5 °C 43 % 63 % 1015,9 hPa 0,0 l/m² 3,2 km/h (1 Bft) SW 236 ° 0 min 11 W/m² 0,9 °C 7,5 °C 4,8 km/h (1 Bft)
12.05.2020 20:40 26,7 °C 7,5 °C 43 % 63 % 1015,9 hPa 0,0 l/m² 2,6 km/h (1 Bft) SW 236 ° 0 min 11 W/m² 0,9 °C 7,5 °C 3,2 km/h (1 Bft)
12.05.2020 20:41 26,7 °C 7,4 °C 43 % 63 % 1015,9 hPa 0,0 l/m² 2,5 km/h (1 Bft) SW 236 ° 0 min 11 W/m² 0,8 °C 7,4 °C 3,2 km/h (1 Bft)
12.05.2020 20:42 26,7 °C 7,4 °C 43 % 64 % 1015,9 hPa 0,0 l/m² 1,9 km/h (1 Bft) SW 236 ° 0 min 9 W/m² 1,0 °C 7,4 °C 3,2 km/h (1 Bft)
12.05.2020 20:43 26,7 °C 7,3 °C 43 % 64 % 1015,9 hPa 0,0 l/m² 2,1 km/h (1 Bft) SW 236 ° 0 min 9 W/m² 1,0 °C 7,3 °C 3,2 km/h (1 Bft)
12.05.2020 20:45 26,7 °C 7,2 °C 43 % 64 % 1015,8 hPa 0,0 l/m² 1,0 km/h (0 Bft) SW 236 ° 0 min 7 W/m² 0,9 °C 7,2 °C 3,2 km/h (1 Bft)
12.05.2020 20:47 26,6 °C 6,9 °C 43 % 66 % 1015,9 hPa 0,0 l/m² 0,3 km/h (0 Bft) SW 236 ° 0 min 7 W/m² 1,0 °C 6,9 °C 3,2 km/h (1 Bft)
12.05.2020 20:49 26,6 °C 6,8 °C 43 % 67 % 1015,9 hPa 0,0 l/m² 0,1 km/h (0 Bft) SW 236 ° 0 min 7 W/m² 1,1 °C 6,8 °C 1,6 km/h (1 Bft)
12.05.2020 20:50 26,6 °C 6,7 °C 43 % 67 % 1015,9 hPa 0,0 l/m² 0,0 km/h (0 Bft) SW 236 ° 0 min 5 W/m² 1,0 °C 6,7 °C 0,0 km/h (0 Bft)
12.05.2020 20:51 26,6 °C 6,7 °C 43 % 68 % 1015,9 hPa 0,0 l/m² 0,0 km/h (0 Bft) SW 236 ° 0 min 5 W/m² 1,2 °C 6,7 °C 0,0 km/h (0 Bft)
12.05.2020 20:52 26,6 °C 6,7 °C 43 % 68 % 1015,8 hPa 0,0 l/m² 0,0 km/h (0 Bft) SW 236 ° 0 min 5 W/m² 1,2 °C 6,7 °C 0,0 km/h (0 Bft)
12.05.2020 20:53 26,6 °C 6,6 °C 43 % 68 % 1015,8 hPa 0,0 l/m² 0,0 km/h (0 Bft) SW 236 ° 0 min 5 W/m² 1,1 °C 6,6 °C 0,0 km/h (0 Bft)
12.05.2020 20:55 26,6 °C 6,6 °C 43 % 69 % 1015,9 hPa 0,0 l/m² 0,0 km/h (0 Bft) SW 236 ° 0 min 5 W/m² 1,3 °C 6,6 °C 0,0 km/h (0 Bft)
12.05.2020 20:57 26,6 °C 6,4 °C 43 % 69 % 1015,9 hPa 0,0 l/m² 0,0 km/h (0 Bft) SW 236 ° 0 min 0 W/m² 1,1 °C 6,4 °C 0,0 km/h (0 Bft)
12.05.2020 20:59 26,6 °C 6,2 °C 43 % 70 % 1015,9 hPa 0,0 l/m² 0,3 km/h (0 Bft) SW 236 ° 0 min 0 W/m² 1,1 °C 6,2 °C 1,6 km/h (1 Bft)
12.05.2020 21:00 26,6 °C 6,1 °C 43 % 70 % 1015,9 hPa 0,0 l/m² 0,8 km/h (0 Bft) SW 236 ° 0 min 0 W/m² 1,0 °C 6,1 °C 1,6 km/h (1 Bft)
12.05.2020 21:01 26,6 °C 6,1 °C 43 % 71 % 1015,9 hPa 0,0 l/m² 0,5 km/h (0 Bft) SW 236 ° 0 min 0 W/m² 1,2 °C 6,1 °C 1,6 km/h (1 Bft)
12.05.2020 21:02 26,6 °C 5,9 °C 43 % 71 % 1015,9 hPa 0,0 l/m² 0,5 km/h (0 Bft) SW 236 ° 0 min 0 W/m² 1,1 °C 5,9 °C 1,6 km/h (1 Bft)
12.05.2020 21:03 26,6 °C 5,9 °C 43 % 72 % 1015,9 hPa 0,0 l/m² 0,6 km/h (0 Bft) SW 236 ° 0 min 0 W/m² 1,2 °C 5,9 °C 1,6 km/h (1 Bft)
12.05.2020 21:05 26,6 °C 5,8 °C 43 % 73 % 1015,8 hPa 0,0 l/m² 0,3 km/h (0 Bft) SW 236 ° 0 min 0 W/m² 1,3 °C 5,8 °C 1,6 km/h (1 Bft)
12.05.2020 21:07 26,6 °C 5,8 °C 43 % 73 % 1015,9 hPa 0,0 l/m² 0,6 km/h (0 Bft) SW 236 ° 0 min 0 W/m² 1,3 °C 5,8 °C 1,6 km/h (1 Bft)
12.05.2020 21:09 26,6 °C 5,7 °C 43 % 74 % 1015,9 hPa 0,0 l/m² 1,2 km/h (1 Bft) SW 236 ° 0 min 0 W/m² 1,4 °C 5,7 °C 1,6 km/h (1 Bft)
12.05.2020 21:10 26,6 °C 5,7 °C 43 % 74 % 1015,9 hPa 0,0 l/m² 1,4 km/h (1 Bft) SW 236 ° 0 min 0 W/m² 1,4 °C 5,7 °C 1,6 km/h (1 Bft)
12.05.2020 21:11 26,6 °C 5,7 °C 43 % 74 % 1015,9 hPa 0,0 l/m² 1,0 km/h (0 Bft) SW 236 ° 0 min 0 W/m² 1,4 °C 5,7 °C 1,6 km/h (1 Bft)
12.05.2020 21:12 26,6 °C 5,6 °C 43 % 74 % 1015,9 hPa 0,0 l/m² 0,5 km/h (0 Bft) SW 236 ° 0 min 0 W/m² 1,3 °C 5,6 °C 1,6 km/h (1 Bft)
12.05.2020 21:13 26,6 °C 5,6 °C 43 % 75 % 1015,9 hPa 0,0 l/m² 0,8 km/h (0 Bft) SW 236 ° 0 min 0 W/m² 1,5 °C 5,6 °C 1,6 km/h (1 Bft)
12.05.2020 21:15 26,6 °C 5,6 °C 43 % 75 % 1016,0 hPa 0,0 l/m² 0,1 km/h (0 Bft) SW 236 ° 0 min 0 W/m² 1,5 °C 5,6 °C 1,6 km/h (1 Bft)
12.05.2020 21:17 26,5 °C 5,6 °C 43 % 74 % 1016,0 hPa 0,0 l/m² 0,1 km/h (0 Bft) SW 236 ° 0 min 0 W/m² 1,3 °C 5,6 °C 1,6 km/h (1 Bft)
12.05.2020 21:19 26,5 °C 5,6 °C 43 % 75 % 1016,1 hPa 0,0 l/m² 0,0 km/h (0 Bft) SW 236 ° 0 min 0 W/m² 1,5 °C 5,6 °C 0,0 km/h (0 Bft)
12.05.2020 21:20 26,5 °C 5,6 °C 43 % 75 % 1016,0 hPa 0,0 l/m² 0,0 km/h (0 Bft) SW 236 ° 0 min 0 W/m² 1,5 °C 5,6 °C 0,0 km/h (0 Bft)
12.05.2020 21:21 26,5 °C 5,5 °C 43 % 75 % 1016,0 hPa 0,0 l/m² 0,0 km/h (0 Bft) SW 236 ° 0 min 0 W/m² 1,4 °C 5,5 °C 0,0 km/h (0 Bft)
12.05.2020 21:22 26,5 °C 5,5 °C 43 % 75 % 1016,1 hPa 0,0 l/m² 0,0 km/h (0 Bft) SW 236 ° 0 min 0 W/m² 1,4 °C 5,5 °C 0,0 km/h (0 Bft)
12.05.2020 21:23 26,5 °C 5,5 °C 43 % 75 % 1016,0 hPa 0,0 l/m² 0,0 km/h (0 Bft) SW 236 ° 0 min 0 W/m² 1,4 °C 5,5 °C 0,0 km/h (0 Bft)
12.05.2020 21:25 26,5 °C 5,4 °C 43 % 75 % 1016,0 hPa 0,0 l/m² 0,2 km/h (0 Bft) SW 236 ° 0 min 0 W/m² 1,3 °C 5,4 °C 1,6 km/h (1 Bft)
12.05.2020 21:27 26,4 °C 5,4 °C 43 % 75 % 1016,0 hPa 0,0 l/m² 0,8 km/h (0 Bft) SW 236 ° 0 min 0 W/m² 1,3 °C 5,4 °C 1,6 km/h (1 Bft)
12.05.2020 21:29 26,5 °C 5,2 °C 43 % 76 % 1015,9 hPa 0,0 l/m² 1,6 km/h (1 Bft) SW 236 ° 0 min 0 W/m² 1,3 °C 5,2 °C 3,2 km/h (1 Bft)
12.05.2020 21:30 26,4 °C 5,0 °C 44 % 76 % 1015,9 hPa 0,0 l/m² 1,3 km/h (1 Bft) SW 236 ° 0 min 0 W/m² 1,1 °C 5,0 °C 1,6 km/h (1 Bft)
12.05.2020 21:31 26,4 °C 4,9 °C 44 % 77 % 1015,9 hPa 0,0 l/m² 1,3 km/h (1 Bft) SW 236 ° 0 min 0 W/m² 1,2 °C 4,9 °C 1,6 km/h (1 Bft)
12.05.2020 21:32 26,4 °C 4,8 °C 44 % 78 % 1015,9 hPa 0,0 l/m² 1,6 km/h (1 Bft) SW 236 ° 0 min 0 W/m² 1,3 °C 4,8 °C 1,6 km/h (1 Bft)
12.05.2020 21:33 26,4 °C 4,7 °C 44 % 78 % 1015,9 hPa 0,0 l/m² 1,3 km/h (1 Bft) SW 236 ° 0 min 0 W/m² 1,2 °C 4,7 °C 1,6 km/h (1 Bft)
12.05.2020 21:35 26,4 °C 4,4 °C 44 % 80 % 1015,9 hPa 0,0 l/m² 1,1 km/h (1 Bft) SW 236 ° 0 min 0 W/m² 1,3 °C 4,4 °C 1,6 km/h (1 Bft)
12.05.2020 21:37 26,4 °C 4,3 °C 44 % 80 % 1016,0 hPa 0,0 l/m² 0,6 km/h (0 Bft) SW 236 ° 0 min 0 W/m² 1,2 °C 4,3 °C 1,6 km/h (1 Bft)
12.05.2020 21:39 26,4 °C 4,2 °C 44 % 80 % 1015,9 hPa 0,0 l/m² 0,5 km/h (0 Bft) SW 236 ° 0 min 0 W/m² 1,1 °C 4,2 °C 1,6 km/h (1 Bft)
12.05.2020 21:40 26,4 °C 4,2 °C 44 % 80 % 1016,0 hPa 0,0 l/m² 0,7 km/h (0 Bft) SW 236 ° 0 min 0 W/m² 1,1 °C 4,2 °C 1,6 km/h (1 Bft)
12.05.2020 21:41 26,4 °C 4,1 °C 44 % 80 % 1016,0 hPa 0,0 l/m² 1,0 km/h (0 Bft) SW 236 ° 0 min 0 W/m² 1,0 °C 4,1 °C 1,6 km/h (1 Bft)
12.05.2020 21:42 26,4 °C 4,1 °C 44 % 80 % 1015,9 hPa 0,0 l/m² 1,1 km/h (1 Bft) SW 236 ° 0 min 0 W/m² 1,0 °C 4,1 °C 1,6 km/h (1 Bft)
12.05.2020 21:43 26,4 °C 4,2 °C 44 % 81 % 1015,9 hPa 0,0 l/m² 1,4 km/h (1 Bft) SW 236 ° 0 min 0 W/m² 1,2 °C 4,2 °C 1,6 km/h (1 Bft)
12.05.2020 21:45 26,4 °C 4,2 °C 44 % 81 % 1015,9 hPa 0,0 l/m² 1,3 km/h (1 Bft) SW 236 ° 0 min 0 W/m² 1,2 °C 4,2 °C 1,6 km/h (1 Bft)
12.05.2020 21:47 26,4 °C 4,2 °C 44 % 80 % 1015,9 hPa 0,0 l/m² 1,6 km/h (1 Bft) SW 236 ° 0 min 0 W/m² 1,1 °C 4,2 °C 3,2 km/h (1 Bft)
12.05.2020 21:49 26,4 °C 4,2 °C 44 % 80 % 1015,9 hPa 0,0 l/m² 1,6 km/h (1 Bft) SW 236 ° 0 min 0 W/m² 1,1 °C 4,2 °C 3,2 km/h (1 Bft)
12.05.2020 21:50 26,3 °C 4,2 °C 44 % 80 % 1015,9 hPa 0,0 l/m² 1,1 km/h (1 Bft) SW 236 ° 0 min 0 W/m² 1,1 °C 4,2 °C 1,6 km/h (1 Bft)
12.05.2020 21:51 26,3 °C 4,2 °C 44 % 81 % 1015,9 hPa 0,0 l/m² 0,8 km/h (0 Bft) SW 236 ° 0 min 0 W/m² 1,2 °C 4,2 °C 1,6 km/h (1 Bft)
12.05.2020 21:52 26,4 °C 4,2 °C 44 % 81 % 1015,9 hPa 0,0 l/m² 1,6 km/h (1 Bft) SW 236 ° 0 min 0 W/m² 1,2 °C 4,2 °C 3,2 km/h (1 Bft)
12.05.2020 21:53 26,3 °C 4,2 °C 44 % 80 % 1015,9 hPa 0,0 l/m² 1,6 km/h (1 Bft) SW 236 ° 0 min 0 W/m² 1,1 °C 4,2 °C 1,6 km/h (1 Bft)
12.05.2020 21:55 26,3 °C 4,2 °C 44 % 80 % 1016,0 hPa 0,0 l/m² 1,9 km/h (1 Bft) SW 236 ° 0 min 0 W/m² 1,1 °C 4,2 °C 3,2 km/h (1 Bft)
12.05.2020 21:57 26,3 °C 4,1 °C 44 % 80 % 1016,0 hPa 0,0 l/m² 2,1 km/h (1 Bft) SW 236 ° 0 min 0 W/m² 1,0 °C 4,1 °C 3,2 km/h (1 Bft)
12.05.2020 21:59 26,3 °C 3,9 °C 44 % 80 % 1015,9 hPa 0,0 l/m² 2,3 km/h (1 Bft) SW 236 ° 0 min 0 W/m² 0,8 °C 3,9 °C 3,2 km/h (1 Bft)
12.05.2020 22:00 26,3 °C 3,8 °C 44 % 80 % 1015,9 hPa 0,0 l/m² 2,4 km/h (1 Bft) SW 236 ° 0 min 0 W/m² 0,7 °C 3,8 °C 3,2 km/h (1 Bft)
12.05.2020 22:01 26,3 °C 3,8 °C 44 % 80 % 1015,9 hPa 0,0 l/m² 2,3 km/h (1 Bft) SW 236 ° 0 min 0 W/m² 0,7 °C 3,8 °C 3,2 km/h (1 Bft)
12.05.2020 22:02 26,3 °C 3,7 °C 44 % 80 % 1015,9 hPa 0,0 l/m² 1,7 km/h (1 Bft) SW 236 ° 0 min 0 W/m² 0,6 °C 3,7 °C 3,2 km/h (1 Bft)
12.05.2020 22:03 26,3 °C 3,7 °C 44 % 81 % 1015,9 hPa 0,0 l/m² 2,5 km/h (1 Bft) SW 236 ° 0 min 0 W/m² 0,7 °C 3,7 °C 3,2 km/h (1 Bft)
12.05.2020 22:05 26,3 °C 3,8 °C 44 % 83 % 1015,9 hPa 0,0 l/m² 1,6 km/h (1 Bft) SW 236 ° 0 min 0 W/m² 1,2 °C 3,8 °C 3,2 km/h (1 Bft)
12.05.2020 22:07 26,3 °C 3,9 °C 44 % 83 % 1016,0 hPa 0,0 l/m² 0,9 km/h (0 Bft) SW 236 ° 0 min 0 W/m² 1,3 °C 3,9 °C 1,6 km/h (1 Bft)
12.05.2020 22:09 26,3 °C 3,9 °C 44 % 83 % 1016,0 hPa 0,0 l/m² 1,0 km/h (0 Bft) SW 236 ° 0 min 0 W/m² 1,3 °C 3,9 °C 1,6 km/h (1 Bft)
12.05.2020 22:10 26,3 °C 3,9 °C 44 % 82 % 1015,9 hPa 0,0 l/m² 1,3 km/h (1 Bft) SW 236 ° 0 min 0 W/m² 1,1 °C 3,9 °C 1,6 km/h (1 Bft)
12.05.2020 22:11 26,3 °C 3,9 °C 44 % 82 % 1015,9 hPa 0,0 l/m² 1,7 km/h (1 Bft) SW 236 ° 0 min 0 W/m² 1,1 °C 3,9 °C 3,2 km/h (1 Bft)
12.05.2020 22:12 26,3 °C 3,9 °C 44 % 82 % 1015,9 hPa 0,0 l/m² 1,2 km/h (1 Bft) SW 236 ° 0 min 0 W/m² 1,1 °C 3,9 °C 1,6 km/h (1 Bft)
12.05.2020 22:13 26,3 °C 3,9 °C 44 % 82 % 1015,8 hPa 0,0 l/m² 1,9 km/h (1 Bft) SW 236 ° 0 min 0 W/m² 1,1 °C 3,9 °C 3,2 km/h (1 Bft)
12.05.2020 22:15 26,3 °C 3,8 °C 44 % 82 % 1015,9 hPa 0,0 l/m² 0,6 km/h (0 Bft) SW 236 ° 0 min 0 W/m² 1,0 °C 3,8 °C 1,6 km/h (1 Bft)
12.05.2020 22:17 26,3 °C 3,6 °C 44 % 81 % 1015,9 hPa 0,0 l/m² 0,6 km/h (0 Bft) SW 236 ° 0 min 0 W/m² 0,7 °C 3,6 °C 1,6 km/h (1 Bft)
12.05.2020 22:19 26,3 °C 3,5 °C 44 % 82 % 1015,8 hPa 0,0 l/m² 1,3 km/h (1 Bft) SW 236 ° 0 min 0 W/m² 0,7 °C 3,5 °C 1,6 km/h (1 Bft)
12.05.2020 22:20 26,3 °C 3,4 °C 44 % 83 % 1015,8 hPa 0,0 l/m² 1,6 km/h (1 Bft) SW 236 ° 0 min 0 W/m² 0,8 °C 3,4 °C 3,2 km/h (1 Bft)
12.05.2020 22:21 26,3 °C 3,4 °C 44 % 83 % 1015,8 hPa 0,0 l/m² 1,9 km/h (1 Bft) SW 236 ° 0 min 0 W/m² 0,8 °C 3,4 °C 3,2 km/h (1 Bft)
12.05.2020 22:22 26,3 °C 3,4 °C 44 % 83 % 1015,9 hPa 0,0 l/m² 0,7 km/h (0 Bft) SW 236 ° 0 min 0 W/m² 0,8 °C 3,4 °C 1,6 km/h (1 Bft)
12.05.2020 22:23 26,3 °C 3,4 °C 44 % 84 % 1015,9 hPa 0,0 l/m² 0,4 km/h (0 Bft) SW 236 ° 0 min 0 W/m² 1,0 °C 3,4 °C 1,6 km/h (1 Bft)
12.05.2020 22:25 26,3 °C 3,3 °C 44 % 84 % 1015,9 hPa 0,0 l/m² 0,0 km/h (0 Bft) SW 236 ° 0 min 0 W/m² 0,9 °C 3,3 °C 0,0 km/h (0 Bft)
12.05.2020 22:27 26,3 °C 3,3 °C 44 % 84 % 1015,8 hPa 0,0 l/m² 0,0 km/h (0 Bft) SW 236 ° 0 min 0 W/m² 0,9 °C 3,3 °C 0,0 km/h (0 Bft)
12.05.2020 22:29 26,3 °C 3,3 °C 44 % 84 % 1015,8 hPa 0,0 l/m² 1,4 km/h (1 Bft) SW 236 ° 0 min 0 W/m² 0,9 °C 3,3 °C 3,2 km/h (1 Bft)
12.05.2020 22:30 26,3 °C 3,3 °C 44 % 84 % 1015,8 hPa 0,0 l/m² 1,4 km/h (1 Bft) SW 236 ° 0 min 0 W/m² 0,9 °C 3,3 °C 1,6 km/h (1 Bft)
12.05.2020 22:31 26,3 °C 3,3 °C 44 % 84 % 1015,8 hPa 0,0 l/m² 1,5 km/h (1 Bft) SW 236 ° 0 min 0 W/m² 0,9 °C 3,3 °C 1,6 km/h (1 Bft)
12.05.2020 22:32 26,3 °C 3,3 °C 44 % 84 % 1015,8 hPa 0,0 l/m² 1,5 km/h (1 Bft) SW 236 ° 0 min 0 W/m² 0,9 °C 3,3 °C 1,6 km/h (1 Bft)
12.05.2020 22:33 26,2 °C 3,3 °C 44 % 84 % 1015,9 hPa 0,0 l/m² 1,6 km/h (1 Bft) SW 236 ° 0 min 0 W/m² 0,9 °C 3,3 °C 1,6 km/h (1 Bft)
12.05.2020 22:35 26,2 °C 3,3 °C 44 % 83 % 1015,9 hPa 0,0 l/m² 1,5 km/h (1 Bft) SW 236 ° 0 min 0 W/m² 0,7 °C 3,3 °C 1,6 km/h (1 Bft)
12.05.2020 22:37 26,2 °C 3,3 °C 44 % 83 % 1015,8 hPa 0,0 l/m² 1,7 km/h (1 Bft) SW 236 ° 0 min 0 W/m² 0,7 °C 3,3 °C 3,2 km/h (1 Bft)
12.05.2020 22:39 26,2 °C 3,4 °C 44 % 83 % 1015,8 hPa 0,0 l/m² 1,9 km/h (1 Bft) SW 236 ° 0 min 0 W/m² 0,8 °C 3,4 °C 3,2 km/h (1 Bft)
12.05.2020 22:40 26,2 °C 3,3 °C 44 % 82 % 1015,8 hPa 0,0 l/m² 1,5 km/h (1 Bft) SW 236 ° 0 min 0 W/m² 0,5 °C 3,3 °C 3,2 km/h (1 Bft)
12.05.2020 22:41 26,2 °C 3,3 °C 44 % 82 % 1015,8 hPa 0,0 l/m² 1,2 km/h (1 Bft) SW 236 ° 0 min 0 W/m² 0,5 °C 3,3 °C 3,2 km/h (1 Bft)
12.05.2020 22:42 26,2 °C 3,3 °C 44 % 82 % 1015,9 hPa 0,0 l/m² 1,7 km/h (1 Bft) SW 236 ° 0 min 0 W/m² 0,5 °C 3,3 °C 3,2 km/h (1 Bft)
12.05.2020 22:43 26,2 °C 3,3 °C 44 % 82 % 1015,8 hPa 0,0 l/m² 0,7 km/h (0 Bft) SW 236 ° 0 min 0 W/m² 0,5 °C 3,3 °C 1,6 km/h (1 Bft)
12.05.2020 22:45 26,2 °C 3,2 °C 44 % 81 % 1015,8 hPa 0,0 l/m² 0,8 km/h (0 Bft) SW 236 ° 0 min 0 W/m² 0,3 °C 3,2 °C 1,6 km/h (1 Bft)
12.05.2020 22:47 26,2 °C 3,1 °C 43 % 82 % 1015,8 hPa 0,0 l/m² 1,1 km/h (1 Bft) SW 236 ° 0 min 0 W/m² 0,3 °C 3,1 °C 1,6 km/h (1 Bft)
12.05.2020 22:49 26,2 °C 2,7 °C 43 % 80 % 1015,8 hPa 0,0 l/m² 1,2 km/h (1 Bft) SW 236 ° 0 min 0 W/m² -0,4 °C 2,7 °C 1,6 km/h (1 Bft)
12.05.2020 22:50 26,2 °C 2,6 °C 43 % 81 % 1015,8 hPa 0,0 l/m² 0,9 km/h (0 Bft) SW 236 ° 0 min 0 W/m² -0,3 °C 2,6 °C 1,6 km/h (1 Bft)
12.05.2020 22:51 26,2 °C 2,6 °C 43 % 82 % 1015,8 hPa 0,0 l/m² 0,7 km/h (0 Bft) SW 236 ° 0 min 0 W/m² -0,2 °C 2,6 °C 1,6 km/h (1 Bft)
12.05.2020 22:52 26,2 °C 2,6 °C 43 % 83 % 1015,8 hPa 0,0 l/m² 1,2 km/h (1 Bft) SW 236 ° 0 min 0 W/m² 0,0 °C 2,6 °C 1,6 km/h (1 Bft)
12.05.2020 22:53 26,2 °C 2,5 °C 43 % 83 % 1015,8 hPa 0,0 l/m² 0,6 km/h (0 Bft) SW 236 ° 0 min 0 W/m² -0,1 °C 2,5 °C 1,6 km/h (1 Bft)
12.05.2020 22:55 26,2 °C 2,2 °C 43 % 81 % 1015,8 hPa 0,0 l/m² 0,6 km/h (0 Bft) SW 236 ° 0 min 0 W/m² -0,7 °C 2,2 °C 3,2 km/h (1 Bft)
12.05.2020 22:57 26,2 °C 1,9 °C 43 % 82 % 1015,8 hPa 0,0 l/m² 2,8 km/h (1 Bft) SW 236 ° 0 min 0 W/m² -0,8 °C 1,9 °C 3,2 km/h (1 Bft)
12.05.2020 22:59 26,3 °C 1,8 °C 43 % 83 % 1015,7 hPa 0,0 l/m² 2,3 km/h (1 Bft) SW 236 ° 0 min 0 W/m² -0,8 °C 1,8 °C 3,2 km/h (1 Bft)
12.05.2020 23:00 26,3 °C 1,8 °C 43 % 83 % 1015,7 hPa 0,0 l/m² 1,8 km/h (1 Bft) SW 236 ° 0 min 0 W/m² -0,8 °C 1,8 °C 3,2 km/h (1 Bft)
12.05.2020 23:01 26,3 °C 1,8 °C 43 % 83 % 1015,7 hPa 0,0 l/m² 1,9 km/h (1 Bft) SW 236 ° 0 min 0 W/m² -0,8 °C 1,8 °C 3,2 km/h (1 Bft)
12.05.2020 23:02 26,3 °C 1,8 °C 43 % 84 % 1015,8 hPa 0,0 l/m² 1,9 km/h (1 Bft) SW 236 ° 0 min 0 W/m² -0,6 °C 1,8 °C 3,2 km/h (1 Bft)
12.05.2020 23:03 26,3 °C 1,8 °C 43 % 84 % 1015,8 hPa 0,0 l/m² 1,5 km/h (1 Bft) SW 236 ° 0 min 0 W/m² -0,6 °C 1,8 °C 3,2 km/h (1 Bft)
12.05.2020 23:05 26,3 °C 2,0 °C 43 % 85 % 1015,8 hPa 0,0 l/m² 1,1 km/h (1 Bft) SW 236 ° 0 min 0 W/m² -0,3 °C 2,0 °C 1,6 km/h (1 Bft)
12.05.2020 23:07 26,3 °C 2,1 °C 43 % 86 % 1015,7 hPa 0,0 l/m² 0,1 km/h (0 Bft) SW 236 ° 0 min 0 W/m² 0,0 °C 2,1 °C 1,6 km/h (1 Bft)
12.05.2020 23:09 26,3 °C 2,2 °C 43 % 85 % 1015,7 hPa 0,0 l/m² 0,0 km/h (0 Bft) SW 236 ° 0 min 0 W/m² -0,1 °C 2,2 °C 0,0 km/h (0 Bft)
12.05.2020 23:10 26,3 °C 2,2 °C 43 % 85 % 1015,7 hPa 0,0 l/m² 0,2 km/h (0 Bft) SW 236 ° 0 min 0 W/m² -0,1 °C 2,2 °C 1,6 km/h (1 Bft)
12.05.2020 23:11 26,3 °C 2,3 °C 43 % 85 % 1015,7 hPa 0,0 l/m² 1,1 km/h (1 Bft) SW 236 ° 0 min 0 W/m² 0,0 °C 2,3 °C 1,6 km/h (1 Bft)
12.05.2020 23:12 26,3 °C 2,3 °C 43 % 85 % 1015,7 hPa 0,0 l/m² 1,4 km/h (1 Bft) SW 236 ° 0 min 0 W/m² 0,0 °C 2,3 °C 1,6 km/h (1 Bft)
12.05.2020 23:13 26,4 °C 2,3 °C 43 % 85 % 1015,6 hPa 0,0 l/m² 2,2 km/h (1 Bft) SW 236 ° 0 min 0 W/m² 0,0 °C 2,3 °C 3,2 km/h (1 Bft)
12.05.2020 23:15 26,4 °C 2,3 °C 43 % 85 % 1015,7 hPa 0,0 l/m² 2,1 km/h (1 Bft) SW 236 ° 0 min 0 W/m² 0,0 °C 2,3 °C 3,2 km/h (1 Bft)
12.05.2020 23:16 26,3 °C 2,3 °C 43 % 85 % 1015,7 hPa 0,0 l/m² 1,6 km/h (1 Bft) SW 225 ° 0 min 0 W/m² 0,0 °C 2,3 °C 3,2 km/h (1 Bft)
12.05.2020 23:22 26,3 °C 2,3 °C 43 % 85 % 1015,6 hPa 0,0 l/m² 1,7 km/h (1 Bft) SW 236 ° 0 min 0 W/m² 0,0 °C 2,3 °C 3,2 km/h (1 Bft)
12.05.2020 23:24 26,3 °C 2,3 °C 43 % 85 % 1015,7 hPa 0,0 l/m² 1,9 km/h (1 Bft) SW 236 ° 0 min 0 W/m² 0,0 °C 2,3 °C 3,2 km/h (1 Bft)
12.05.2020 23:25 26,4 °C 2,3 °C 43 % 85 % 1015,7 hPa 0,0 l/m² 1,6 km/h (1 Bft) SW 236 ° 0 min 0 W/m² 0,0 °C 2,3 °C 3,2 km/h (1 Bft)
12.05.2020 23:26 26,4 °C 2,3 °C 43 % 85 % 1015,6 hPa 0,0 l/m² 1,2 km/h (1 Bft) SW 236 ° 0 min 0 W/m² 0,0 °C 2,3 °C 1,6 km/h (1 Bft)
12.05.2020 23:28 26,4 °C 2,2 °C 43 % 85 % 1015,6 hPa 0,0 l/m² 0,7 km/h (0 Bft) SW 236 ° 0 min 0 W/m² -0,1 °C 2,2 °C 1,6 km/h (1 Bft)
12.05.2020 23:30 26,4 °C 2,2 °C 43 % 85 % 1015,7 hPa 0,0 l/m² 1,1 km/h (1 Bft) SW 236 ° 0 min 0 W/m² -0,1 °C 2,2 °C 1,6 km/h (1 Bft)
12.05.2020 23:31 26,4 °C 2,2 °C 43 % 85 % 1015,7 hPa 0,0 l/m² 1,3 km/h (1 Bft) SW 236 ° 0 min 0 W/m² -0,1 °C 2,2 °C 3,2 km/h (1 Bft)
12.05.2020 23:32 26,4 °C 2,2 °C 43 % 85 % 1015,7 hPa 0,0 l/m² 1,4 km/h (1 Bft) SW 236 ° 0 min 0 W/m² -0,1 °C 2,2 °C 1,6 km/h (1 Bft)
12.05.2020 23:33 26,4 °C 2,2 °C 43 % 85 % 1015,6 hPa 0,0 l/m² 1,0 km/h (0 Bft) SW 236 ° 0 min 0 W/m² -0,1 °C 2,2 °C 1,6 km/h (1 Bft)
12.05.2020 23:34 26,4 °C 2,2 °C 43 % 85 % 1015,7 hPa 0,0 l/m² 0,3 km/h (0 Bft) SW 236 ° 0 min 0 W/m² -0,1 °C 2,2 °C 1,6 km/h (1 Bft)
12.05.2020 23:36 26,4 °C 2,1 °C 43 % 85 % 1015,6 hPa 0,0 l/m² 0,0 km/h (0 Bft) SW 236 ° 0 min 0 W/m² -0,2 °C 2,1 °C 1,6 km/h (1 Bft)
12.05.2020 23:38 26,4 °C 2,0 °C 43 % 85 % 1015,6 hPa 0,0 l/m² 1,4 km/h (1 Bft) SW 236 ° 0 min 0 W/m² -0,3 °C 2,0 °C 3,2 km/h (1 Bft)
12.05.2020 23:40 26,4 °C 1,8 °C 43 % 84 % 1015,5 hPa 0,0 l/m² 2,2 km/h (1 Bft) SW 236 ° 0 min 0 W/m² -0,6 °C 1,8 °C 3,2 km/h (1 Bft)
12.05.2020 23:41 26,4 °C 1,7 °C 43 % 84 % 1015,6 hPa 0,0 l/m² 3,2 km/h (1 Bft) SW 236 ° 0 min 0 W/m² -0,7 °C 1,7 °C 4,8 km/h (1 Bft)
12.05.2020 23:42 26,4 °C 1,7 °C 43 % 84 % 1015,6 hPa 0,0 l/m² 3,6 km/h (1 Bft) SW 236 ° 0 min 0 W/m² -0,7 °C 1,7 °C 4,8 km/h (1 Bft)
12.05.2020 23:43 26,4 °C 1,6 °C 43 % 84 % 1015,5 hPa 0,0 l/m² 3,2 km/h (1 Bft) SW 236 ° 0 min 0 W/m² -0,8 °C 1,6 °C 4,8 km/h (1 Bft)
12.05.2020 23:45 26,4 °C 1,6 °C 43 % 85 % 1015,5 hPa 0,0 l/m² 3,2 km/h (1 Bft) SW 236 ° 0 min 0 W/m² -0,6 °C 1,6 °C 4,8 km/h (1 Bft)
12.05.2020 23:47 26,4 °C 1,7 °C 43 % 85 % 1015,5 hPa 0,0 l/m² 1,6 km/h (1 Bft) SW 236 ° 0 min 0 W/m² -0,5 °C 1,7 °C 3,2 km/h (1 Bft)
12.05.2020 23:49 26,4 °C 1,7 °C 43 % 85 % 1015,5 hPa 0,0 l/m² 1,2 km/h (1 Bft) SW 236 ° 0 min 0 W/m² -0,5 °C 1,7 °C 1,6 km/h (1 Bft)
12.05.2020 23:50 26,4 °C 1,7 °C 43 % 85 % 1015,5 hPa 0,0 l/m² 0,9 km/h (0 Bft) SW 236 ° 0 min 0 W/m² -0,5 °C 1,7 °C 1,6 km/h (1 Bft)
12.05.2020 23:51 26,4 °C 1,7 °C 43 % 85 % 1015,5 hPa 0,0 l/m² 1,0 km/h (0 Bft) SW 236 ° 0 min 0 W/m² -0,5 °C 1,7 °C 1,6 km/h (1 Bft)
12.05.2020 23:52 26,5 °C 1,6 °C 43 % 85 % 1015,5 hPa 0,0 l/m² 1,3 km/h (1 Bft) SW 236 ° 0 min 0 W/m² -0,6 °C 1,6 °C 1,6 km/h (1 Bft)
12.05.2020 23:53 26,5 °C 1,6 °C 43 % 85 % 1015,5 hPa 0,0 l/m² 0,6 km/h (0 Bft) SW 236 ° 0 min 0 W/m² -0,6 °C 1,6 °C 1,6 km/h (1 Bft)
12.05.2020 23:55 26,5 °C 1,6 °C 43 % 86 % 1015,5 hPa 0,0 l/m² 0,7 km/h (0 Bft) SW 236 ° 0 min 0 W/m² -0,5 °C 1,6 °C 1,6 km/h (1 Bft)
12.05.2020 23:57 26,5 °C 1,6 °C 43 % 85 % 1015,5 hPa 0,0 l/m² 0,2 km/h (0 Bft) SW 236 ° 0 min 0 W/m² -0,6 °C 1,6 °C 1,6 km/h (1 Bft)
12.05.2020 23:59 26,4 °C 1,5 °C 43 % 85 % 1015,4 hPa 0,0 l/m² 0,1 km/h (0 Bft) SW 236 ° 0 min 0 W/m² -0,7 °C 1,5 °C 1,6 km/h (1 Bft)
_ Min-Zeit 08:06 04:53 12:10 19:00 00:03 - 23:36 - - - - 04:53 04:53 23:09
Minimum _ 23,4 °C -1,0 °C 34 % 47 % 1014,2 hPa - 0,0 km/h (0 Bft) - - - - -2,6 °C -1,0 °C 0,0 km/h (0 Bft)
_ Max-Zeit 12:05 18:05 08:24 05:14 11:15 23:59 18:15 - - 19:19 11:03 11:00 17:57 18:15
Maximum _ 31,2 °C 12,2 °C 45 % 89 % 1018,9 hPa 0,0 l/m² 21,1 km/h
SW (4 Bft)
- - 5 min 1032 W/m² 3,7 °C 11,1 °C 29,0 km/h
SW (5 Bft)
Durchschnitt _ 26,9 °C 5,7 °C 41 % 71 % 1017,1 hPa #0,0 l/m² 6,8 km/h (2 Bft) W - #13:09 h 197 W/m² 0,5 °C 4,2 °C 10,0 km/h (2 Bft)
© 2009 Mathias Hoßbach